ECMWFNIL_500_spd_000.txt.gz
Wind_Speed
16 15 16 18 16 14 13 13 12 13 14 13 11 7 6 7 8 8 9 9 9 9 9 8 8 8 7 7 7 8 8 9 9 10 11 12 13 13 13 13 12 12
16 17 18 18 16 15 14 15 14 13 13 13 11 8 6 7 7 8 9 9 9 9 8 8 8 8 8 8 8 8 8 9 9 10 11 12 12 13 13 13 12 11
16 18 19 17 15 15 15 15 15 14 13 12 12 10 9 8 8 8 9 10 10 10 10 10 10 10 10 9 9 9 9 9 10 10 11 12 12 13 13 13 13 12
17 19 20 19 18 16 16 16 17 15 14 13 13 12 11 10 9 9 10 10 11 11 12 12 12 12 12 12 12 11 11 11 11 11 11 12 13 14 14 13 13 12
19 18 19 19 18 17 18 19 19 18 17 15 14 13 12 11 9 9 10 11 12 13 13 14 13 13 13 14 14 14 13 12 12 12 12 12 13 14 15 15 14 14
18 18 18 18 18 18 19 19 19 18 18 17 15 14 13 12 11 10 10 11 13 14 14 14 13 12 12 13 14 15 15 15 14 13 12 12 13 14 15 16 16 15
18 19 20 21 20 20 19 19 20 19 18 17 17 16 15 14 14 13 12 12 13 14 15 14 13 12 12 12 13 14 16 17 16 15 14 14 14 14 15 15 16 16
24 23 24 24 22 21 21 21 21 21 20 18 18 17 17 18 18 16 15 14 14 14 14 14 14 14 14 14 14 15 16 17 17 17 16 16 16 16 16 16 16 16
29 26 26 26 25 24 24 23 22 22 21 19 19 18 18 20 20 20 18 17 16 16 16 16 16 17 17 18 17 17 17 17 18 18 19 19 19 19 18 18 17 17
29 26 26 26 26 26 25 24 22 22 22 21 20 20 21 21 22 22 21 20 20 20 21 21 21 21 21 21 21 20 20 19 19 20 21 21 21 21 22 21 20 20
28 27 26 26 26 26 27 26 25 24 25 25 24 24 25 25 24 24 24 23 23 24 25 26 26 25 24 24 26 26 25 24 23 23 23 23 24 24 24 24 24 23
27 27 27 27 25 26 28 30 29 27 25 26 27 27 27 27 27 27 27 27 27 27 28 29 29 28 27 28 30 31 32 32 31 28 26 25 25 25 25 26 27 26
27 28 29 28 26 25 26 27 27 26 25 26 27 28 28 28 27 27 28 28 29 29 29 30 31 32 32 32 32 31 31 30 28 26 25 24 25 26 26 28 29 29
27 25 25 27 27 26 26 27 28 29 29 29 27 27 28 28 27 26 26 27 29 30 30 31 33 35 35 34 33 31 28 27 26 26 26 25 25 24 25 28 30 30
29 27 26 27 30 29 26 25 27 29 31 31 28 25 26 27 29 29 30 31 32 32 33 34 36 37 38 37 35 34 32 32 31 30 29 29 28 27 27 28 30 32
34 34 31 28 31 33 30 29 29 29 30 31 31 29 30 31 32 33 35 36 36 37 37 38 39 39 40 39 38 37 36 35 34 33 32 33 33 33 33 32 32 33
35 35 33 33 35 36 36 37 37 35 35 35 37 38 39 38 38 38 39 40 40 38 37 37 39 40 41 41 40 39 39 38 37 36 36 36 36 36 37 37 37 37
36 36 35 37 39 39 40 41 40 40 40 40 41 43 44 43 43 42 42 42 41 41 39 40 41 43 44 45 44 43 43 42 40 39 38 38 38 38 39 39 39 38
38 39 38 39 39 39 40 41 41 41 42 43 44 45 45 45 44 44 44 44 44 45 45 46 46 46 47 48 48 46 46 45 43 41 41 41 41 41 41 41 41 40
40 40 40 39 38 37 38 39 40 41 43 44 45 46 45 45 45 45 44 44 45 47 48 49 49 49 49 49 48 46 44 44 45 44 44 45 45 44 44 46 46 44
39 39 39 39 38 38 39 40 41 42 44 46 46 47 47 47 47 48 47 46 45 46 47 47 48 48 47 48 48 48 47 47 48 48 49 49 49 48 47 48 48 47
42 40 40 40 40 41 42 43 44 45 47 48 49 50 51 52 52 51 50 49 48 46 46 46 46 46 46 47 47 48 49 50 51 51 51 51 51 50 50 50 50 50
45 44 43 43 44 45 46 47 49 49 50 51 52 53 54 54 54 53 53 52 50 49 48 47 46 47 47 47 47 47 48 49 49 50 50 50 50 50 50 50 50 51
48 48 49 49 50 50 51 51 52 52 52 53 53 54 54 54 54 53 53 52 52 51 50 49 48 48 48 48 48 47 47 48 48 49 49 50 50 50 50 50 49 50
53 53 53 53 53 53 53 53 52 53 53 54 55 55 55 54 53 53 53 53 53 52 52 52 51 51 50 50 49 49 49 50 50 50 51 51 51 52 52 51 51 51
56 55 54 53 52 52 52 52 52 53 54 55 56 56 56 55 53 53 53 54 54 54 54 54 53 53 53 52 52 52 52 51 51 50 50 50 50 50 51 51 51 51

ECMWFNIL_500_spd_003.txt.gz
Wind_Speed
24 18 16 15 14 14 15 14 13 11 11 11 11 10 10 11 11 10 9 8 8 8 8 9 9 9 9 9 9 9 9 10 10 11 11 11 12 12 13 13 14 14
25 20 17 15 15 15 16 15 14 12 11 11 11 10 10 11 11 10 8 7 7 7 7 7 8 8 9 9 9 9 9 9 10 10 11 11 11 11 12 12 12 12
25 23 20 15 14 15 16 16 15 14 12 11 11 11 10 10 10 9 9 8 8 8 8 8 9 9 9 9 9 9 10 10 10 11 11 11 12 11 12 11 11 11
25 27 23 15 14 16 16 16 16 16 14 12 12 12 11 11 10 10 10 10 10 10 10 11 11 11 11 11 11 11 11 11 11 11 12 12 12 12 12 12 12 11
18 22 21 15 14 15 13 14 15 16 16 15 14 13 13 13 12 12 12 12 12 12 12 12 13 13 13 13 13 13 13 12 12 12 12 12 13 13 13 14 14 13
16 15 15 13 12 12 13 14 15 16 17 17 15 14 14 15 15 14 14 13 13 14 14 14 13 13 12 12 12 12 12 12 12 13 13 13 13 13 14 14 15 15
18 16 15 13 12 13 15 16 16 16 17 17 17 16 16 16 17 16 15 14 14 13 13 13 13 12 11 10 10 10 10 11 12 13 13 14 14 13 14 14 15 15
18 16 16 17 17 18 19 19 18 18 18 18 19 20 19 18 18 17 16 16 15 15 14 14 14 13 13 12 11 10 11 11 11 12 13 14 14 14 15 15 15 16
17 16 18 19 20 19 19 18 17 17 18 19 22 22 21 21 20 20 19 17 16 16 15 15 15 16 16 15 15 15 15 14 13 13 14 15 15 16 17 18 18 18
17 20 21 19 18 17 17 17 17 18 19 21 23 23 23 23 22 21 21 19 18 18 18 18 17 18 18 18 18 18 18 17 16 16 17 18 19 20 20 20 21 21
20 21 21 18 18 18 18 19 19 20 20 22 23 24 24 25 24 23 22 21 21 21 21 20 20 21 21 20 20 20 20 20 19 19 20 21 23 25 25 25 24 24
19 19 20 20 19 19 19 20 21 21 21 22 24 25 27 27 26 26 25 24 25 25 23 23 24 25 24 24 24 24 23 23 23 23 22 22 23 24 24 23 23 23
21 21 20 19 19 19 19 20 22 23 22 22 23 26 29 29 27 26 27 27 27 27 27 27 27 27 26 26 26 26 26 26 26 26 26 25 23 22 20 20 21 22
24 20 18 18 20 20 18 18 20 22 23 22 22 25 28 30 29 26 26 28 27 28 29 29 29 28 26 25 25 26 27 28 28 28 29 28 27 26 25 25 25 25
24 20 20 21 21 19 18 20 21 23 25 24 24 26 27 30 31 26 25 26 26 24 24 23 24 26 26 27 28 28 30 31 32 31 31 31 32 31 31 30 30 30
25 24 25 26 24 22 23 25 26 27 28 27 28 30 29 29 30 28 27 28 27 25 24 23 24 26 28 30 31 32 33 34 34 33 32 32 33 33 33 33 33 33
29 29 30 32 32 30 30 32 31 30 30 29 30 31 31 29 30 30 31 32 31 29 29 29 30 31 32 33 33 34 35 35 35 35 35 35 35 35 36 36 37 37
32 32 31 32 34 34 34 36 35 33 33 33 34 36 36 35 35 35 35 34 33 32 33 33 33 33 34 35 36 37 37 38 38 39 40 41 41 41 41 40 41 41
35 35 34 34 35 36 36 37 37 37 36 36 37 40 41 42 42 42 39 37 37 37 36 35 34 34 35 36 38 39 39 40 41 42 43 44 45 46 45 43 43 43
38 36 36 36 35 35 35 36 38 38 38 39 40 41 42 42 42 41 40 39 40 39 38 37 37 38 39 40 41 42 42 42 43 44 45 46 47 47 47 46 45 45
40 39 39 38 37 36 36 36 37 38 39 39 40 41 42 42 42 41 41 41 40 40 39 40 41 42 43 44 45 44 44 44 44 44 45 45 46 47 48 48 47 48
43 42 42 41 41 41 40 40 40 40 41 41 41 41 41 41 40 41 41 42 42 42 42 43 44 45 46 47 47 46 45 45 45 45 46 46 47 47 48 49 49 49
44 44 44 44 45 45 45 44 44 44 44 44 44 42 42 41 41 42 43 45 46 46 45 45 46 47 48 48 48 47 46 46 46 47 47 48 48 49 49 50 50 51
45 45 46 48 48 48 48 47 47 47 47 47 46 46 45 45 46 47 48 48 49 48 48 47 48 48 49 50 50 50 49 49 48 48 48 48 48 49 49 50 51 51
47 49 50 50 50 48 48 48 48 48 49 49 49 49 50 50 51 50 50 50 51 50 48 48 49 50 50 50 51 52 52 52 51 50 49 49 49 49 49 50 50 51
49 49 48 47 46 45 45 46 46 47 48 50 52 52 53 53 53 51 50 50 50 49 49 51 52 52 52 52 52 52 53 53 52 51 50 50 49 49 49 49 50 50

ECMWFNIL_500_spd_006.txt.gz
Wind_Speed
27 27 24 22 21 22 24 21 15 14 14 13 11 11 11 12 12 13 14 15 15 15 14 14 13 13 13 12 12 12 12 12 12 12 12 11 11 11 10 11 11 12
28 29 28 27 25 24 25 24 19 15 14 12 11 11 11 11 11 12 12 13 14 14 13 13 13 13 13 13 13 12 12 12 12 12 12 12 11 10 9 9 9 9
26 29 29 29 27 24 25 24 21 16 14 13 12 11 11 11 11 11 11 11 12 12 12 12 12 12 12 12 12 12 12 12 13 13 13 13 12 11 10 9 8 8
23 22 22 23 23 23 23 22 21 18 15 15 14 12 11 11 12 12 12 12 12 12 12 12 12 12 12 11 11 11 12 12 12 13 13 13 13 12 11 10 9 8
16 13 11 13 14 18 20 19 19 19 17 15 15 14 13 13 13 14 14 13 13 13 13 13 13 13 13 13 13 13 13 13 14 14 14 14 14 13 12 11 10 9
16 15 13 12 10 11 13 15 17 20 19 15 14 14 14 14 15 15 15 15 15 15 15 15 15 15 15 15 15 14 14 15 15 15 15 15 15 14 13 12 11 11
15 15 12 10 8 8 10 13 17 20 21 18 16 15 15 15 16 17 17 17 16 16 16 16 16 16 15 15 14 14 14 14 13 14 14 14 14 13 13 12 11 11
14 13 10 8 5 7 11 15 17 20 21 21 20 19 17 17 17 17 17 17 17 17 17 17 17 17 16 15 15 14 14 13 12 12 12 13 13 12 11 10 10 10
12 12 11 10 9 10 13 16 18 19 19 21 22 20 18 18 17 17 18 18 18 18 18 19 19 19 18 17 16 16 15 14 12 12 11 12 12 11 10 9 10 12
13 11 12 14 14 13 14 17 19 18 17 19 20 19 18 19 18 17 18 19 19 18 19 20 21 20 19 19 18 17 17 16 15 14 13 13 13 12 12 12 13 14
15 14 14 16 15 14 16 19 20 19 18 19 20 20 20 20 20 19 19 21 21 20 20 21 22 21 20 20 19 19 18 18 17 17 16 16 15 16 16 16 16 16
17 16 15 15 15 15 17 19 20 20 20 20 20 22 22 21 21 20 22 23 23 21 22 24 24 23 22 22 23 23 21 21 20 20 20 20 19 19 20 19 18 17
17 17 17 16 17 17 17 19 21 20 20 21 23 23 23 22 21 22 24 26 25 24 24 26 25 25 25 25 25 24 24 24 24 23 23 23 23 23 23 22 21 19
21 20 21 22 22 20 17 18 20 19 19 21 22 22 22 22 21 23 24 26 28 28 27 27 29 29 30 29 29 28 27 26 24 23 23 23 24 24 24 24 24 23
25 23 22 22 22 20 18 17 19 20 20 21 21 21 21 22 23 25 27 29 30 30 30 31 33 32 30 30 29 29 28 26 24 24 23 24 25 26 27 28 28 27
27 25 22 20 19 20 20 19 21 23 23 23 23 23 21 22 24 29 32 31 29 30 33 36 34 28 24 23 23 23 23 23 24 25 25 26 27 28 30 31 31 31
29 28 26 25 24 26 27 26 27 29 29 28 29 28 26 26 27 30 32 31 31 32 32 33 31 25 22 22 22 23 23 24 25 26 27 29 30 31 33 34 35 36
34 33 32 31 29 28 30 31 32 33 33 32 33 33 31 30 31 33 34 34 35 36 34 33 33 32 31 29 28 28 28 27 27 28 29 31 32 34 35 37 38 39
38 36 35 35 32 28 29 31 33 33 33 34 34 33 32 31 32 35 37 37 38 38 39 40 40 40 39 37 34 32 31 30 30 31 32 33 34 35 37 38 40 41
39 38 36 36 36 34 33 34 34 34 33 34 33 32 33 33 34 35 37 39 40 41 41 41 40 39 39 38 36 34 33 33 33 33 34 35 36 37 38 39 40 40
41 40 39 39 39 38 37 37 38 38 38 38 36 35 35 35 34 34 36 37 38 39 39 40 39 38 36 35 35 35 36 36 36 36 37 37 37 37 38 38 39 39
44 43 42 42 41 40 40 40 41 42 43 42 41 39 38 37 36 36 37 37 37 38 38 40 40 39 37 36 36 37 38 39 40 40 40 39 38 38 38 38 39 40
44 43 43 42 42 42 41 41 42 42 43 44 43 42 42 41 40 40 39 39 39 39 39 41 42 41 41 40 40 41 41 41 41 41 41 41 40 39 39 40 40 41
43 42 41 42 42 41 40 41 42 43 44 44 44 45 45 45 44 43 43 43 42 42 42 43 44 44 44 44 44 43 42 41 40 41 41 41 41 41 42 42 43 43
42 41 40 40 41 40 40 40 41 42 44 45 45 46 47 48 47 46 45 45 44 44 44 45 45 46 46 46 45 43 42 41 41 41 42 43 44 45 46 46 46 46
44 43 42 42 42 41 41 41 41 42 44 44 45 48 49 50 49 48 47 46 45 44 44 44 45 45 45 45 44 43 42 42 42 43 43 45 46 47 48 48 48 47

ECMWFNIL_500_spd_009.txt.gz
Wind_Speed
22 22 21 22 24 25 24 23 24 20 16 16 15 15 15 15 15 15 15 15 15 15 15 16 18 19 20 21 22 22 23 23 23 22 22 21 20 18 17 16 15 14
20 21 20 22 24 26 26 25 25 23 20 19 18 17 16 16 16 16 15 15 15 15 15 16 17 18 19 20 21 21 21 21 21 21 20 20 19 18 17 16 15 14
20 21 21 22 23 27 30 27 26 26 25 22 20 18 16 16 17 16 16 15 15 14 14 15 15 16 17 18 18 19 19 19 19 19 19 18 18 18 17 16 16 15
18 19 19 19 18 21 24 24 25 28 28 25 22 18 16 17 17 16 16 15 15 14 14 14 14 15 16 16 17 17 17 17 17 17 17 17 17 17 17 17 16 16
18 18 16 14 13 14 13 16 22 26 28 26 21 18 18 19 19 18 17 16 15 15 15 15 15 16 16 16 17 17 17 17 17 17 17 17 17 17 17 17 17 16
20 20 18 15 13 11 10 11 15 18 19 19 18 17 18 20 20 19 18 18 17 17 17 17 17 18 18 18 18 18 18 19 18 18 18 18 18 18 18 18 18 17
21 21 21 19 16 14 12 11 11 13 15 15 16 17 17 18 19 19 19 19 19 19 19 19 18 18 18 19 19 19 20 20 19 19 19 18 18 18 17 17 17 16
22 21 20 20 18 16 13 10 11 14 15 16 17 17 17 18 18 19 19 20 20 20 20 20 18 18 17 18 18 18 19 19 19 19 18 18 17 17 16 16 15 15
21 21 20 19 17 15 12 11 12 14 15 17 18 19 19 20 19 19 20 21 21 21 20 20 19 18 17 17 17 17 18 18 18 17 17 17 17 16 15 15 14 14
21 21 19 18 17 16 14 14 14 15 17 17 18 19 20 21 20 19 20 21 22 21 20 20 20 19 18 19 19 19 19 18 18 18 18 18 18 17 16 15 15 15
21 21 19 17 17 18 17 16 16 17 19 19 20 21 21 21 20 19 18 19 21 21 21 20 20 19 20 21 22 21 21 20 20 19 19 20 20 20 19 18 18 18
20 19 19 18 18 18 17 16 16 18 20 21 22 22 22 21 20 19 18 19 21 22 22 21 21 21 22 23 23 23 23 23 22 22 21 21 21 22 21 21 20 20
19 18 18 18 18 18 17 17 18 19 21 23 24 22 21 22 22 21 21 20 22 24 24 22 22 24 24 24 25 25 25 25 24 24 24 24 24 24 24 25 24 24
21 21 21 21 21 20 20 21 22 23 24 25 26 24 22 23 25 24 23 23 23 24 24 24 25 27 27 26 26 26 27 27 26 26 26 26 26 26 26 27 28 28
26 26 26 26 25 23 23 24 25 26 26 26 26 25 25 25 26 26 24 23 22 23 24 25 26 27 28 29 29 28 28 29 29 29 29 29 29 28 28 28 29 29
31 31 31 31 29 26 25 25 25 25 26 25 25 26 27 27 26 25 22 21 24 27 28 27 26 27 30 32 32 32 31 32 33 34 34 33 33 32 31 30 29 28
35 35 35 35 34 30 28 27 27 27 27 26 26 28 29 28 26 25 23 24 29 33 31 28 27 29 32 33 30 30 31 32 34 35 35 34 32 31 30 30 31 30
38 38 38 38 38 36 34 33 33 31 30 28 28 29 30 30 30 30 29 28 31 34 34 32 31 30 33 32 29 28 28 28 29 30 30 30 29 29 30 31 32 32
41 41 41 41 41 40 39 39 38 36 34 32 31 31 33 34 34 34 35 35 36 37 38 39 37 34 34 35 35 34 34 33 33 32 31 30 30 31 32 34 34 34
43 43 44 44 44 44 43 43 42 41 39 36 33 33 35 37 38 38 38 38 38 37 38 40 40 39 38 38 38 37 37 38 38 36 33 32 31 32 34 35 35 35
44 45 45 45 46 46 45 46 45 44 43 41 38 37 37 40 42 42 41 39 38 37 37 38 39 39 40 40 39 38 36 35 34 33 31 31 30 30 32 33 34 34
45 45 45 45 45 46 46 46 46 45 45 44 44 44 44 44 43 42 40 39 38 38 37 37 37 38 38 39 39 39 38 35 33 31 30 30 30 30 31 32 34 35
45 45 44 44 44 45 45 45 45 45 46 46 45 44 44 45 46 45 43 42 41 40 40 40 39 39 38 38 38 39 39 38 37 36 35 34 34 35 35 36 36 36
49 48 47 45 45 44 44 44 43 45 47 47 46 43 40 41 44 46 46 46 45 46 45 44 43 42 41 41 41 41 41 41 40 40 39 39 39 40 40 40 39 38
54 52 50 48 47 45 45 44 43 44 46 47 47 46 43 41 41 42 44 44 43 44 46 45 46 45 45 44 45 45 44 44 43 43 43 42 43 43 43 43 42 40
56 54 52 51 49 48 47 45 44 44 46 47 47 48 48 48 47 47 46 43 42 44 48 48 46 45 46 46 47 46 45 45 44 44 43 43 43 43 43 43 43 42

ECMWFNIL_500_spd_012.txt.gz
Wind_Speed
14 13 13 15 17 18 19 19 21 22 23 24 24 22 21 19 19 19 18 18 18 18 17 17 17 18 18 18 19 19 20 20 21 22 22 22 22 22 22 22 22 22
13 12 11 12 15 17 19 19 21 23 25 27 28 26 24 22 21 21 20 19 18 18 17 17 17 17 17 17 18 18 19 20 21 21 21 21 21 20 20 20 19 19
13 12 12 12 13 15 17 19 20 21 25 28 30 29 27 25 24 23 22 21 19 19 18 18 17 17 17 17 17 18 18 19 20 20 20 20 20 20 19 19 18 18
14 13 13 13 12 12 14 16 16 18 22 28 31 31 29 27 26 26 24 21 20 19 18 18 17 17 16 16 16 17 17 18 18 19 19 19 19 19 19 19 18 18
15 13 13 13 12 12 13 13 13 14 16 22 29 30 28 28 28 28 25 22 20 19 18 17 17 17 16 16 16 15 16 16 16 17 17 18 18 18 19 19 18 18
16 15 14 13 12 12 12 13 13 14 13 15 22 26 27 28 29 27 24 21 20 19 18 18 17 17 17 16 16 15 15 15 16 16 17 18 18 19 19 19 19 19
18 17 17 15 13 13 13 13 14 14 14 14 15 17 20 22 23 22 21 21 20 19 19 18 18 18 18 17 17 16 16 16 16 17 17 18 19 20 20 20 20 21
18 18 17 16 15 14 14 14 13 13 14 14 13 14 16 18 19 20 20 21 20 19 19 19 19 19 19 19 18 18 17 17 17 17 17 17 18 19 19 20 20 20
19 18 16 15 15 16 15 15 14 13 14 14 14 14 15 17 18 20 21 21 21 21 20 20 20 20 20 20 20 19 18 17 17 17 17 18 18 18 18 18 18 18
18 17 16 15 16 16 16 16 15 15 15 15 15 16 16 16 18 20 21 23 24 24 24 22 21 21 21 21 21 21 20 20 19 19 19 18 19 18 18 18 18 17
17 17 16 16 16 16 16 17 17 17 17 17 17 18 18 19 19 21 22 23 24 25 25 23 21 21 21 22 23 23 22 22 21 21 20 20 20 20 20 20 19 19
18 17 17 17 17 17 17 17 17 18 18 18 19 20 20 21 22 23 23 24 25 26 25 24 21 21 21 22 24 24 24 24 23 23 23 22 22 22 22 23 23 22
20 18 17 17 18 18 18 18 18 18 19 19 20 20 21 23 24 25 25 26 27 27 26 24 22 22 22 22 24 25 25 24 24 24 25 25 25 25 25 25 26 26
23 21 19 19 19 19 20 20 20 20 21 21 22 23 24 26 27 27 28 29 30 29 27 26 25 24 23 23 24 25 25 25 24 25 26 27 28 28 28 28 29 29
25 25 24 23 22 22 23 23 24 24 25 25 26 27 28 28 29 29 29 30 32 30 29 29 28 27 27 25 25 25 25 24 25 27 28 29 30 31 32 32 32 32
27 27 28 28 28 28 27 28 28 29 29 29 29 30 30 30 30 30 29 29 31 32 30 30 30 30 29 26 24 24 25 26 28 29 30 31 32 32 33 33 33 32
32 32 32 32 32 32 32 33 32 32 32 32 32 32 32 32 30 29 28 29 32 33 32 31 31 31 30 27 25 26 30 32 31 30 31 32 33 34 34 34 35 35
36 36 36 36 35 35 36 37 37 36 36 36 35 35 35 35 33 31 31 32 34 35 35 33 32 32 31 30 27 28 31 33 31 29 29 29 30 33 34 34 35 34
38 38 38 39 39 38 39 39 40 40 40 40 40 39 39 39 39 37 36 36 37 37 36 35 35 35 34 34 32 31 33 34 34 33 32 31 30 32 33 34 34 33
40 41 41 41 41 40 40 39 39 39 40 41 42 42 43 43 42 41 40 39 39 39 39 39 40 40 39 37 37 38 39 39 38 37 35 35 34 34 35 36 36 36
44 44 44 43 42 42 41 40 39 38 39 40 41 43 44 45 45 44 43 42 41 40 41 43 44 44 44 42 41 40 41 41 40 38 35 35 34 34 35 36 36 36
47 46 46 45 44 43 43 43 42 41 40 40 41 42 45 46 47 46 44 44 43 41 42 44 45 45 46 46 44 43 42 41 41 39 36 35 34 33 33 33 33 33
48 48 48 47 47 47 46 46 46 45 44 43 42 43 44 46 48 48 47 46 45 45 44 46 48 48 48 48 47 45 44 42 41 39 38 37 36 35 33 33 32 32
50 50 50 50 50 51 50 50 50 49 49 48 47 46 46 46 47 48 48 48 48 47 46 45 47 49 49 50 49 47 44 42 41 41 41 40 39 37 36 35 36 36
55 54 54 54 54 55 55 55 54 54 53 52 52 51 49 47 46 47 48 48 48 48 47 47 47 46 46 46 46 45 44 44 44 45 45 44 42 41 40 40 40 40
59 59 58 58 58 58 58 58 58 57 56 55 54 53 51 49 47 46 46 47 47 46 47 47 46 45 43 41 41 43 44 45 46 46 45 44 43 43 43 43 43 42

ECMWFNIL_500_spd_015.txt.gz
Wind_Speed
7 8 11 12 11 11 12 15 17 19 21 22 23 23 23 22 20 18 16 14 13 13 15 16 16 17 17 18 18 18 18 18 19 19 19 19 20 20 20 20 19 19
9 9 10 10 10 10 11 12 15 17 19 20 21 23 24 24 23 22 21 18 15 14 14 16 16 16 16 17 18 18 19 19 19 19 19 19 19 19 19 19 19 19
13 12 12 11 10 10 11 11 13 14 17 18 20 21 23 23 23 23 23 21 18 16 15 17 18 18 18 18 18 19 19 19 19 19 18 18 18 18 18 18 18 18
14 13 13 12 12 12 12 12 13 13 14 15 17 19 21 23 23 23 22 21 19 18 17 18 19 20 20 20 20 20 20 20 19 18 17 16 15 15 15 15 15 16
13 13 12 13 13 13 13 13 15 15 15 15 16 17 18 19 19 19 20 20 20 19 19 20 20 21 21 21 21 20 20 19 18 17 16 15 14 14 14 14 14 15
12 12 12 13 14 14 13 15 16 17 18 18 18 18 18 17 16 15 16 19 21 21 20 20 20 20 19 20 20 19 19 18 18 18 18 17 16 16 16 16 15 15
13 14 14 14 15 15 15 16 17 17 18 18 18 18 18 18 17 15 14 16 18 19 19 19 20 19 19 18 19 19 19 19 19 20 20 19 19 19 18 18 18 17
14 15 15 16 16 16 16 17 18 18 17 17 16 16 16 16 16 16 15 15 15 16 16 18 19 19 19 19 19 20 20 21 21 21 22 21 21 21 21 20 19 18
16 16 16 16 16 16 17 18 19 18 18 16 15 15 15 15 15 16 16 15 15 15 16 16 17 19 19 20 21 21 22 22 23 23 23 23 23 23 22 21 20 19
17 17 17 16 16 17 18 18 19 18 18 17 16 15 15 15 15 16 16 17 16 16 16 16 17 19 20 22 23 24 24 24 24 24 24 24 24 24 23 22 20 19
19 18 18 18 17 17 18 18 18 18 18 18 18 17 17 17 17 16 17 18 18 18 18 18 19 19 20 22 24 26 26 26 26 26 25 25 25 24 23 22 20 20
19 19 19 19 18 17 17 18 18 18 18 19 19 19 19 19 19 18 18 19 20 20 20 20 21 21 21 21 23 26 27 27 27 27 26 26 26 25 24 23 22 22
19 19 19 18 18 17 17 17 18 18 19 19 20 21 21 21 20 19 19 20 20 21 21 22 23 24 24 23 23 25 27 28 27 27 27 27 27 26 25 25 24 24
20 20 20 20 19 18 17 17 18 19 19 20 21 22 22 22 21 21 21 21 22 23 24 25 25 26 26 25 24 25 27 28 28 28 27 27 27 27 26 26 26 27
22 22 23 22 21 20 19 18 19 20 21 21 22 23 24 24 23 24 24 24 25 26 26 28 29 29 28 27 26 26 27 28 29 29 29 29 29 28 28 28 27 28
25 25 24 24 23 23 23 22 22 22 23 24 25 25 26 26 26 27 28 28 29 29 28 29 30 30 29 27 27 28 29 30 30 31 31 31 31 30 29 28 28 29
28 28 27 27 26 26 26 27 27 27 27 28 28 28 28 28 29 30 31 31 32 31 30 29 29 29 29 29 29 30 32 33 32 31 31 32 33 33 32 30 29 31
31 31 30 30 29 29 30 30 31 31 31 31 31 31 32 32 32 33 33 34 34 33 32 31 31 32 32 33 33 34 35 35 34 33 34 35 36 36 33 30 28 29
33 33 33 33 33 33 33 33 34 34 34 35 34 35 35 35 35 36 37 37 36 36 35 34 35 35 36 37 37 37 37 36 36 36 37 37 37 35 32 31 29 29
38 37 37 37 36 36 36 36 37 37 38 38 38 38 38 38 37 38 39 40 39 38 37 37 37 38 38 39 40 40 39 39 39 40 40 40 40 37 35 35 34 33
42 42 41 40 40 40 39 39 39 40 40 40 40 40 40 39 39 39 39 40 39 37 38 39 41 42 42 42 42 42 42 43 45 44 44 44 44 42 40 39 37 36
47 46 45 43 42 41 41 41 41 42 42 41 41 41 41 40 40 41 41 41 39 37 38 40 43 45 46 45 43 43 44 45 47 47 47 47 45 43 41 40 39 38
47 46 45 44 43 43 44 44 44 44 44 44 43 43 43 42 42 42 43 43 43 42 41 42 44 46 46 46 45 45 44 44 44 45 47 47 45 43 42 41 40 40
47 48 48 47 48 49 49 49 48 48 47 47 46 46 45 45 45 45 45 46 47 47 46 46 47 47 46 46 46 46 47 47 46 47 47 46 46 46 47 46 44 42
53 54 54 54 54 54 53 53 52 52 51 51 50 49 49 49 48 48 49 50 50 50 50 51 51 49 47 47 47 47 48 49 49 50 50 49 47 47 49 50 48 44
58 58 58 58 58 58 58 57 56 55 54 53 53 53 53 52 52 53 53 53 54 54 53 53 53 51 49 49 49 49 48 49 50 52 52 50 50 49 50 50 49 46

ECMWFNIL_500_spd_018.txt.gz
Wind_Speed
10 10 11 11 12 12 11 10 10 11 14 16 16 17 18 19 20 20 21 20 18 17 17 17 17 17 16 15 15 15 16 16 17 17 18 18 18 17 17 17 16 16
13 12 11 11 11 11 10 9 8 7 9 11 13 15 16 17 18 19 20 21 20 20 19 18 18 17 16 15 15 15 15 15 16 16 17 18 18 18 17 17 16 16
16 16 16 16 15 13 11 10 9 7 7 8 9 11 12 13 15 16 18 19 20 20 20 19 18 18 17 16 16 16 16 16 16 17 17 18 18 18 18 17 16 15
15 16 17 18 19 16 13 12 10 8 8 8 9 10 11 11 13 14 15 16 18 19 18 17 16 16 16 16 17 17 18 18 18 18 18 18 19 18 18 17 16 16
13 13 12 14 16 14 13 11 10 9 8 9 10 11 12 13 14 14 14 14 14 14 13 13 14 14 15 16 17 18 19 19 19 19 19 18 18 18 17 17 16 16
12 11 11 12 13 12 11 10 9 9 10 10 10 11 13 14 15 16 16 14 14 13 12 11 12 13 14 15 17 18 18 18 18 19 19 18 18 18 17 17 17 17
11 11 11 12 11 11 11 10 10 11 11 11 11 12 13 14 15 17 17 16 15 15 13 12 11 11 12 14 16 17 18 18 18 18 18 18 18 18 18 18 18 19
12 12 12 12 12 12 12 12 13 13 13 13 13 13 14 15 16 17 17 17 15 15 15 14 13 12 12 13 14 16 17 18 18 18 18 18 18 19 19 20 20 20
14 14 13 13 14 14 14 14 14 13 13 13 13 14 15 16 17 17 17 16 15 15 15 15 14 13 12 13 13 14 15 16 17 18 19 19 19 20 21 21 22 22
14 14 14 14 14 14 14 14 14 14 13 13 14 15 15 16 16 16 16 15 15 15 15 15 14 13 13 14 14 15 16 17 18 19 20 21 22 22 23 23 23 23
14 14 14 15 16 15 15 15 15 15 14 14 15 15 16 16 16 16 16 16 15 16 16 15 15 14 15 15 16 16 17 18 19 20 21 22 23 24 24 24 24 24
15 15 16 17 17 16 16 16 16 16 15 15 15 15 16 16 16 17 17 17 17 17 17 17 17 17 17 17 17 18 19 20 21 22 23 23 23 24 24 24 25 24
16 16 17 17 17 16 16 16 16 16 16 16 16 16 16 17 17 18 19 19 19 19 18 18 18 18 18 19 19 20 21 22 23 25 25 25 24 24 24 25 26 26
16 17 16 16 17 17 17 16 16 17 17 17 17 17 17 18 18 19 19 20 21 21 20 20 19 19 20 20 21 22 23 24 25 27 27 27 26 26 25 26 27 27
18 18 18 18 19 19 19 18 18 19 19 18 18 18 18 19 19 20 20 21 22 22 23 23 23 22 23 23 24 24 25 25 26 27 27 28 28 28 28 28 28 29
20 20 20 21 21 21 21 20 20 20 20 19 19 19 20 20 21 21 22 22 23 24 24 25 25 26 27 27 27 27 26 25 26 26 26 27 29 30 31 32 31 31
23 24 24 24 24 23 22 22 22 21 21 21 20 20 21 22 23 23 24 24 26 26 26 27 27 28 29 31 31 31 29 27 27 28 27 27 29 31 32 34 35 34
26 26 26 26 26 25 24 24 24 23 23 23 23 23 24 25 25 25 26 26 27 28 29 30 30 31 33 34 36 35 33 32 32 33 32 31 31 31 33 34 36 36
28 28 28 29 30 29 27 26 26 26 26 26 26 26 26 27 27 27 28 28 29 29 31 33 33 34 35 36 38 38 37 37 37 37 36 35 34 33 33 35 36 37
32 32 32 32 34 34 33 33 32 31 30 30 29 29 29 30 30 30 31 31 31 31 32 34 35 35 34 36 38 39 39 38 39 39 39 38 38 36 37 37 37 38
36 36 36 36 37 38 38 39 38 36 36 35 34 34 34 34 34 34 34 34 33 34 34 35 37 37 36 36 37 37 37 37 38 39 40 40 40 40 39 39 39 41
40 40 40 40 41 42 43 43 43 43 43 42 40 39 37 37 37 37 38 38 38 38 37 37 39 39 39 38 37 36 36 37 38 38 38 39 40 40 41 41 40 43
43 43 43 44 45 46 47 47 47 47 47 45 42 40 39 40 41 42 43 43 41 41 40 40 41 42 42 43 42 40 40 40 41 41 42 43 43 43 43 43 43 43
44 44 45 46 47 48 48 48 48 48 46 44 43 42 44 47 49 49 48 46 44 43 43 44 44 43 45 47 47 45 44 44 45 47 47 47 46 45 44 44 44 45
46 46 46 47 48 49 49 49 48 47 46 45 45 47 50 53 54 53 51 49 47 46 46 47 47 46 48 49 49 48 48 48 49 50 51 50 48 48 47 46 46 48
50 49 50 51 51 51 50 49 49 49 49 50 53 55 57 57 56 55 54 52 51 49 49 50 50 49 50 51 50 49 48 49 50 49 48 47 46 46 45 45 45 46

ECMWFNIL_500_spd_024.txt.gz
Wind_Speed
6 7 8 9 10 11 11 12 12 11 11 11 10 10 10 12 13 13 13 14 14 14 15 15 15 15 15 15 14 13 13 12 13 13 14 14 14 14 14 14 13 12
9 7 7 8 9 9 10 10 9 9 10 9 8 8 7 9 12 12 12 12 12 14 15 16 16 16 17 17 16 16 15 14 13 14 14 14 14 14 14 13 12 11
10 8 7 8 10 10 9 9 9 9 9 9 8 6 6 7 8 9 10 9 10 11 12 12 14 15 16 17 18 17 17 16 15 14 14 13 13 13 13 12 12 11
12 11 10 10 11 12 12 12 12 12 11 11 10 8 6 6 7 8 8 8 8 9 9 9 10 12 14 16 17 17 17 17 16 15 14 14 13 13 13 13 12 11
14 13 12 13 13 14 16 17 17 17 15 14 13 12 9 8 8 8 9 9 8 8 7 7 7 9 11 13 15 16 17 17 16 15 15 14 14 13 13 13 12 11
15 14 14 15 15 16 17 18 19 19 17 15 14 13 12 11 10 10 10 9 8 8 7 6 7 8 9 11 13 15 15 15 15 15 15 14 14 13 12 12 11 11
16 15 16 16 17 18 18 18 18 17 15 14 14 14 13 13 12 11 11 10 10 9 8 7 7 8 9 10 11 12 13 14 14 14 14 14 14 13 12 12 12 12
17 16 16 17 18 18 18 18 17 15 14 14 14 14 14 14 13 13 12 11 10 9 8 8 8 8 8 9 9 10 11 12 12 12 12 12 12 12 12 12 12 13
20 18 17 18 19 19 19 18 17 15 15 15 15 15 15 14 14 13 12 12 10 9 9 8 9 9 8 8 8 9 10 10 10 9 9 10 10 10 11 11 12 12
22 20 19 19 20 21 20 19 17 16 16 16 16 16 15 14 13 13 12 12 11 10 10 10 10 10 10 9 9 9 9 9 9 9 9 9 9 10 10 11 11 11
22 21 20 21 23 22 21 20 18 17 17 18 18 17 17 16 14 14 13 13 12 11 11 11 11 12 11 11 11 10 10 10 10 10 10 10 10 10 10 11 11 12
21 22 23 24 24 23 22 21 20 19 20 20 20 19 18 17 16 16 15 15 14 14 13 13 13 13 13 13 13 12 12 12 12 11 11 11 12 12 13 14 14 15
21 23 25 26 26 25 24 22 21 21 21 21 21 20 19 18 18 18 18 17 17 16 15 15 14 14 14 15 15 14 14 14 13 13 14 14 15 16 16 17 17 17
24 25 26 28 28 26 24 23 22 22 22 21 21 20 20 20 19 19 20 19 19 19 17 17 16 16 16 16 16 16 16 16 15 15 16 17 17 18 18 19 19 19
25 25 25 27 27 25 23 22 22 21 21 21 22 22 21 21 21 21 21 20 20 20 19 19 18 18 18 18 17 18 18 17 17 17 18 18 19 20 20 21 22 22
22 21 21 23 24 23 22 22 21 21 21 22 23 23 22 22 22 22 22 22 22 22 21 21 21 20 20 20 20 20 20 19 19 18 19 19 19 20 21 23 24 25
20 18 16 18 20 21 21 22 22 23 23 23 23 23 23 23 24 25 25 25 25 24 23 23 23 22 22 22 22 22 21 21 20 19 19 20 20 21 22 22 24 26
18 18 16 16 18 20 21 22 24 25 25 24 24 24 25 26 27 28 28 27 27 26 25 24 24 24 24 24 24 24 23 23 22 22 21 21 22 22 23 24 26 27
21 22 22 22 22 22 23 25 27 27 27 27 26 27 28 29 29 30 29 28 27 27 26 25 26 26 27 27 27 26 26 25 25 24 24 24 24 24 25 26 26 27
25 27 28 28 27 26 26 28 29 30 31 31 30 30 30 30 30 30 30 29 28 28 27 27 28 29 30 30 30 30 29 29 29 28 27 27 27 27 28 28 28 29
29 30 32 33 33 30 29 30 30 31 32 31 31 31 31 31 31 31 31 31 30 31 31 31 32 32 32 33 33 32 33 33 33 33 32 30 29 29 30 31 32 33
31 32 33 34 35 33 32 32 31 31 31 32 32 33 33 33 33 33 34 34 35 35 36 36 36 36 36 37 37 37 37 38 38 38 37 34 32 31 32 33 35 36
32 33 34 35 36 36 35 34 33 33 33 34 35 36 36 37 37 38 38 38 39 40 41 41 41 41 40 41 42 43 43 43 42 42 41 40 36 34 34 35 37 38
33 34 35 35 36 37 37 37 37 37 37 37 38 39 39 40 40 41 42 42 43 44 45 46 45 45 45 46 47 48 48 47 45 44 44 44 43 40 39 40 41 41
38 38 38 37 38 40 41 41 42 42 41 41 41 41 42 43 43 44 44 46 47 47 48 48 49 49 49 50 51 51 50 49 47 46 46 47 47 47 46 46 46 46
43 42 42 42 43 44 45 46 45 45 45 44 44 44 45 46 47 47 48 49 50 51 51 52 52 52 51 51 51 51 51 49 48 47 48 49 51 51 51 51 51 51

ECMWFNIL_500_spd_027.txt.gz
Wind_Speed
7 6 6 8 9 9 10 11 12 10 9 10 11 11 11 12 12 12 13 12 13 14 14 14 14 13 13 13 12 11 11 11 11 11 12 12 13 14 15 15 15 16
10 8 9 9 10 11 11 12 13 11 10 10 10 11 11 11 10 11 12 13 14 13 13 14 15 15 15 15 14 14 14 14 13 13 13 14 14 14 15 15 15 16
12 11 11 10 11 11 12 13 12 11 11 11 10 10 10 9 9 9 11 13 14 13 12 12 13 14 15 15 15 15 15 15 15 15 15 15 15 15 15 15 15 16
14 13 13 12 12 13 13 13 13 13 13 12 11 10 9 8 8 8 10 12 12 12 11 11 12 12 13 13 14 14 14 14 15 16 16 16 16 16 16 15 15 15
17 15 16 15 15 15 15 15 16 16 16 14 12 12 11 10 9 9 10 11 11 10 10 11 10 10 9 10 10 11 11 12 14 15 16 17 17 17 16 16 16 16
20 19 19 19 18 18 17 17 18 19 18 16 15 14 14 13 12 11 11 11 11 11 11 11 10 9 9 9 9 9 10 11 12 13 14 15 16 16 16 16 16 17
21 22 21 21 21 19 18 18 20 21 20 19 18 17 16 14 13 13 13 13 12 12 12 11 11 11 10 10 9 9 10 10 11 12 13 14 14 15 15 16 16 16
21 21 22 22 21 20 19 21 21 21 21 20 19 17 16 15 15 14 14 14 13 13 12 12 11 11 10 10 10 10 10 10 10 11 11 12 13 13 14 14 14 15
21 21 22 23 22 21 22 23 22 21 20 20 18 18 17 16 15 15 14 14 13 13 13 13 12 11 10 10 10 10 10 10 10 10 10 11 11 12 12 12 13 13
22 23 24 24 22 22 24 24 22 20 20 19 18 18 18 16 15 15 14 14 13 13 13 13 12 11 10 10 10 10 10 10 10 10 11 11 11 12 12 13 13 12
24 24 25 24 22 23 25 24 21 19 19 19 19 18 17 16 16 15 15 14 13 13 13 13 12 11 11 11 11 10 10 10 10 10 11 11 12 12 12 12 12 12
24 25 25 24 24 25 26 24 21 20 20 20 19 19 17 17 16 16 16 15 15 14 14 14 13 12 12 11 11 11 10 10 11 11 11 12 12 12 12 13 13 13
24 25 24 24 25 27 27 26 24 22 21 21 20 19 18 17 17 17 17 17 16 15 15 15 14 14 13 13 12 12 12 12 13 13 13 14 14 14 14 15 15 15
25 26 26 25 27 28 27 26 26 25 24 23 21 20 19 18 18 18 19 19 18 17 17 16 16 15 15 14 14 15 15 15 16 16 17 17 17 17 17 17 16 16
24 23 24 25 28 30 28 26 26 27 26 25 24 23 21 20 20 21 21 21 21 20 18 18 18 17 17 16 16 17 17 18 19 19 19 19 18 18 18 17 17 16
19 19 20 23 27 31 29 27 27 28 28 27 26 24 22 22 22 22 22 23 22 22 20 19 19 19 19 19 19 19 20 20 21 21 21 21 20 20 20 19 18 18
18 18 20 23 26 29 29 28 28 28 28 28 27 24 22 22 23 23 24 24 23 23 23 22 21 21 21 21 21 22 22 22 23 23 23 22 22 23 22 22 21 20
21 20 20 23 25 26 26 26 26 27 27 26 25 24 23 23 24 25 25 25 25 25 25 24 24 23 23 24 24 24 24 24 24 24 24 24 24 25 25 25 24 23
25 23 22 22 23 24 25 24 24 26 26 25 25 24 24 25 28 28 28 28 27 27 27 26 26 26 27 27 27 27 26 26 26 26 26 26 26 26 27 28 27 27
27 26 25 24 24 26 27 25 24 24 25 25 25 25 26 29 32 32 30 29 29 29 29 30 30 30 29 29 29 29 29 28 28 29 29 30 30 30 31 31 31 31
28 29 28 27 28 30 30 29 28 27 27 28 27 27 28 31 34 33 32 31 31 32 32 33 32 32 32 32 32 31 31 31 32 32 33 33 34 35 35 35 35 35
29 30 30 30 30 32 33 34 34 33 33 32 30 30 31 33 34 34 34 34 34 34 35 35 35 34 34 34 34 34 35 35 36 36 36 37 38 39 40 40 39 39
28 29 29 29 29 31 33 34 34 35 35 35 33 33 33 35 35 35 36 36 36 37 37 37 38 38 38 38 38 39 39 40 40 40 40 41 42 43 44 45 45 45
29 29 29 29 29 30 33 34 35 36 36 36 35 35 36 37 37 37 37 38 38 39 39 40 41 41 42 42 43 44 44 44 45 44 44 45 45 46 47 48 49 49
31 32 32 31 31 32 33 35 36 38 38 37 37 37 38 39 39 39 39 39 40 41 42 43 44 45 46 47 48 48 49 49 50 50 50 49 48 48 49 50 51 52
34 34 35 35 36 37 39 39 40 41 42 41 39 39 39 40 40 41 42 43 43 44 45 46 47 48 49 49 50 52 53 53 54 55 55 54 53 52 52 52 53 53

ECMWFNIL_500_spd_030.txt.gz
Wind_Speed
12 11 11 11 10 11 13 14 14 13 13 13 13 12 12 11 11 12 12 13 12 12 13 12 12 11 11 10 10 10 10 10 10 10 10 10 10 10 11 11 12 13
12 11 10 9 8 9 12 13 13 13 12 13 12 11 11 11 11 11 12 13 13 13 13 14 14 14 13 13 13 13 13 13 13 12 12 11 11 11 11 12 12 13
12 12 11 10 10 10 12 14 14 14 13 13 12 11 10 10 10 10 10 10 11 13 13 13 13 14 14 14 15 15 15 14 14 13 13 12 12 12 13 13 13 14
14 13 13 13 13 12 14 15 14 13 13 13 12 10 10 9 9 9 8 7 8 10 12 12 13 13 13 13 14 14 14 14 13 13 13 13 13 13 14 14 15 15
16 14 14 14 14 13 14 14 13 12 12 12 11 10 10 9 8 8 8 8 7 9 11 12 12 12 11 11 11 12 12 12 12 13 13 13 13 14 14 15 15 16
18 16 15 15 14 14 14 14 13 13 12 12 11 12 12 11 10 10 10 10 9 10 11 11 11 11 11 10 10 10 10 10 11 11 12 12 12 13 14 14 15 15
19 17 16 16 16 16 15 15 14 14 14 14 14 15 15 15 14 13 13 13 12 12 12 11 11 11 11 11 10 10 10 11 11 11 11 11 12 12 13 14 14 15
17 16 15 15 17 17 17 17 16 16 16 16 16 17 18 18 17 16 16 15 15 14 13 12 12 12 12 12 12 11 11 11 11 11 11 11 11 12 12 13 13 14
15 15 15 15 16 17 18 18 18 17 17 17 18 19 19 19 18 17 17 16 16 15 14 13 13 13 13 13 12 12 12 12 11 11 11 10 10 10 11 11 12 13
15 16 17 17 16 16 17 19 19 19 18 17 18 19 19 18 17 17 17 17 16 16 15 14 13 13 13 13 13 13 13 12 11 11 10 10 10 10 10 11 12 12
17 18 19 19 18 18 18 19 20 20 18 17 18 18 18 18 17 17 17 17 16 16 15 14 14 14 15 15 15 14 14 13 12 11 11 10 11 11 12 12 13 13
19 18 19 20 20 20 20 20 20 20 19 18 18 18 18 18 18 18 18 18 17 16 15 15 16 16 17 17 16 16 15 14 13 13 12 12 12 12 13 13 13 14
21 19 19 19 20 20 20 20 20 21 21 20 19 18 17 19 20 20 19 19 18 18 17 17 18 18 18 18 17 17 17 16 15 14 13 13 13 13 13 14 14 15
20 20 19 17 17 18 20 20 20 21 22 22 21 20 19 20 21 21 20 20 20 20 20 19 19 19 19 18 18 17 17 16 16 15 14 14 14 14 15 15 16 16
18 19 19 18 18 19 20 21 22 22 23 23 24 23 21 21 21 22 22 22 22 22 22 21 21 20 20 19 18 17 17 17 16 15 15 15 15 16 16 17 18 18
20 21 21 20 20 20 20 21 21 22 23 23 24 25 23 22 22 23 24 24 24 24 23 23 22 22 22 21 20 19 18 18 18 17 17 17 17 18 19 19 20 20
19 21 22 21 20 20 20 19 20 22 23 23 24 25 25 23 23 25 26 26 26 25 24 24 24 23 23 22 21 21 20 20 20 20 20 20 20 21 21 22 22 22
20 21 21 21 20 20 19 19 21 23 24 24 25 25 25 25 25 26 27 27 26 25 25 26 26 25 24 23 22 22 22 22 23 23 24 24 24 24 24 25 25 24
22 22 21 20 21 22 22 22 23 24 26 27 27 27 26 26 26 27 28 28 27 27 27 27 26 25 25 25 25 24 24 25 25 26 26 26 27 27 27 27 27 27
23 23 23 22 22 23 23 23 24 25 27 28 28 28 27 27 27 27 28 28 28 28 27 27 27 27 28 28 28 28 28 28 28 29 29 29 29 30 30 30 30 30
23 23 23 24 24 24 24 24 24 25 26 28 28 28 28 28 29 28 27 27 27 27 28 29 30 31 31 31 31 31 30 31 31 31 31 32 32 32 32 32 32 33
23 22 22 23 24 23 23 24 24 24 26 27 28 28 28 28 28 27 26 27 28 29 31 32 33 34 34 34 34 33 33 33 33 33 33 34 34 35 35 35 36 36
24 23 22 23 23 22 23 25 25 25 26 28 29 30 30 29 29 29 30 31 31 32 34 35 36 36 37 37 37 36 36 35 35 35 36 36 37 38 38 39 40 41
25 24 23 24 24 23 23 24 23 26 29 29 29 31 33 33 34 34 35 35 35 36 37 38 39 39 39 39 40 40 39 39 39 39 39 40 40 41 42 43 44 45
26 26 25 26 26 26 27 26 26 28 30 31 32 34 35 37 37 37 38 38 38 39 40 41 42 42 42 43 43 43 43 43 43 43 43 44 44 45 46 46 47 48
29 28 28 28 28 29 30 30 30 31 31 32 34 34 34 38 39 38 38 39 39 40 42 43 45 46 46 46 46 46 46 46 46 47 48 48 49 49 50 50 50 51

ECMWFNIL_500_spd_033.txt.gz
Wind_Speed
12 13 13 13 13 12 13 14 16 18 19 18 17 17 17 17 16 16 15 14 13 14 14 13 13 12 11 10 10 10 10 10 9 9 10 10 10 11 11 11 12 12
12 13 13 12 10 10 11 13 16 18 17 15 15 16 16 16 16 15 14 12 12 13 13 14 14 13 12 12 12 11 11 11 10 10 11 11 11 11 11 11 11 11
13 13 12 11 9 7 8 11 14 15 14 13 15 16 16 16 16 15 13 11 11 12 13 13 14 14 14 14 14 14 13 13 13 13 14 14 13 13 13 12 12 12
14 13 12 11 9 9 9 10 12 12 12 13 14 16 16 16 15 13 11 9 9 10 12 12 13 14 15 15 15 15 16 16 16 16 16 16 15 15 15 14 14 14
14 14 13 12 10 11 11 12 12 10 10 12 13 15 15 14 12 11 9 8 7 7 9 10 12 12 13 13 13 14 15 15 16 16 16 16 16 16 16 15 15 15
16 15 14 13 12 12 13 13 12 10 9 10 11 13 13 12 10 10 9 8 6 7 8 9 10 11 11 11 11 12 12 13 13 14 14 14 15 15 15 15 15 15
17 16 16 15 14 15 16 15 14 13 11 10 10 11 12 11 11 11 11 10 9 9 9 10 11 11 11 11 11 10 11 11 11 12 12 13 13 14 14 14 14 14
17 16 16 16 16 17 18 17 16 15 14 12 12 12 12 12 13 14 14 14 14 13 12 12 12 12 11 11 10 10 10 10 11 11 12 13 14 14 13 13 13 13
16 16 17 18 18 18 18 18 17 17 16 15 15 14 13 13 13 14 15 15 16 15 14 14 14 13 12 12 12 11 11 12 12 13 14 15 15 14 14 13 13 12
15 16 18 18 18 17 17 17 18 19 19 18 17 16 15 14 14 13 13 14 14 15 15 15 15 14 13 13 13 12 12 13 14 15 16 16 15 15 14 13 13 13
15 16 17 16 15 16 16 16 17 18 18 18 17 17 16 16 14 12 12 12 13 15 15 15 15 15 14 14 13 13 13 14 15 16 16 16 16 15 14 14 13 13
18 16 16 15 15 15 16 16 16 16 17 17 16 16 16 15 14 13 12 12 13 15 16 16 16 15 15 14 14 14 15 16 16 17 17 17 16 16 15 14 14 14
21 19 18 18 17 17 16 17 18 18 18 17 16 16 15 14 14 14 13 13 14 15 16 16 16 16 16 16 15 15 16 17 18 18 18 18 17 17 16 15 14 14
22 22 22 21 20 18 16 17 19 19 19 17 16 15 14 14 14 14 14 15 15 16 17 18 18 18 18 17 17 17 17 18 18 19 19 19 18 18 17 16 15 15
22 23 23 21 20 20 19 17 17 17 18 17 16 15 15 14 14 14 15 16 17 18 18 19 20 20 20 19 19 18 18 18 19 19 20 20 19 19 18 17 16 16
22 23 23 20 18 18 18 17 17 16 17 17 16 16 16 16 16 16 17 18 19 19 20 20 20 21 20 20 20 19 19 20 20 20 20 20 20 20 19 18 18 18
22 23 23 20 17 17 18 18 18 17 17 17 16 16 17 18 19 19 20 20 21 21 21 21 21 21 21 21 21 21 20 20 21 21 21 21 21 21 21 21 21 21
17 16 16 16 16 17 19 19 19 18 18 17 16 16 17 19 20 21 22 23 24 24 25 24 24 23 23 23 23 22 22 22 23 23 23 23 23 24 24 23 24 24
14 12 13 14 16 17 17 18 18 17 17 16 16 16 17 19 20 22 23 24 25 26 27 27 27 26 25 25 25 25 24 25 25 25 25 26 26 26 26 26 27 27
14 15 16 16 17 17 18 18 17 17 17 18 17 17 18 20 21 23 24 24 25 26 28 29 29 28 27 27 27 27 27 27 27 27 27 28 28 29 29 29 30 30
18 19 19 18 18 19 18 17 17 19 20 19 19 19 20 21 21 22 23 24 24 25 27 29 30 29 29 28 28 28 28 29 29 29 30 31 31 32 32 33 33 34
22 21 19 18 19 20 20 19 20 21 21 20 21 21 22 22 22 22 23 24 25 25 26 28 29 29 29 29 29 29 29 30 31 32 33 34 34 35 35 36 36 37
22 20 18 18 20 20 20 21 21 20 20 21 22 23 23 23 23 23 24 26 27 27 27 28 30 30 30 30 30 30 31 32 34 35 36 37 38 39 39 39 39 39
17 18 19 20 20 20 20 21 20 21 22 23 24 24 23 23 23 24 25 27 29 30 30 30 31 31 32 32 33 34 35 35 36 38 39 40 42 42 43 43 43 42
19 19 20 21 22 23 24 22 22 23 24 25 25 25 23 23 24 26 27 29 31 33 34 35 35 36 36 37 37 38 38 38 39 40 41 42 44 45 46 46 46 46
27 26 25 23 23 23 24 25 26 27 27 27 27 27 26 26 26 28 30 32 34 37 38 38 39 40 40 40 40 41 41 41 41 42 43 44 46 48 49 50 50 50

ECMWFNIL_500_spd_036.txt.gz
Wind_Speed
14 13 13 12 11 12 12 14 16 18 20 21 21 21 20 20 19 18 17 17 17 17 16 15 15 14 13 13 13 13 13 13 12 13 14 14 15 15 14 14 14 13
16 15 14 13 12 12 13 14 16 18 19 20 19 18 17 17 17 17 16 16 16 16 15 15 15 14 13 12 12 12 12 11 11 12 13 14 14 14 14 13 12 12
17 16 14 13 13 13 13 14 15 16 16 16 16 15 15 16 16 16 16 15 15 15 15 15 15 15 14 13 12 12 12 12 11 11 12 13 14 14 13 12 11 12
18 16 15 14 14 14 13 12 12 12 12 12 12 12 13 14 15 15 15 14 14 14 14 15 15 15 15 15 14 13 13 13 12 12 12 13 14 14 14 13 14 15
17 15 15 15 15 15 13 12 11 11 10 10 11 11 12 13 14 14 14 14 14 13 13 14 14 15 15 15 15 15 15 15 15 14 14 15 15 15 16 16 16 17
16 15 15 16 15 14 14 13 13 12 11 11 12 12 13 13 13 13 14 13 12 11 10 10 11 12 14 15 15 16 16 15 15 14 14 14 14 14 14 14 15 15
17 17 16 17 16 15 15 16 15 14 13 12 12 12 12 11 12 13 14 13 12 10 9 8 8 10 12 13 14 15 14 14 13 12 11 11 11 11 11 11 12 13
20 19 19 19 19 18 18 18 17 16 14 13 12 12 11 11 12 13 14 14 13 12 11 10 10 11 12 13 13 14 13 13 12 11 10 10 10 10 10 11 12 13
22 22 22 22 21 20 20 19 18 16 15 14 13 13 12 12 12 13 14 14 14 15 15 14 14 14 14 14 14 14 14 14 13 12 11 11 11 11 11 12 13 13
23 22 22 22 23 22 21 19 18 17 17 17 16 15 14 13 14 14 14 14 15 15 15 15 15 16 16 16 16 16 16 15 15 14 13 12 12 12 13 14 14 14
23 21 20 20 22 23 21 19 18 18 18 18 18 17 17 16 16 16 16 15 15 14 15 15 16 17 18 18 18 18 18 17 17 16 14 13 14 14 15 15 15 15
24 21 19 19 20 21 20 20 19 19 19 19 18 18 18 18 17 17 17 16 15 15 15 15 16 17 18 19 19 19 19 18 18 17 15 15 15 16 16 16 17 17
24 23 21 19 19 19 20 20 20 20 20 19 19 18 18 18 17 17 17 17 16 16 15 16 17 17 18 18 19 19 19 19 18 17 16 16 16 17 17 18 18 19
24 23 23 21 20 19 19 20 20 20 21 21 20 19 19 19 18 18 18 17 16 16 16 16 17 18 18 19 19 19 19 19 18 17 17 17 18 18 19 19 20 20
26 23 22 22 22 21 20 20 20 19 20 21 22 21 20 20 19 19 18 17 17 16 16 17 18 18 19 19 20 20 20 20 19 19 19 19 19 19 20 20 21 21
28 24 21 22 23 23 23 23 22 22 22 22 23 24 22 21 20 19 19 18 17 17 17 18 18 19 20 20 20 20 20 20 20 20 20 20 20 20 21 21 22 22
27 26 24 23 22 23 24 24 23 25 27 25 22 23 23 22 21 20 19 18 17 17 17 18 19 20 21 21 21 21 21 21 21 21 21 21 22 22 22 23 24 24
25 24 23 23 24 25 26 24 20 20 24 24 21 21 23 22 21 19 18 17 17 17 17 18 19 21 22 23 23 23 23 23 23 23 23 24 24 24 25 25 26 27
25 24 23 23 23 24 24 23 20 18 20 22 21 22 23 22 20 18 17 16 16 17 17 17 18 20 22 24 25 25 26 26 26 26 26 26 26 26 27 27 27 28
26 26 26 24 21 19 19 19 19 18 19 20 20 22 23 22 19 17 17 16 16 17 17 18 19 20 22 24 25 27 28 28 28 28 28 28 28 27 28 28 28 29
25 24 25 24 21 19 18 18 18 19 19 20 20 21 23 22 19 18 18 18 18 18 18 19 19 20 22 24 26 27 29 29 29 29 29 29 29 29 29 29 30 31
24 23 24 24 21 19 19 19 19 19 20 20 20 22 24 23 22 21 20 20 20 20 21 21 21 21 22 24 25 27 29 30 31 31 31 31 30 30 30 31 32 32
24 25 26 24 21 20 20 20 20 20 21 21 22 23 24 23 24 23 22 22 22 22 23 23 23 23 24 25 26 28 29 31 32 32 33 32 32 32 32 33 33 34
25 27 27 24 23 22 22 22 22 22 22 23 24 24 24 24 24 24 23 24 24 24 25 26 26 26 26 27 28 29 30 32 34 34 34 34 34 34 35 35 36 37
28 29 27 25 25 23 22 22 21 21 23 24 25 24 24 25 26 26 26 26 25 26 27 28 28 28 28 30 30 31 32 34 35 36 36 36 36 37 37 38 38 39
28 28 26 25 24 23 22 23 22 23 24 25 25 25 26 27 27 28 28 26 25 27 29 30 31 31 31 31 32 33 34 35 36 38 38 39 39 40 41 42 42 43

ECMWFNIL_500_spd_039.txt.gz
Wind_Speed
17 18 19 20 20 19 18 18 19 19 18 18 17 16 16 16 16 17 17 18 18 17 16 15 14 14 13 13 13 14 14 15 16 16 15 15 15 16 16 13 12 12
19 19 19 19 19 19 19 19 19 18 17 17 16 16 16 16 16 17 18 18 17 16 14 13 13 13 12 13 13 13 14 14 15 15 15 15 15 15 16 15 13 12
20 19 19 18 19 19 19 19 19 18 17 16 15 15 16 16 17 17 18 17 16 14 13 13 13 13 13 13 14 14 13 13 14 14 14 14 14 14 14 15 14 13
19 19 19 19 19 19 19 19 19 18 17 16 15 16 16 17 17 17 16 15 14 13 13 13 13 13 13 14 14 14 13 13 13 14 13 13 12 12 12 13 14 12
20 19 20 20 20 20 20 20 18 17 15 14 15 15 16 17 17 16 15 14 13 12 13 13 14 14 14 14 14 14 14 14 14 14 14 13 12 12 12 14 14 14
20 20 20 20 19 19 19 19 18 16 15 13 13 14 15 15 15 15 14 14 13 12 13 14 14 15 15 15 15 14 15 15 15 15 15 15 14 13 14 15 15 14
20 20 21 20 19 19 19 19 18 17 17 15 14 14 14 14 14 15 15 14 13 13 13 13 13 13 13 13 14 15 16 16 16 15 15 15 15 13 13 13 13 12
21 21 22 21 20 20 20 20 20 20 19 17 15 14 13 14 15 16 16 15 14 13 13 13 12 11 11 12 13 14 15 15 15 15 15 15 14 12 11 11 11 10
23 22 23 23 22 21 21 22 23 22 21 19 16 14 12 13 15 16 16 16 15 15 15 14 13 13 13 13 14 15 15 15 15 15 15 14 13 12 11 10 10 10
24 24 24 24 23 22 23 25 25 24 23 21 18 16 14 13 14 15 15 16 17 17 17 16 16 16 16 16 16 16 17 17 17 16 16 15 14 13 13 12 12 12
25 25 25 25 24 24 25 26 27 26 25 23 21 19 18 17 16 15 16 17 17 18 18 18 18 19 19 19 18 18 18 18 18 17 17 16 16 15 15 14 14 14
26 25 25 24 25 25 25 25 27 27 27 25 24 22 21 20 19 18 17 17 18 18 18 19 19 20 20 20 20 20 20 20 19 18 18 18 17 17 17 16 15 15
27 26 25 24 25 25 23 24 26 27 27 26 25 24 23 22 21 20 19 19 19 18 18 19 19 20 20 20 21 21 21 21 21 20 20 19 19 19 18 17 16 16
28 27 25 25 26 24 23 23 24 26 27 27 26 25 23 23 22 22 21 20 20 19 19 19 19 20 20 21 21 22 22 22 22 22 22 21 21 21 20 19 18 18
31 29 27 27 26 26 25 24 24 25 27 27 26 24 23 23 23 23 23 22 21 20 20 20 20 20 21 21 21 22 23 23 23 23 23 23 22 22 22 21 21 20
33 30 28 27 28 28 27 26 25 26 27 27 26 24 23 24 24 24 24 23 22 21 21 21 21 20 21 21 22 23 23 24 24 24 24 24 24 24 24 23 23 22
33 30 28 29 30 29 28 28 27 27 27 26 25 24 24 25 26 26 25 23 23 23 22 22 22 21 21 21 22 23 24 24 25 25 25 25 26 26 26 26 25 24
32 30 29 30 31 30 28 28 29 28 28 28 27 27 27 28 28 28 27 26 24 24 24 23 23 22 21 21 22 23 25 26 26 27 27 28 28 28 28 28 27 27
32 31 31 31 31 30 30 29 28 28 30 31 30 28 28 30 30 29 28 28 26 25 24 24 23 23 22 21 22 23 25 26 27 28 29 29 29 29 29 29 28 28
32 30 31 31 29 29 30 30 29 28 30 31 30 28 26 29 31 29 28 28 27 25 24 24 24 23 22 21 21 22 24 25 27 28 29 29 30 30 30 30 29 29
32 31 31 32 30 28 27 26 26 27 28 28 28 26 23 24 27 27 26 27 27 25 24 24 23 22 22 21 21 22 23 24 26 27 28 29 30 30 30 30 30 30
33 33 34 34 33 30 28 27 27 26 24 24 24 24 23 23 25 25 26 26 26 25 24 23 23 22 22 22 22 23 23 24 26 27 27 28 29 30 31 31 31 32
36 38 38 37 35 32 31 33 31 28 24 23 23 24 23 24 25 26 26 27 27 26 25 24 24 23 23 23 24 24 25 25 26 27 27 28 29 30 31 32 33 34
39 39 38 36 35 35 36 34 31 29 26 24 24 24 24 25 25 26 27 27 28 28 27 27 26 25 25 25 26 27 27 28 29 29 29 29 30 31 32 33 33 35
40 39 35 33 34 35 35 33 31 28 25 24 23 24 25 26 26 27 27 28 29 30 29 28 28 27 27 27 28 29 30 30 31 31 31 31 32 32 33 34 34 35
37 37 35 32 32 33 33 33 31 27 25 23 23 24 26 27 28 28 29 29 30 30 30 30 30 29 28 29 31 31 32 31 32 33 33 33 34 34 34 36 37 37

ECMWFNIL_500_spd_042.txt.gz
Wind_Speed
19 17 17 17 16 15 15 16 17 17 15 14 13 14 15 14 14 14 14 13 13 13 13 14 14 15 16 16 16 16 16 15 14 13 12 12 12 13 12 11 11 10
18 17 17 17 16 16 16 18 19 18 16 15 15 15 15 15 14 14 14 14 14 14 15 15 15 15 16 16 14 14 15 13 13 13 12 11 12 12 12 11 10 9
17 17 17 17 16 16 18 19 18 17 16 16 16 15 15 14 14 14 14 13 13 14 14 15 14 13 14 14 13 13 13 13 13 12 11 11 11 11 11 9 8 7
18 17 16 16 16 17 18 18 17 17 17 16 16 15 15 14 14 14 14 13 13 14 14 15 14 13 13 13 12 13 12 13 14 12 10 9 9 10 9 8 7 7
19 18 17 16 17 17 17 17 17 17 17 16 15 15 15 15 16 15 15 15 14 14 15 15 14 13 12 12 11 12 12 13 14 13 11 10 10 9 8 8 8 8
20 19 18 17 17 17 17 17 18 17 16 15 14 14 14 15 16 16 16 16 15 15 15 14 13 13 12 12 12 12 13 14 14 14 13 12 12 12 10 9 9 10
20 20 20 18 17 16 16 17 17 17 16 15 14 14 13 14 15 16 16 16 16 15 15 14 14 13 13 13 13 14 14 14 15 15 14 14 14 14 13 12 11 12
22 21 22 20 17 16 16 16 16 16 16 16 15 15 15 15 15 16 16 16 16 15 15 15 14 14 13 13 13 14 14 14 15 15 15 14 14 14 14 13 12 12
24 22 24 22 18 16 16 16 16 17 17 17 17 17 17 17 16 16 16 17 16 16 16 15 15 14 13 12 12 12 12 13 14 15 15 14 14 14 14 13 13 12
27 25 26 25 20 18 17 18 18 18 19 18 18 19 19 19 18 16 16 16 17 17 16 16 16 15 15 14 13 13 12 13 14 15 15 14 14 14 14 14 13 12
29 28 27 26 23 20 19 20 20 20 20 20 20 21 21 21 19 17 16 16 16 17 17 17 17 17 16 16 15 15 15 15 15 16 15 15 15 15 15 15 14 12
32 31 29 28 26 23 22 21 21 21 21 21 21 22 23 23 21 19 18 17 17 17 17 17 17 18 18 18 18 18 17 17 17 17 17 17 17 17 17 16 15 14
32 32 31 29 28 25 24 23 23 22 22 22 22 23 24 25 24 22 21 20 20 19 18 18 19 20 20 20 19 19 19 19 19 19 19 19 19 18 18 18 17 17
28 30 32 30 29 28 26 24 23 22 22 22 22 23 24 26 26 25 23 23 22 20 20 21 21 21 21 20 19 19 20 20 20 20 21 22 21 20 20 19 19 18
28 31 34 32 30 29 27 26 25 23 22 22 24 25 25 26 26 26 25 24 23 23 24 24 23 22 22 21 20 20 21 21 21 22 23 23 22 22 22 21 21 20
29 31 36 34 31 30 29 27 27 25 23 24 25 26 26 26 26 26 25 24 25 27 27 27 26 25 24 23 22 22 22 22 23 23 24 24 23 23 23 23 23 22
32 33 36 36 32 31 30 29 28 27 26 27 27 26 26 27 26 26 26 25 26 28 28 28 28 27 26 25 25 24 23 23 23 24 24 24 24 24 25 25 25 24
32 31 35 37 33 30 30 31 30 30 30 29 29 28 27 27 27 27 26 26 26 27 27 27 28 28 27 27 26 25 24 24 23 23 24 24 25 26 26 26 26 25
30 31 35 37 37 34 32 32 32 32 32 31 30 29 28 27 28 27 26 25 26 27 27 28 28 28 28 28 27 26 25 24 23 23 24 25 25 26 26 26 27 27
32 34 35 38 41 38 33 32 33 34 33 32 31 30 30 29 29 28 27 27 27 28 29 30 30 30 29 28 28 27 25 24 23 24 25 25 26 27 27 27 28 28
34 35 35 37 40 38 33 31 33 34 33 32 31 31 31 32 32 31 30 30 31 31 32 33 32 31 29 28 27 27 26 26 25 26 26 26 27 28 28 29 29 29
33 34 35 35 37 39 35 33 33 33 33 32 32 32 33 32 33 33 33 33 33 34 35 35 34 32 30 29 28 28 28 28 28 28 27 27 28 29 29 30 30 31
34 35 35 34 36 37 35 33 32 32 32 32 33 33 33 32 32 33 33 33 32 32 32 33 32 32 31 30 29 29 29 30 30 29 28 29 30 30 30 31 32 32
36 36 37 37 38 37 36 35 33 31 31 31 31 31 30 29 31 31 31 31 29 28 29 30 31 32 32 31 30 29 30 31 30 29 29 30 31 31 31 32 32 32
34 37 40 41 41 40 39 38 36 34 33 31 31 31 29 30 32 31 30 30 29 28 29 30 31 32 33 32 31 30 30 31 30 30 30 31 32 32 32 32 33 33
35 37 40 40 41 40 40 39 39 38 37 34 33 33 34 35 35 32 30 30 30 30 30 31 31 33 33 33 33 31 31 31 31 31 32 33 33 34 33 33 33 32

ECMWFNIL_500_spd_045.txt.gz
Wind_Speed
11 10 7 6 8 10 11 11 11 11 11 12 12 12 12 13 14 15 16 16 16 17 18 18 18 16 15 14 14 13 12 12 12 12 12 12 12 11 9 9 11 12
11 10 7 6 8 10 11 11 11 12 12 12 12 13 14 15 15 16 16 17 17 18 18 18 18 17 16 15 15 13 12 12 11 10 10 10 10 10 9 9 10 11
11 10 9 7 8 10 11 11 12 13 13 12 13 15 16 16 16 16 16 17 17 17 16 17 17 17 17 16 14 12 12 11 10 9 9 9 9 9 8 8 9 10
11 11 10 8 8 9 11 12 14 15 14 13 14 16 16 16 16 16 15 16 15 14 14 15 16 16 16 15 13 12 11 10 9 8 8 8 7 7 7 8 9 9
11 11 10 9 9 9 11 14 16 16 15 14 14 15 16 16 15 15 14 14 13 13 13 14 14 14 14 14 13 12 10 9 8 8 8 8 7 7 7 8 8 9
11 11 10 10 9 10 11 14 16 16 15 14 14 15 15 15 14 14 13 14 13 13 13 14 15 14 14 14 13 11 10 9 9 9 9 8 8 7 8 8 8 9
12 11 11 11 11 10 11 13 15 16 16 15 15 15 15 14 14 13 13 13 13 14 14 15 15 15 14 14 13 11 11 11 10 10 10 10 9 9 9 9 10 11
13 12 11 11 12 11 11 13 15 16 17 17 16 15 15 14 14 13 13 13 13 14 14 15 16 16 16 15 14 13 12 12 12 11 10 10 11 11 11 11 11 12
13 12 12 11 12 12 12 14 15 17 19 18 17 16 15 14 14 14 13 13 13 14 14 15 15 16 16 16 15 14 13 13 12 12 11 11 12 12 12 11 12 12
16 16 15 13 13 13 13 15 16 18 20 20 19 17 15 14 15 14 14 14 14 13 14 15 15 15 16 15 15 14 13 12 11 11 11 11 11 11 11 12 12 12
18 18 18 16 16 17 18 17 17 18 20 21 21 19 17 16 15 15 16 15 14 13 13 14 15 16 16 15 14 14 13 12 12 11 11 11 11 11 12 13 13 13
16 17 19 19 19 20 21 20 18 18 20 22 24 22 19 17 17 17 16 15 14 14 14 15 16 17 17 16 16 15 15 14 13 12 12 12 12 13 13 13 13 14
19 19 19 19 18 20 22 23 21 20 21 23 25 25 22 20 19 17 16 16 16 17 17 16 16 17 18 18 17 17 17 17 15 15 15 14 14 15 15 14 14 15
22 23 23 22 19 20 24 26 26 24 22 24 26 26 23 22 21 18 17 18 19 20 19 17 17 18 18 18 19 19 19 19 18 18 17 15 16 17 16 15 16 16
21 23 26 25 23 22 23 25 27 25 24 25 27 26 25 24 21 19 20 20 21 22 21 19 19 20 20 20 20 21 21 21 20 19 18 17 18 19 18 18 18 18
21 22 24 25 25 25 24 24 27 26 25 27 28 28 27 25 21 21 22 22 22 23 22 21 22 23 23 22 23 23 22 22 21 21 20 19 19 20 19 19 19 20
23 23 23 24 26 26 24 24 27 27 26 28 29 30 29 25 23 24 24 22 22 23 23 23 24 25 25 25 25 24 23 23 23 23 23 22 21 20 20 20 21 21
26 26 25 24 25 27 26 26 28 29 29 29 31 32 29 26 26 27 26 23 22 23 24 24 24 25 26 27 27 26 25 25 25 25 25 23 22 21 21 22 22 21
26 26 26 26 26 27 28 29 30 31 31 32 33 32 29 28 29 29 27 24 23 24 25 25 25 25 26 27 28 27 26 26 26 26 25 24 23 23 23 23 22 22
28 26 27 28 27 27 28 31 33 34 35 35 33 31 29 30 31 31 29 26 24 25 26 26 26 27 27 28 28 28 27 27 27 27 26 25 25 26 25 24 23 23
28 26 26 27 28 27 27 30 32 34 37 35 31 29 29 30 32 32 31 29 27 26 27 27 27 28 28 29 29 29 29 28 28 28 27 27 27 28 26 25 24 24
28 27 26 28 29 28 28 29 31 35 36 34 32 30 30 31 33 34 34 31 30 29 28 28 29 29 29 30 30 31 31 31 29 29 28 28 29 29 27 26 25 25
27 28 28 29 29 30 31 31 32 35 36 35 35 34 32 32 34 36 35 34 33 32 31 30 31 31 32 32 32 33 34 34 32 30 30 31 31 30 29 28 27 27
26 28 30 32 31 30 32 33 34 37 37 34 35 35 33 33 34 36 36 35 35 34 32 32 33 34 34 35 36 36 36 37 35 33 33 33 33 32 32 31 30 29
28 30 33 36 35 33 35 36 36 38 39 36 35 37 35 33 34 36 36 36 36 35 33 33 34 35 35 35 35 35 36 37 36 35 35 35 33 33 32 32 31 31
27 29 30 33 35 35 37 39 39 40 41 39 37 38 35 32 32 34 33 34 36 36 34 32 32 34 34 33 32 33 34 36 36 35 35 35 34 33 33 33 33 33

ECMWFNIL_500_spd_048.txt.gz
Wind_Speed
18 15 13 12 12 12 11 9 9 10 11 14 15 15 14 14 16 18 17 16 17 17 17 16 16 17 18 18 17 16 15 14 14 14 14 14 15 15 15 16 16 16
21 16 13 11 11 12 11 9 9 10 11 13 14 14 14 15 16 17 16 16 17 17 17 17 17 17 17 17 17 15 14 13 14 14 14 14 14 14 14 15 15 15
22 17 13 11 11 12 12 10 10 11 11 12 13 14 14 15 16 16 16 17 17 17 18 18 17 17 17 18 17 16 15 15 15 15 15 14 13 13 14 14 14 14
20 16 14 11 11 13 13 12 11 12 13 14 14 15 15 16 16 16 17 17 17 17 18 18 19 19 19 19 18 18 17 17 16 16 15 14 13 14 14 14 14 14
19 16 15 13 12 14 14 14 13 12 13 14 15 15 15 15 16 17 17 16 16 17 18 19 19 19 19 19 19 18 18 17 16 15 14 14 14 14 14 14 15 15
23 20 18 17 16 15 15 15 14 12 12 13 14 14 14 15 15 16 16 15 15 16 17 18 19 19 19 19 19 18 17 16 16 16 15 15 15 15 15 15 15 16
27 22 19 19 18 16 16 15 14 13 12 12 13 13 13 14 14 14 13 13 14 15 17 18 19 19 18 18 18 18 17 16 16 16 16 16 15 15 15 15 16 16
26 21 17 18 17 16 15 13 13 13 12 12 13 13 13 13 14 14 13 13 14 15 17 18 18 18 18 18 18 17 17 17 16 16 16 16 16 16 16 16 16 16
25 21 18 18 17 15 14 13 13 13 13 13 13 13 13 13 14 14 13 14 15 16 17 17 17 17 17 18 18 17 17 17 16 16 17 17 18 17 18 17 17 16
24 23 21 21 20 17 16 14 15 15 16 16 15 14 13 14 15 15 15 15 16 17 17 16 16 16 16 17 17 17 17 17 16 17 17 18 18 17 17 18 18 17
23 24 23 22 22 20 18 17 18 18 17 18 17 16 16 16 16 16 16 16 18 18 18 17 17 17 16 17 17 17 17 16 16 16 17 17 17 17 17 18 18 18
19 21 21 21 23 23 20 20 19 17 17 18 19 18 18 18 18 17 17 18 19 19 19 18 17 17 17 18 18 18 17 16 16 16 16 16 16 16 17 17 17 17
19 19 19 20 23 25 24 21 18 17 17 19 20 20 19 18 18 19 19 20 20 20 20 19 18 17 17 18 19 18 18 17 17 16 15 15 15 16 16 17 17 17
19 19 18 18 21 26 28 23 17 16 18 21 22 21 20 19 20 21 22 22 21 21 21 21 20 19 19 19 19 19 19 19 18 18 16 16 16 16 17 17 17 18
16 18 19 19 20 23 29 29 22 17 18 23 25 24 22 21 22 24 24 23 22 22 22 22 22 22 22 21 20 20 20 20 20 20 19 18 18 18 18 18 17 18
16 17 18 19 19 20 25 31 29 25 23 24 26 27 26 23 24 25 25 24 23 23 23 24 24 25 25 24 22 21 21 21 22 22 21 20 20 19 18 17 17 17
18 19 19 19 18 19 22 27 28 27 26 25 24 27 28 25 25 27 26 25 25 24 25 25 25 27 28 27 25 24 23 22 22 22 22 21 21 20 19 17 17 18
20 21 22 21 20 19 20 24 26 26 26 27 25 26 28 28 27 28 26 26 26 26 26 26 26 27 29 29 28 27 26 24 23 22 21 21 22 21 20 19 19 20
20 22 23 23 22 21 21 23 25 25 27 28 26 26 29 30 29 29 27 28 28 27 27 27 26 27 29 29 29 29 28 27 25 24 22 22 22 22 21 21 21 22
22 24 24 24 25 24 23 23 24 24 26 30 30 28 30 32 32 30 29 29 30 29 29 28 27 27 28 29 30 30 29 28 27 25 24 24 23 23 22 23 23 24
22 24 24 24 25 24 23 23 23 23 26 31 34 32 31 33 33 32 31 31 31 30 30 30 28 27 28 29 30 30 29 28 27 26 25 25 24 24 23 24 24 26
21 23 24 24 24 24 23 22 23 23 25 32 38 37 34 34 35 34 33 32 31 31 31 31 30 29 28 28 29 29 29 28 26 26 25 25 25 25 24 25 26 27
20 22 24 24 25 26 26 24 22 24 26 31 37 38 37 36 35 34 33 33 32 31 31 31 32 31 30 29 29 29 30 29 27 26 26 25 25 26 26 27 28 29
21 22 24 24 25 27 28 25 23 26 29 31 33 37 38 38 36 34 34 35 34 32 31 31 33 33 32 31 31 30 30 29 28 28 27 27 27 28 29 30 31 32
21 21 21 21 22 25 27 27 26 29 33 34 34 37 40 40 38 35 37 38 36 34 32 32 33 35 34 33 32 31 31 30 30 30 31 32 32 32 32 33 34 35
22 22 21 21 22 23 26 30 33 36 39 40 38 38 41 44 42 39 39 39 36 34 33 33 34 35 35 34 33 32 32 32 33 33 34 35 35 34 32 34 36 37

ECMWFNIL_500_spd_051.txt.gz
Wind_Speed
28 29 28 25 21 19 19 19 20 21 21 21 20 19 19 20 21 21 21 20 18 18 17 17 17 17 17 17 17 17 17 17 17 17 18 19 19 21 22 22 22 21
30 31 31 28 22 20 20 20 21 22 22 22 20 18 17 19 19 19 20 19 17 17 16 16 17 17 16 16 16 16 17 17 17 17 18 19 19 21 21 21 21 21
32 33 35 34 29 26 22 20 21 23 23 22 19 17 17 18 18 18 18 18 17 16 16 16 17 17 16 16 16 17 17 17 17 17 18 19 20 21 21 21 21 22
34 36 37 36 33 30 25 21 22 24 24 22 20 18 18 18 17 17 18 18 17 16 16 17 17 17 16 16 17 17 17 17 17 18 18 19 20 21 21 21 22 22
33 35 35 32 29 28 25 22 23 25 25 23 21 19 18 18 17 18 19 19 18 17 17 17 17 17 16 16 17 17 17 18 18 19 19 19 21 21 21 21 21 21
30 32 32 30 27 25 25 24 24 26 26 23 22 22 21 20 19 19 19 18 18 18 17 17 16 16 16 16 16 16 17 18 18 18 19 19 20 20 20 20 20 20
28 31 31 31 28 24 24 26 26 27 26 24 23 23 22 21 20 19 18 17 17 18 17 16 16 16 15 16 16 16 17 17 18 18 18 19 20 20 20 20 20 20
28 31 32 31 27 23 23 25 26 27 26 24 23 24 23 21 20 18 17 17 18 18 17 16 16 16 16 16 17 17 17 17 17 18 18 19 20 20 21 21 20 20
28 30 31 30 26 24 24 25 26 26 25 23 22 22 23 22 20 19 18 18 18 18 17 15 15 16 16 17 17 18 18 18 18 18 19 20 20 21 21 21 21 21
27 28 29 28 25 23 24 25 25 25 24 23 21 21 22 22 21 20 19 18 18 17 17 16 16 16 16 17 17 18 19 19 19 19 19 20 21 21 22 22 22 22
25 27 27 27 26 25 25 25 24 22 23 23 21 21 23 23 22 21 19 19 19 19 18 17 17 16 16 16 17 18 18 18 18 19 20 20 21 22 23 24 24 23
25 26 26 26 27 27 25 24 22 21 22 22 22 23 24 22 21 21 21 21 21 20 19 18 17 17 16 16 17 16 16 16 17 18 19 20 22 23 24 25 25 25
25 26 26 26 27 27 25 24 23 22 23 23 22 22 21 20 20 20 21 21 21 20 19 18 17 17 17 17 17 16 15 16 17 18 19 20 22 24 25 26 26 26
25 27 26 24 26 26 25 24 24 24 25 25 22 19 18 18 19 21 22 22 21 21 20 18 18 18 18 18 18 17 16 17 18 19 19 20 21 23 25 25 25 25
20 26 24 23 24 25 25 25 26 27 28 26 21 18 18 20 21 22 23 23 23 23 21 20 20 19 20 19 19 19 18 18 19 20 20 21 21 22 23 23 22 22
12 19 21 23 24 25 25 25 27 29 31 29 24 19 17 18 21 24 25 24 25 25 23 22 22 21 21 21 21 20 20 19 20 20 21 22 23 23 23 23 21 20
11 13 16 20 22 22 23 23 24 27 29 31 31 27 23 21 23 26 28 28 28 27 25 24 24 23 22 22 22 22 22 22 21 22 23 23 24 25 25 24 22 21
14 14 15 18 20 21 21 21 21 23 25 27 30 31 30 28 26 27 29 30 31 29 28 26 25 24 23 23 22 22 23 24 24 25 24 25 25 27 27 27 25 24
16 15 16 18 21 22 22 22 22 22 23 23 25 27 27 26 26 27 28 29 31 31 30 28 27 26 25 24 23 23 23 24 26 27 27 26 26 28 28 28 27 27
19 18 18 19 20 22 23 23 23 23 23 22 22 24 26 26 25 27 27 28 30 31 31 30 28 28 27 26 25 24 24 24 26 28 29 28 28 29 30 29 29 29
21 20 20 20 20 21 22 23 23 24 24 24 24 25 27 27 27 27 28 27 28 30 31 30 29 29 29 28 26 26 25 25 25 27 30 31 31 31 32 31 31 31
21 21 21 21 20 20 23 24 23 23 23 24 26 27 28 30 32 31 30 29 29 30 31 30 30 30 30 28 27 27 27 26 25 26 29 31 33 33 33 34 34 33
22 22 23 23 22 22 24 25 24 23 22 22 25 28 30 32 34 35 35 33 33 33 32 30 30 31 30 29 27 27 27 27 26 26 27 31 33 34 34 34 35 34
22 23 24 24 24 23 24 26 27 26 25 23 24 28 30 32 34 37 39 39 38 38 36 32 31 31 31 30 29 28 28 27 27 27 27 29 32 34 35 34 34 35
22 23 24 25 25 24 24 25 27 27 27 27 27 29 32 34 36 40 44 45 45 44 39 34 32 31 32 32 30 29 29 29 29 28 28 29 30 32 34 35 35 35
22 23 24 25 25 24 23 23 24 25 26 29 31 32 34 37 38 40 45 47 45 44 42 38 34 32 33 34 33 31 31 31 30 30 30 30 31 32 33 35 36 36

ECMWFNIL_500_spd_054.txt.gz
Wind_Speed
28 32 34 34 37 39 36 32 30 27 21 19 21 23 24 25 25 25 25 24 22 21 20 19 18 17 16 16 16 16 15 14 14 14 15 15 16 17 19 19 19 20
29 31 33 37 39 40 39 34 31 29 23 19 21 22 24 25 26 26 25 23 22 20 19 19 18 17 16 16 15 15 15 15 15 15 16 16 16 17 19 19 20 21
29 30 30 33 33 35 36 34 33 32 25 21 22 22 24 26 27 26 24 23 21 20 19 19 18 17 16 16 16 15 15 15 15 15 16 16 17 17 18 20 21 21
29 29 28 29 29 31 34 33 35 35 27 23 24 23 25 27 27 26 24 22 21 20 19 18 18 18 17 17 17 16 16 15 15 15 16 17 17 18 18 19 20 20
28 29 29 29 29 32 34 33 35 34 28 24 25 25 26 26 26 26 24 23 21 20 19 19 19 19 18 18 18 17 16 16 16 17 17 18 18 19 19 20 20 20
25 27 29 29 29 31 33 33 34 32 27 26 27 27 28 27 26 26 25 24 22 21 21 21 21 20 20 20 19 18 18 18 18 18 18 19 19 20 20 21 21 21
25 26 28 29 29 29 31 32 33 31 27 27 28 29 29 28 27 28 27 25 23 23 22 23 23 22 21 20 20 19 19 19 19 19 19 19 19 20 21 21 22 22
26 26 28 30 30 30 30 30 32 30 27 27 28 30 30 29 29 29 27 26 25 24 24 24 23 22 21 20 20 20 20 20 19 19 19 19 19 20 20 21 21 21
24 25 27 29 29 28 28 29 30 29 27 27 28 29 31 31 30 29 27 27 26 26 26 25 23 22 22 21 20 20 20 20 19 20 20 20 20 20 20 20 20 20
21 22 25 27 27 26 27 29 30 28 26 27 29 29 31 33 31 29 28 27 27 27 26 25 23 23 23 22 21 21 20 20 20 20 20 21 20 20 20 20 20 20
18 17 18 20 23 26 28 29 30 27 25 27 30 31 32 34 33 30 28 28 27 27 26 25 24 24 24 23 22 21 20 20 20 20 21 21 21 21 20 21 21 21
17 15 14 16 22 26 28 30 30 27 26 27 30 32 32 32 32 31 29 28 27 27 26 25 25 25 24 23 22 21 20 20 19 19 20 20 20 21 21 21 21 21
17 17 17 18 22 26 28 30 28 25 26 29 31 32 31 30 30 30 29 27 27 26 26 26 25 25 23 23 22 21 20 19 19 18 18 19 20 21 21 22 22 22
16 17 19 20 21 25 28 29 26 24 26 29 30 30 30 30 31 30 28 26 25 25 26 26 26 25 24 23 22 22 21 20 19 19 19 19 20 20 21 22 22 23
17 15 18 22 22 23 28 28 25 25 27 28 28 29 29 30 29 28 26 25 25 26 27 27 27 26 25 24 23 23 22 21 20 20 20 20 20 21 21 22 23 23
19 15 14 22 24 23 26 28 27 27 28 28 27 27 28 29 28 26 26 26 25 25 26 27 28 27 27 26 25 24 23 22 22 21 21 21 21 22 22 23 23 24
20 16 11 17 24 25 26 27 27 28 29 28 28 27 28 29 28 27 28 28 26 26 26 28 29 29 28 28 27 25 24 23 23 22 22 21 22 23 23 23 24 24
20 18 13 11 18 23 25 26 27 28 29 29 29 29 30 30 30 29 29 28 27 26 27 28 29 30 30 29 28 27 25 24 24 23 23 22 23 23 24 24 25 25
19 19 17 14 13 17 21 24 26 27 29 29 30 31 32 34 34 33 31 29 28 28 28 29 30 32 31 30 30 29 27 25 25 25 24 24 24 24 25 25 26 26
18 19 20 18 16 16 17 20 23 26 27 28 28 29 30 33 36 37 36 35 35 34 32 30 31 33 34 32 32 31 29 27 26 26 26 25 26 26 27 27 27 28
19 20 21 21 20 20 19 20 22 24 26 27 27 27 28 30 32 35 37 38 37 36 34 31 31 33 35 35 34 33 31 29 28 27 27 27 27 27 28 29 29 29
20 20 21 23 23 23 23 22 22 24 25 27 28 29 29 30 30 31 32 33 33 33 33 31 31 32 34 35 35 35 33 31 29 28 28 28 27 28 29 30 31 31
22 21 22 23 25 26 25 24 24 25 25 25 27 29 30 31 31 31 31 31 31 32 31 30 30 31 33 35 36 37 35 34 32 30 30 29 29 29 30 31 32 33
24 23 22 23 25 27 27 26 26 27 26 25 25 27 29 31 32 32 33 33 33 33 33 32 32 32 33 34 36 37 37 36 34 33 32 31 30 30 31 31 32 34
26 25 24 24 25 27 28 28 28 29 29 27 26 27 29 30 31 31 32 34 37 37 36 36 35 34 34 35 36 38 38 38 37 35 34 33 32 32 32 33 33 33
27 27 26 26 25 26 28 29 29 30 30 30 29 28 28 30 32 32 32 36 41 42 39 39 38 38 38 38 40 41 40 39 38 37 36 36 35 34 34 34 34 33

ECMWFNIL_500_spd_057.txt.gz
Wind_Speed
30 29 32 31 29 31 31 30 30 31 31 33 34 34 32 29 27 28 28 25 25 25 24 24 24 23 21 19 18 18 17 17 16 15 15 15 14 15 16 17 18 18
29 29 31 32 31 33 32 31 31 31 32 34 36 36 33 30 27 27 28 27 25 25 25 25 25 24 23 21 19 18 19 19 17 16 16 16 15 15 16 17 18 18
29 29 31 32 34 35 33 32 31 30 31 33 36 38 35 31 28 28 29 27 24 24 24 24 25 24 23 22 20 20 21 20 19 18 18 17 17 17 17 18 18 18
29 30 32 33 35 35 33 33 32 29 29 30 33 36 35 31 28 28 29 27 24 23 23 24 25 24 24 23 23 23 22 21 20 19 19 19 19 19 19 19 19 19
28 30 32 34 36 36 34 34 33 31 29 28 29 32 33 31 29 28 29 27 24 23 24 24 24 25 25 25 24 23 22 21 21 20 20 20 20 20 20 20 20 20
29 30 32 35 37 35 34 34 34 31 29 27 28 30 31 32 30 29 29 28 24 23 25 25 25 25 26 26 25 23 21 21 21 21 21 22 21 21 21 21 21 21
29 29 31 34 36 34 34 34 33 30 29 28 28 29 30 32 32 31 30 29 26 25 26 25 25 26 27 26 26 24 23 23 23 23 23 23 22 22 21 21 21 21
29 29 29 31 33 33 33 34 32 29 28 28 29 30 30 32 33 32 31 30 27 27 28 26 26 27 27 27 26 25 24 24 24 24 24 23 23 22 22 22 22 22
29 28 28 29 29 31 32 33 31 29 28 28 30 31 31 32 33 32 32 31 29 30 30 27 26 27 28 27 26 26 26 25 25 25 25 24 24 23 23 22 22 22
28 27 27 27 27 28 30 31 30 29 28 29 31 32 32 33 32 32 32 32 31 32 32 29 27 28 28 28 27 27 27 26 26 26 25 25 24 24 23 23 23 22
28 26 26 26 26 26 27 27 29 29 28 30 32 33 33 33 32 32 32 31 32 33 32 30 28 28 27 28 28 28 27 27 27 26 26 26 25 24 24 23 23 23
28 27 26 26 25 25 25 24 25 27 28 30 32 32 33 32 32 32 31 31 32 33 32 30 29 28 28 28 29 28 28 27 27 27 26 26 26 25 25 24 23 23
29 28 27 26 25 24 24 22 22 25 27 29 31 31 31 31 31 31 30 31 32 32 32 31 29 28 28 29 29 28 28 27 27 27 27 27 27 26 25 25 24 24
28 28 28 27 25 23 21 19 21 25 27 28 29 30 29 29 30 30 30 30 32 32 31 31 30 29 29 29 29 29 28 28 28 28 28 27 27 27 26 25 25 25
28 29 28 27 26 23 19 17 21 24 25 26 28 29 28 28 30 30 29 31 32 32 31 30 30 29 29 30 30 30 30 30 29 29 29 28 28 27 26 26 26 26
27 28 29 28 26 24 18 16 21 23 24 25 26 27 26 26 28 29 30 31 32 31 30 30 29 29 30 30 30 31 31 31 31 30 30 29 28 27 27 27 27 27
27 27 28 28 27 25 20 15 20 24 25 26 27 26 25 26 28 30 31 31 32 31 30 29 29 29 30 31 31 32 32 32 31 31 30 29 28 27 27 27 28 28
26 26 26 27 27 26 23 17 17 23 27 29 28 27 27 29 29 31 32 32 32 32 32 31 30 30 31 31 32 32 32 32 31 30 30 29 28 28 28 28 28 28
25 25 25 26 26 26 25 21 16 18 23 28 29 28 29 31 31 31 33 33 33 33 33 33 32 32 31 31 32 32 32 31 31 31 31 30 30 30 29 29 29 29
26 25 24 25 25 25 25 23 20 17 17 21 26 28 29 31 32 32 33 33 34 35 35 35 34 33 32 32 32 32 31 30 31 31 31 32 32 31 31 31 31 31
27 26 25 24 24 25 25 24 23 21 19 19 21 25 28 31 32 33 33 34 35 36 37 37 36 34 33 33 31 30 29 30 32 32 32 33 34 34 33 33 33 32
30 28 26 25 24 24 25 26 25 24 23 21 21 23 26 30 32 34 35 35 36 38 39 39 38 36 35 34 33 31 32 32 33 34 35 34 35 36 36 35 35 34
31 31 29 27 26 25 25 26 27 26 25 24 24 25 26 28 30 33 35 35 36 39 41 41 41 40 39 39 39 39 37 35 34 35 37 37 37 37 38 38 37 36
31 32 31 30 28 27 26 26 27 28 27 27 27 27 27 29 29 30 33 35 36 37 38 38 40 41 41 42 42 40 39 37 36 36 37 38 39 39 39 40 39 38
32 32 33 32 31 30 28 27 27 28 29 29 29 29 29 30 30 30 32 33 36 38 38 38 38 38 38 39 39 38 38 37 37 36 35 37 38 39 40 41 41 40
34 33 33 33 33 32 31 30 29 29 30 31 31 31 31 31 31 32 32 33 34 37 39 40 39 38 37 37 38 37 37 37 36 36 36 36 38 39 41 41 42 42

ECMWFNIL_500_spd_060.txt.gz
Wind_Speed
31 32 31 31 32 32 33 34 34 35 37 36 34 33 33 33 33 33 33 33 33 32 31 28 27 26 25 23 23 23 23 24 25 24 23 22 21 19 18 18 20 20
31 32 32 31 32 32 33 34 35 35 37 37 36 36 35 33 33 35 34 34 34 33 31 29 28 28 26 24 23 22 23 25 26 25 24 22 22 20 20 20 21 20
29 30 31 31 32 32 33 35 36 36 37 39 38 38 37 35 34 35 36 35 35 34 32 30 29 28 26 25 24 23 24 26 27 26 24 22 22 21 21 22 22 21
28 29 30 31 31 32 33 36 37 38 39 40 40 39 38 36 36 36 35 35 36 35 33 30 29 28 28 28 27 25 26 27 27 26 24 23 23 23 23 23 23 22
28 29 30 31 31 32 34 36 37 38 39 41 42 40 38 37 37 37 34 33 35 35 33 31 29 28 28 28 27 27 27 27 26 26 25 24 24 24 25 25 24 24
29 29 30 31 31 32 34 36 37 37 38 40 41 40 39 38 38 37 34 31 33 34 32 30 29 29 29 28 27 27 26 26 26 27 27 26 26 26 26 26 26 25
30 29 29 30 31 32 34 36 37 37 36 38 39 38 38 38 37 37 34 31 31 32 31 30 30 31 30 29 27 27 26 26 27 27 28 28 28 28 28 27 27 26
29 29 29 29 30 30 31 33 35 36 36 36 35 36 37 37 36 36 34 31 32 32 30 31 31 31 31 30 27 26 27 27 27 27 28 28 28 28 28 28 27 26
29 29 29 29 29 30 30 31 32 34 36 35 33 33 34 34 34 35 33 31 31 31 30 30 30 31 31 30 27 27 27 27 28 29 29 28 28 28 27 27 27 26
28 29 29 29 29 30 30 31 31 32 34 36 33 31 31 32 33 33 32 31 31 32 32 33 31 31 31 29 27 26 28 28 29 30 30 28 28 27 27 27 27 26
27 28 29 29 29 30 30 31 31 31 32 34 33 30 30 31 32 33 33 32 31 31 32 32 31 31 30 28 26 27 29 30 31 30 29 28 27 27 27 27 27 27
27 28 30 30 30 31 31 31 31 31 31 31 31 30 30 32 32 32 34 34 31 31 32 31 31 31 29 26 26 28 30 31 32 30 29 28 27 27 27 27 28 28
28 30 31 31 30 31 32 32 32 32 30 28 27 29 30 32 33 32 34 34 32 32 33 32 33 32 28 26 27 29 32 32 32 30 29 28 28 28 28 28 28 28
30 31 32 32 31 32 33 33 32 32 31 25 23 27 30 32 33 34 35 34 32 33 32 31 31 31 28 26 28 30 32 33 31 30 29 29 29 29 28 28 28 28
31 32 32 33 32 32 33 33 32 32 31 25 21 24 29 32 34 34 33 32 31 32 31 29 29 30 29 27 29 31 32 32 31 29 29 29 29 29 28 28 28 29
32 32 32 33 33 32 33 33 32 31 31 28 21 20 25 29 31 31 30 30 30 29 29 29 29 31 30 29 30 32 32 31 31 30 30 30 29 28 27 28 29 30
31 31 32 33 33 33 32 33 32 31 30 29 24 18 20 23 26 27 27 27 27 27 29 30 31 32 32 30 31 32 33 32 32 31 31 30 29 28 27 28 29 30
31 31 31 32 32 32 32 32 32 31 29 28 25 19 19 22 22 24 25 25 25 26 29 30 31 33 34 32 31 32 33 33 32 32 31 30 30 29 29 29 30 31
33 32 31 31 31 31 31 32 32 31 30 28 26 22 19 23 25 25 24 24 25 26 28 31 32 33 34 32 31 32 33 32 32 32 32 31 31 30 30 30 30 31
33 33 32 32 31 30 30 31 32 32 31 29 27 24 20 21 26 29 28 27 27 28 29 30 32 34 34 33 33 33 34 33 33 33 32 32 32 32 32 32 31 31
33 33 33 32 32 31 30 30 31 32 32 31 29 27 24 21 22 27 30 31 31 30 30 31 32 33 35 34 34 35 35 34 34 34 34 33 33 33 34 34 33 32
35 34 33 32 32 32 31 30 30 31 32 32 31 29 27 25 23 23 26 30 32 33 32 32 32 33 35 36 36 37 36 35 35 35 35 35 35 35 35 35 35 34
38 37 36 35 34 34 33 32 31 31 31 32 33 31 30 28 26 25 24 25 29 33 33 32 32 34 36 37 38 38 38 36 35 36 37 36 36 36 36 36 36 36
39 39 38 38 37 36 36 36 34 32 31 32 33 33 33 31 29 28 26 24 26 30 32 33 34 35 36 37 39 39 39 38 38 38 38 38 37 37 36 35 36 38
39 39 38 39 38 38 37 38 38 36 33 32 33 33 34 34 32 30 29 28 28 29 31 33 34 34 35 37 39 40 40 40 41 41 40 39 40 41 40 38 38 39
41 41 41 41 41 39 38 38 39 39 37 35 34 34 34 35 35 33 32 32 31 31 31 33 34 33 34 36 38 39 40 41 42 43 43 44 44 46 47 45 42 40

ECMWFNIL_500_spd_063.txt.gz
Wind_Speed
30 31 32 32 32 33 34 35 36 37 37 38 38 38 39 38 38 38 38 37 36 36 36 36 35 33 31 30 30 30 29 28 26 26 27 26 24 23 23 22 21 21
31 32 33 33 33 33 34 34 35 35 36 37 38 38 39 39 40 40 40 38 36 35 37 37 36 34 32 31 30 29 30 30 28 27 28 27 26 25 24 23 23 23
33 33 34 34 34 34 34 35 35 35 35 36 37 38 39 41 42 42 41 39 37 35 35 36 35 34 34 33 31 30 30 31 30 29 28 27 26 26 25 25 26 25
34 35 35 35 35 35 35 35 36 36 36 36 37 38 39 41 43 42 41 39 37 36 35 35 34 33 33 34 33 32 31 32 32 30 29 28 27 27 26 27 28 27
35 36 36 36 36 35 35 36 36 37 37 36 37 38 38 40 41 41 40 38 36 36 35 35 34 33 33 33 34 33 32 32 32 31 30 29 29 28 28 28 28 28
36 36 36 35 35 34 35 36 36 37 36 35 36 37 37 38 39 39 38 37 35 35 34 34 34 33 32 33 33 34 33 33 32 32 32 31 30 29 28 27 28 28
36 36 35 34 33 33 34 34 35 35 34 33 35 36 37 38 39 37 37 37 35 34 33 33 33 34 34 33 32 32 33 33 32 31 32 33 32 29 28 27 28 28
35 35 34 33 32 33 33 33 33 33 32 32 35 36 37 39 40 39 38 38 35 34 33 33 33 34 34 32 30 31 32 32 31 30 31 33 32 30 28 28 28 28
34 34 33 33 32 33 33 33 32 32 32 34 35 36 37 39 41 41 39 39 36 34 33 31 31 32 32 31 30 30 31 32 31 30 31 32 31 30 29 28 29 29
34 33 33 33 32 32 32 32 33 33 34 36 36 36 38 40 41 41 40 38 35 34 33 32 31 32 32 31 30 30 31 32 32 30 31 31 31 31 29 29 29 30
34 34 34 33 33 33 33 33 35 36 36 37 37 36 38 39 40 40 39 35 32 33 33 32 31 31 31 30 30 30 31 31 30 30 30 30 30 30 29 29 29 29
35 35 34 34 34 34 34 35 37 38 38 38 37 37 37 38 39 37 34 31 30 31 31 32 32 32 32 30 28 28 29 29 30 31 30 29 29 28 28 28 29 29
35 35 34 35 35 35 36 36 37 39 39 39 38 37 36 37 39 36 31 29 29 30 30 31 32 32 33 31 29 28 29 30 32 32 30 28 28 27 26 27 29 30
35 35 36 36 36 37 37 37 38 39 40 41 40 38 35 35 37 37 33 31 31 30 30 31 32 34 34 33 30 29 29 29 31 31 30 28 27 26 26 28 30 30
36 36 37 37 38 38 38 38 38 39 40 41 41 39 36 33 34 35 33 31 31 30 29 30 32 34 34 32 31 31 29 29 30 30 29 27 27 26 26 29 30 31
37 37 38 38 38 39 39 38 38 39 40 41 41 39 36 34 34 34 31 29 29 30 29 30 31 33 33 32 32 31 30 29 29 29 29 28 26 25 27 29 31 32
39 39 38 38 38 39 40 40 39 39 40 41 41 39 37 34 34 33 30 27 26 29 29 27 29 31 32 30 30 30 30 30 29 27 28 29 27 26 27 29 31 32
40 40 39 39 39 39 40 41 41 40 41 41 41 39 37 35 34 32 31 27 24 27 28 26 26 27 28 28 29 30 30 30 29 27 27 28 27 28 28 29 31 32
41 41 40 40 40 40 40 41 41 41 41 41 41 39 37 36 34 31 30 29 25 25 27 28 28 27 27 28 29 30 30 30 30 29 28 26 26 28 29 30 31 31
41 41 41 40 40 40 40 40 39 40 40 40 40 39 36 36 35 32 30 29 27 26 25 27 28 28 29 30 31 32 32 31 31 31 31 29 27 27 29 31 32 32
42 42 42 42 42 41 41 40 39 39 39 39 39 39 36 35 35 34 31 29 28 27 26 27 29 30 29 30 31 33 35 34 33 32 32 32 30 28 28 30 33 34
43 43 43 43 43 43 42 41 40 39 40 40 40 40 38 36 35 35 34 31 29 28 28 27 28 31 32 31 30 32 34 35 35 34 33 33 33 32 29 29 32 34
43 43 44 44 44 44 43 42 42 41 41 41 40 41 40 39 37 37 36 34 32 30 29 28 27 29 31 33 33 32 32 33 34 35 35 34 35 35 33 32 32 33
42 42 43 44 44 45 45 44 44 43 42 41 41 40 40 39 38 38 38 37 35 33 31 30 29 28 28 30 32 33 32 32 33 34 36 36 36 36 37 37 35 34
43 43 43 44 44 45 45 46 46 45 44 43 42 42 40 39 37 38 38 38 38 36 34 32 31 30 28 29 30 31 32 32 33 34 36 37 37 37 39 40 38 36
46 47 47 47 47 47 47 47 48 48 48 47 46 45 44 43 40 38 38 38 39 39 37 36 35 33 31 31 31 31 31 31 31 33 36 37 38 39 41 41 40 39

ECMWFNIL_500_spd_066.txt.gz
Wind_Speed
28 28 28 29 30 31 32 32 33 33 33 34 33 33 34 34 34 34 35 36 36 36 36 37 38 38 37 38 38 35 33 30 28 27 27 27 27 28 29 29 28 26
29 29 29 29 30 31 32 32 33 33 33 34 34 34 34 34 35 35 36 37 38 38 39 39 40 40 39 38 36 34 33 31 29 28 27 27 28 29 29 29 28 27
30 30 29 30 31 32 32 33 33 33 33 33 33 32 33 34 35 36 37 38 38 39 39 39 40 40 39 37 36 35 34 32 29 29 27 27 28 30 30 29 29 27
31 31 31 32 32 33 33 34 34 33 33 32 32 32 33 35 36 36 37 38 38 39 40 40 40 39 38 38 37 36 34 32 30 29 27 27 28 29 30 29 28 28
33 32 32 33 33 34 34 34 34 34 33 32 32 33 35 37 37 37 37 38 39 40 41 41 41 40 38 38 38 36 34 32 30 28 28 28 28 28 28 27 27 28
34 34 34 34 34 35 35 35 34 34 33 33 33 35 37 38 38 37 37 39 41 41 41 42 43 41 38 38 38 36 33 32 30 28 28 28 28 27 27 27 27 28
35 34 35 35 35 36 36 35 35 34 33 34 35 37 38 38 38 37 38 39 41 42 41 42 43 41 37 37 36 34 33 31 28 27 27 27 28 28 27 28 28 28
35 35 35 36 36 37 36 36 35 35 35 36 37 38 38 38 38 39 39 40 41 42 42 42 42 39 35 34 34 32 32 31 28 28 28 28 29 29 27 26 27 28
36 36 36 37 37 37 37 37 36 36 37 38 38 38 38 39 40 40 40 40 41 41 42 43 42 37 33 32 31 31 31 31 29 29 29 27 28 29 27 25 27 29
37 37 37 37 37 38 38 37 38 38 39 39 39 39 39 39 41 41 41 41 41 41 41 42 42 37 31 30 30 30 29 30 29 28 27 27 28 30 29 27 27 28
38 38 38 38 38 38 38 38 39 39 39 40 39 40 40 41 42 42 41 42 42 42 41 40 40 36 32 29 28 28 28 29 30 29 27 27 29 31 29 27 27 26
38 38 39 39 39 39 39 39 40 40 39 40 40 40 41 41 42 43 42 42 42 42 41 39 39 38 34 31 29 27 27 28 30 30 29 29 31 31 29 28 27 26
38 39 39 40 40 39 39 39 40 40 40 40 41 42 42 42 43 43 42 41 41 42 42 40 40 39 35 32 30 28 28 29 30 31 30 30 31 30 30 30 27 24
39 39 39 39 39 39 39 39 40 41 41 42 43 44 44 44 43 42 42 41 40 40 41 40 40 39 34 31 30 29 29 30 31 30 30 31 31 30 30 30 28 24
40 40 40 40 40 40 41 41 42 43 43 44 45 45 45 45 44 43 42 41 40 39 40 40 40 38 34 31 30 30 30 30 30 30 29 29 30 29 29 29 28 25
41 41 42 42 43 43 44 44 45 45 45 46 46 47 47 46 46 44 42 41 40 39 38 38 39 38 35 31 30 31 31 29 29 30 29 28 28 29 29 28 28 26
42 43 44 44 44 45 45 45 46 46 47 47 47 48 48 47 47 45 42 40 40 39 37 36 36 36 34 31 29 30 29 28 28 30 31 30 29 29 28 28 28 27
42 43 43 43 43 43 43 44 45 46 46 47 47 48 48 48 48 46 43 39 38 38 36 34 34 34 32 29 27 27 27 27 27 28 29 31 30 29 29 29 28 28
41 42 42 42 43 43 43 44 44 45 46 47 47 48 49 49 48 47 45 41 38 37 36 34 32 31 31 29 27 26 25 25 25 25 27 29 30 29 29 28 28 28
42 42 43 43 43 43 44 44 45 45 46 47 47 48 49 49 49 48 47 43 39 38 37 35 32 31 30 28 27 27 27 26 25 25 27 29 30 31 30 29 28 29
43 44 44 44 45 45 45 46 46 46 47 47 47 48 49 49 49 49 48 45 41 39 39 38 35 33 31 29 27 27 27 27 27 27 28 29 30 31 31 31 30 30
45 46 46 47 47 48 48 48 48 48 48 48 48 48 49 49 49 48 47 45 42 39 38 39 38 36 34 31 29 28 27 28 29 29 30 31 31 32 32 32 32 32
46 47 47 48 48 49 49 49 49 50 50 49 49 49 49 49 49 49 47 46 44 40 38 39 39 38 36 33 31 29 28 27 28 30 31 32 32 34 35 34 34 35
46 47 47 48 48 49 49 50 50 50 50 50 50 50 49 49 50 50 49 47 45 42 39 38 39 39 38 36 33 31 30 29 27 28 30 32 33 34 35 35 36 36
47 48 49 50 50 51 52 52 52 52 53 52 52 52 51 51 51 51 51 49 48 46 43 40 40 40 40 38 36 34 32 31 29 28 28 29 32 34 35 36 36 37
48 49 50 51 52 53 54 54 55 55 56 56 55 55 55 55 54 54 54 53 52 50 47 44 42 41 41 41 39 37 35 33 32 31 30 29 29 31 33 34 36 37

ECMWFNIL_500_spd_069.txt.gz
Wind_Speed
30 30 31 32 33 33 34 34 33 33 32 31 31 30 30 30 30 29 27 27 28 29 29 30 30 30 31 32 34 36 36 35 36 36 34 32 31 31 30 31 33 32
30 30 31 32 34 35 35 35 35 35 34 33 33 32 32 31 30 30 28 28 29 30 30 31 31 32 32 33 35 36 36 36 37 36 34 30 30 31 30 31 32 32
30 31 32 33 34 36 36 37 37 36 35 34 34 34 33 32 31 30 29 29 30 31 31 32 33 33 34 34 35 36 37 37 38 36 33 30 29 31 31 32 32 31
32 32 32 33 35 36 37 38 38 38 37 36 35 35 35 34 33 31 31 31 31 32 32 33 33 34 35 36 36 37 37 39 39 36 33 30 29 31 32 32 32 32
33 34 34 35 36 37 38 39 39 39 38 37 37 36 36 35 34 33 33 33 33 33 33 33 34 35 36 37 37 38 39 39 39 35 31 29 28 29 31 32 32 32
35 35 35 36 36 38 39 40 40 40 39 39 38 37 37 36 36 36 35 35 35 35 34 34 34 35 37 37 38 39 40 40 39 34 30 28 28 29 31 32 32 31
35 35 36 37 37 39 40 41 41 40 40 39 39 38 38 37 37 37 37 37 36 36 35 34 35 36 37 38 39 39 40 40 39 35 30 27 27 29 29 30 31 30
36 37 37 38 38 40 41 41 41 40 40 40 40 40 39 39 39 39 39 38 38 37 36 35 36 36 38 39 39 39 39 39 38 35 31 27 26 28 28 28 29 29
38 38 38 38 39 40 41 41 41 40 40 40 40 41 40 40 40 40 40 40 39 38 37 36 36 36 38 39 39 39 39 38 36 33 30 28 27 28 28 28 28 29
39 38 39 39 40 41 41 41 41 41 40 41 41 41 41 41 42 42 42 41 40 39 38 37 37 36 37 38 38 38 38 38 37 32 29 29 29 29 28 29 30 30
39 39 39 40 40 41 41 41 41 41 41 41 41 42 42 42 42 43 43 42 41 41 40 39 38 36 36 37 37 38 38 38 37 33 29 28 28 29 29 28 29 30
40 40 40 40 41 41 41 41 41 41 41 41 41 42 42 42 43 43 44 44 43 43 42 41 40 38 36 37 38 38 38 38 37 34 31 28 28 29 28 29 29 29
41 41 41 41 41 41 41 42 42 42 42 42 42 43 43 43 44 45 46 46 45 45 44 43 42 39 37 37 38 38 38 37 37 35 31 29 28 27 28 29 30 28
41 41 40 41 41 41 41 42 42 42 43 43 44 44 45 45 46 47 48 48 48 47 45 44 42 40 38 37 38 39 38 37 36 34 31 29 28 27 27 29 30 29
40 40 40 40 40 40 41 41 42 43 43 44 45 46 46 47 47 47 47 48 48 47 46 44 43 41 39 37 37 38 38 37 36 33 30 27 27 27 28 29 30 30
40 40 40 40 40 40 41 41 42 43 43 44 45 46 46 46 46 46 46 46 47 47 46 45 44 42 40 37 36 37 37 36 35 33 30 26 25 25 26 28 29 29
40 41 41 41 41 42 42 42 43 43 43 44 45 45 46 46 46 46 47 47 48 47 47 46 45 43 41 38 36 36 36 36 34 32 30 27 25 25 25 26 27 29
41 41 42 42 42 42 43 43 43 44 44 45 45 46 46 47 47 47 48 48 49 49 48 48 46 44 43 40 37 35 36 36 34 32 30 28 27 26 25 26 27 28
42 42 43 43 43 43 43 44 44 44 45 46 47 47 48 48 49 49 49 50 50 51 50 49 48 46 44 41 38 36 36 37 35 33 30 29 27 26 26 27 28 28
44 44 44 44 45 45 45 45 46 46 47 48 49 49 49 50 51 51 51 52 52 53 52 51 50 48 45 43 39 36 35 36 37 34 31 30 28 27 26 27 28 29
44 44 44 44 45 45 46 47 47 48 48 49 50 51 51 52 52 53 53 53 54 54 54 53 51 49 47 44 42 38 35 35 37 36 33 31 29 28 27 28 28 29
44 44 44 44 45 46 46 47 48 49 49 50 51 52 52 53 53 54 54 54 54 54 54 54 53 51 49 46 43 41 37 35 36 37 35 32 31 29 28 29 30 30
44 45 45 46 47 47 48 49 50 51 51 52 52 53 54 54 54 55 55 55 55 55 55 55 54 53 51 49 45 43 39 37 37 38 37 34 32 31 29 30 31 32
44 45 46 47 48 49 50 51 52 53 54 54 55 56 56 57 57 58 58 57 57 57 57 56 56 55 54 52 49 46 43 39 37 38 39 37 34 33 31 30 31 32
43 44 45 46 47 48 49 50 51 52 54 55 56 57 57 58 58 59 60 60 60 60 60 59 59 58 56 54 52 49 46 43 40 40 40 40 37 35 33 32 31 31
41 42 43 44 45 46 47 49 50 52 53 54 55 57 57 58 59 59 59 60 61 61 61 61 61 60 59 57 54 50 47 45 43 42 42 42 40 37 36 35 33 32

ECMWFNIL_500_spd_072.txt.gz
Wind_Speed
28 29 29 30 31 31 31 31 30 31 31 32 33 34 35 35 35 35 35 35 34 32 30 28 27 27 28 29 29 29 29 29 30 31 31 32 32 35 37 37 37 36
29 30 30 31 32 33 33 33 32 32 33 33 34 35 36 37 37 37 36 35 35 33 30 28 28 28 29 30 30 30 31 30 31 32 33 34 34 35 37 38 37 36
31 31 32 32 33 33 34 34 34 34 34 35 36 37 38 38 38 38 37 36 35 34 32 30 29 29 30 30 31 31 32 32 32 33 34 35 36 36 37 37 36 36
33 33 33 33 34 34 34 35 35 36 35 36 37 38 39 39 39 39 38 37 37 35 33 32 30 30 31 31 32 32 33 33 33 34 35 36 37 37 37 37 36 35
35 35 35 35 35 35 36 36 37 37 37 38 39 39 40 41 41 40 40 39 38 37 35 33 32 32 31 31 32 33 33 34 35 35 35 36 37 37 37 37 35 33
37 36 36 36 36 37 37 37 38 38 39 40 40 41 41 42 42 42 41 40 40 38 37 35 34 33 33 32 32 33 34 34 35 36 36 36 36 36 37 37 35 32
39 39 38 38 38 38 38 38 38 39 39 40 41 42 42 43 43 43 42 42 41 40 38 37 36 34 34 34 33 34 34 34 35 36 36 36 36 36 35 36 34 31
41 41 41 40 40 40 39 39 39 39 40 41 42 43 43 44 44 44 43 43 42 41 40 38 37 36 35 35 34 35 35 35 35 35 36 36 35 35 34 34 33 31
43 43 43 43 42 41 40 40 40 40 41 41 42 43 44 44 44 44 44 43 43 42 41 40 39 38 37 36 36 36 35 35 35 35 35 35 34 34 34 34 33 31
44 45 45 45 44 42 41 42 42 42 42 42 42 43 44 44 44 44 44 44 44 43 42 41 40 40 40 40 39 38 37 36 35 35 35 35 34 34 34 33 33 31
46 46 46 45 44 43 43 43 43 43 43 42 43 43 43 44 44 44 44 44 44 44 43 43 42 42 42 42 41 40 38 37 36 34 34 35 34 34 34 33 33 31
47 47 46 45 44 44 44 44 44 43 43 42 42 42 43 44 44 44 45 45 44 44 44 44 44 43 42 42 41 40 39 37 36 34 34 34 34 34 34 33 33 32
47 46 46 45 45 45 45 44 44 43 42 42 42 42 42 43 44 44 44 45 45 45 44 44 44 43 42 41 40 39 39 37 36 35 34 33 33 34 34 33 32 31
46 46 45 45 45 45 44 43 42 42 42 41 42 42 42 43 43 44 44 45 45 45 44 44 44 43 42 42 41 40 40 38 37 36 35 34 33 33 34 33 31 31
45 45 45 45 44 44 43 42 42 42 42 42 42 43 43 43 44 44 44 45 45 45 45 45 45 44 43 43 42 41 42 41 39 38 36 36 34 33 33 33 32 31
44 44 44 44 44 43 42 42 42 43 43 44 44 44 44 44 45 45 45 45 46 46 47 47 46 46 45 45 44 43 43 43 42 40 38 37 36 34 33 33 32 31
43 43 43 43 43 42 42 42 43 45 46 46 46 46 46 46 47 47 47 47 47 48 48 48 48 48 48 47 47 46 45 45 44 42 40 38 37 35 33 34 34 32
42 41 42 42 42 42 43 44 46 47 47 47 47 47 47 47 48 49 49 49 50 50 50 50 51 51 50 50 50 49 48 47 46 45 42 40 38 36 34 34 35 34
41 41 41 42 42 44 45 46 47 47 47 47 48 48 48 48 49 49 50 51 52 52 53 53 53 53 53 53 52 52 50 49 48 47 45 43 41 39 36 34 35 35
41 42 43 44 45 46 47 47 47 47 48 48 49 50 51 51 52 52 52 53 54 54 55 55 55 55 55 55 55 54 53 52 50 49 47 45 43 41 38 35 35 36
42 43 44 45 46 46 46 47 47 48 49 50 51 52 53 54 55 56 56 56 57 58 58 58 58 58 58 57 57 56 56 55 53 51 50 47 45 42 40 37 35 36
42 43 43 44 45 45 46 47 48 49 50 51 52 53 54 55 56 57 58 59 59 60 60 61 61 61 61 61 60 59 58 58 57 55 52 50 47 44 42 39 36 36
40 41 42 43 44 45 46 47 48 49 49 50 51 52 52 53 54 55 56 57 58 59 60 61 62 62 63 63 63 62 61 60 59 58 56 53 50 47 44 42 39 37
40 41 42 43 44 44 45 45 46 46 47 48 49 49 50 52 53 53 54 55 56 57 58 60 60 61 61 62 63 63 63 62 61 60 59 56 53 49 46 44 42 39
39 40 40 41 41 41 42 42 43 44 45 46 47 48 49 50 51 52 53 54 55 55 56 58 59 60 60 61 62 62 63 63 62 61 60 58 55 52 48 45 44 42
37 37 37 37 38 38 39 40 41 42 43 44 44 45 46 47 48 49 51 52 53 54 54 55 56 58 59 59 60 60 61 62 62 61 60 59 56 53 49 46 45 44

ECMWFNIL_500_spd_078.txt.gz
Wind_Speed
32 32 32 33 34 35 35 36 36 36 35 35 35 35 35 35 35 35 35 35 35 35 35 34 33 33 33 33 34 35 35 35 36 36 37 37 37 37 37 37 37 38
33 34 34 34 35 36 37 38 38 38 38 38 38 38 38 38 37 36 36 36 36 36 36 35 34 34 33 34 35 36 37 37 38 38 38 39 39 38 38 38 38 38
35 35 35 35 36 37 39 39 40 40 40 41 41 40 40 40 39 38 37 37 37 36 36 36 35 35 35 35 36 38 39 39 40 40 41 41 41 40 40 39 38 38
36 36 36 36 37 38 40 41 41 42 43 43 43 43 42 42 41 40 39 39 38 38 37 37 37 36 36 37 38 39 40 41 41 42 42 43 43 43 42 41 39 39
37 37 37 38 38 40 41 42 43 44 45 45 44 45 45 44 43 41 41 41 40 40 39 39 39 39 39 39 40 41 41 42 42 42 43 44 44 44 43 42 40 39
38 38 38 39 40 41 42 43 44 45 45 45 46 47 46 45 44 43 43 42 42 41 41 41 41 41 42 42 42 42 43 43 43 43 43 44 44 44 44 43 41 40
39 39 40 40 41 42 43 44 45 45 45 46 47 48 47 47 46 45 45 44 43 43 42 42 42 42 42 43 43 44 44 44 43 43 43 43 43 43 43 42 41 40
40 40 40 41 42 43 44 44 45 45 46 47 48 48 48 48 48 47 46 45 44 44 43 43 42 42 42 42 43 44 44 44 44 43 43 43 43 42 42 41 41 40
40 40 41 42 43 43 44 44 45 46 47 48 48 49 49 49 49 48 47 46 45 44 43 43 42 42 42 42 42 43 43 44 44 43 43 42 42 42 42 42 41 40
40 41 42 42 43 44 44 45 46 47 48 48 49 49 50 49 48 47 46 46 45 43 42 42 41 40 41 42 43 43 43 43 43 43 43 43 43 43 43 42 42 41
41 42 42 43 44 45 45 46 47 48 48 49 50 50 49 48 47 46 45 44 43 42 41 41 41 41 43 44 44 44 43 43 43 42 43 43 44 44 43 43 43 42
41 42 43 44 45 46 46 47 47 48 49 49 49 49 48 47 46 45 43 43 42 42 43 43 44 45 45 45 45 44 44 44 44 44 44 44 44 44 44 44 44 44
42 43 44 45 46 46 47 47 48 48 49 49 48 47 46 44 43 43 43 44 44 45 45 45 45 45 45 46 46 47 47 47 48 48 48 48 47 47 47 46 46 45
43 44 45 45 46 46 47 47 48 48 47 47 46 44 43 43 43 44 45 45 45 45 45 45 46 46 47 47 48 48 48 49 49 49 49 50 50 50 50 49 49 48
42 43 44 45 45 46 46 46 47 46 45 44 43 42 43 44 44 44 44 45 45 46 47 48 48 49 49 49 48 48 48 48 48 48 48 49 49 50 50 51 51 51
41 42 43 44 44 45 45 45 44 44 43 42 42 43 43 43 43 43 44 45 46 48 48 49 49 50 50 50 50 49 49 49 48 48 48 48 48 48 49 50 51 51
40 41 42 42 43 43 43 42 41 41 41 42 42 42 42 42 43 44 46 47 47 48 48 48 49 49 50 50 51 51 51 50 50 50 49 48 48 48 48 48 49 50
40 40 41 41 41 41 40 40 40 40 41 40 40 41 42 43 45 45 46 46 46 47 47 48 48 49 50 50 51 51 51 52 52 52 52 51 51 50 49 49 49 49
38 39 39 39 38 38 38 39 39 39 39 39 40 42 43 44 44 44 44 45 45 46 47 47 48 49 49 50 51 51 52 52 53 54 54 54 54 53 52 51 51 50
37 37 37 37 37 37 38 38 38 38 38 39 41 42 42 42 43 43 43 44 45 46 47 47 48 49 50 50 51 52 52 53 53 54 55 55 55 55 55 54 53 52
35 35 35 36 36 37 36 36 37 37 38 39 40 40 40 40 41 42 43 45 46 47 47 48 49 49 50 51 51 52 52 52 53 53 54 55 56 57 58 57 57 56
34 35 35 36 35 35 35 35 36 37 37 38 38 38 39 40 41 43 44 45 46 47 48 49 49 50 51 51 51 52 52 52 53 53 54 56 57 58 60 61 61 60
35 35 35 34 34 34 34 35 35 36 36 36 37 38 39 40 42 43 44 45 46 47 48 49 50 50 51 51 51 52 52 52 53 54 55 56 58 60 61 63 64 63
35 34 33 33 33 33 34 34 34 34 34 35 37 38 40 41 42 43 44 45 46 47 48 49 50 50 51 51 51 51 51 52 53 54 56 57 59 61 63 63 64 64
33 32 32 32 32 32 32 32 32 33 34 36 37 39 40 41 42 43 43 44 46 47 48 49 49 50 50 50 51 51 51 53 54 55 57 59 60 62 63 61 59 57
31 31 31 31 30 30 30 31 32 33 35 37 38 39 40 40 41 42 43 44 45 46 48 48 49 49 49 50 50 51 52 54 55 57 58 61 63 63 60 56 52 49

ECMWFNIL_500_spd_081.txt.gz
Wind_Speed
28 29 29 30 30 31 31 32 32 34 35 36 38 39 40 41 40 41 41 41 40 40 40 40 40 39 38 38 37 37 37 37 37 37 37 37 37 37 38 38 39 40
29 30 31 31 32 33 33 33 34 35 37 38 39 40 41 42 42 43 43 43 42 42 42 42 41 40 39 38 38 37 37 36 37 37 37 37 38 38 39 39 40 41
30 31 32 33 34 34 35 35 36 37 38 39 40 41 42 43 43 44 45 45 44 43 43 43 42 41 40 39 38 38 37 37 37 37 37 38 38 38 38 39 40 41
31 32 33 34 35 35 36 36 37 38 39 40 41 42 43 44 45 46 46 46 45 45 45 45 43 42 41 40 39 39 38 38 38 38 38 38 38 38 38 39 40 40
31 32 33 34 36 36 37 38 38 39 40 41 42 43 44 45 46 46 46 46 46 47 47 46 44 43 42 41 40 40 40 39 39 39 39 39 39 39 39 39 39 40
31 32 33 35 36 37 38 39 39 40 41 42 43 44 45 46 46 47 47 47 47 47 47 46 44 43 42 42 41 41 41 40 40 39 39 39 39 40 40 40 40 41
33 33 34 35 36 37 38 39 40 41 42 43 44 45 46 47 47 48 48 48 48 48 47 45 44 44 43 42 42 41 41 40 40 40 40 40 41 41 42 42 42 42
34 34 34 35 35 36 37 39 40 42 43 44 45 46 47 48 49 49 49 49 49 48 47 46 45 44 43 42 41 41 41 41 41 41 42 43 43 43 43 43 43 43
34 34 34 34 35 36 37 39 41 42 44 45 46 47 48 49 49 50 49 49 48 48 47 47 46 44 44 43 42 42 42 42 42 43 43 44 44 44 44 44 44 44
33 33 33 34 35 37 38 40 41 43 44 46 47 48 49 49 49 49 49 48 48 48 47 46 46 45 45 45 44 44 43 43 44 44 45 45 45 46 46 46 46 46
32 33 34 35 36 37 39 40 42 43 45 46 47 48 48 49 48 48 48 48 47 47 46 46 46 46 45 45 45 44 45 45 46 47 48 48 48 48 49 48 48 48
32 33 34 35 36 38 39 41 42 44 45 46 46 47 47 47 47 47 47 46 46 46 46 46 45 45 45 45 45 46 47 47 48 48 49 49 49 49 50 50 50 50
32 33 34 36 37 38 39 41 42 43 44 45 45 45 46 46 46 45 45 45 45 45 45 45 44 45 46 46 47 47 48 48 48 48 48 49 49 49 50 50 50 51
32 34 35 36 37 38 39 40 41 42 42 43 43 44 44 44 44 44 44 44 44 44 44 45 45 46 46 47 47 47 48 48 48 49 48 48 49 49 49 50 50 50
33 34 35 36 37 38 39 39 39 40 41 41 42 42 42 42 42 43 43 43 44 44 45 45 46 47 47 46 47 47 48 49 49 49 49 48 48 48 48 48 49 49
33 34 35 36 36 36 37 37 38 39 39 40 40 40 40 41 41 42 42 42 43 44 45 46 46 46 47 47 47 48 48 48 48 48 48 48 48 48 48 48 49 49
32 33 34 34 34 35 35 36 37 38 38 38 38 39 39 40 40 41 41 42 43 44 44 45 45 46 47 47 48 48 48 48 48 48 48 48 48 49 49 49 49 50
31 32 32 33 34 34 35 36 36 36 37 37 38 39 39 40 40 41 41 42 42 43 43 44 45 46 46 47 47 48 48 48 48 48 49 49 49 49 50 50 50 51
31 31 32 33 34 34 35 35 35 36 37 38 38 38 39 39 40 40 40 41 41 42 43 44 45 45 46 46 46 47 48 48 49 49 49 50 50 50 50 50 50 51
30 31 32 33 33 34 34 35 35 36 37 37 37 38 38 39 39 39 40 40 41 42 43 43 44 44 44 45 46 47 47 48 49 49 50 50 50 50 51 51 52 52
31 32 32 33 33 34 34 35 35 36 36 36 37 37 37 37 38 39 39 40 41 42 42 42 42 43 44 45 46 47 47 48 49 49 50 50 50 51 51 52 53 55
31 32 32 33 33 34 34 34 35 35 35 35 35 35 36 37 38 39 39 40 40 41 41 41 42 43 44 45 45 46 47 48 48 48 49 49 50 51 53 54 56 57
31 32 33 33 33 34 34 34 34 34 34 34 34 35 36 36 37 38 39 39 39 39 40 40 41 43 44 45 46 46 46 47 47 47 48 49 51 52 54 56 58 60
32 32 33 33 33 33 33 33 33 33 33 33 34 34 35 36 37 37 37 37 37 38 39 40 42 43 44 45 46 46 46 46 47 47 48 50 52 54 56 57 60 62
32 32 32 32 32 32 33 32 32 32 32 32 33 34 35 36 36 36 35 36 36 38 39 40 42 43 44 45 46 46 46 47 47 47 49 50 52 54 56 58 61 62
31 31 31 31 31 31 31 31 30 31 31 32 33 34 34 34 34 34 34 35 36 37 39 41 42 43 44 45 46 46 46 46 47 48 49 51 53 55 57 60 62 61

ECMWFNIL_500_spd_084.txt.gz
Wind_Speed
24 25 25 26 26 27 28 28 28 29 30 31 31 32 33 34 35 36 38 39 40 41 41 42 43 43 43 43 42 42 42 41 40 39 39 39 39 39 39 39 40 40
25 25 26 27 28 29 29 30 30 31 31 32 33 34 34 35 36 37 39 40 41 42 43 44 44 44 44 44 44 44 43 42 41 40 39 39 39 39 39 39 40 40
25 25 26 27 28 29 30 31 31 32 33 34 34 35 36 37 38 39 40 41 42 44 44 45 46 46 46 46 46 45 44 43 41 41 40 39 39 39 39 40 40 40
24 25 26 28 29 30 31 32 32 33 34 35 36 37 37 38 39 39 41 42 44 45 46 46 47 47 47 47 46 45 44 43 43 42 42 41 41 40 41 41 41 41
28 29 30 30 31 32 33 33 34 35 35 36 37 37 38 38 39 40 42 43 44 46 47 48 48 48 48 47 46 45 44 44 44 44 43 43 43 43 43 43 43 43
33 33 33 33 33 33 34 35 35 36 36 37 37 37 37 38 39 41 43 44 45 47 48 49 49 49 48 47 46 46 45 45 45 45 45 45 45 45 45 45 45 45
33 34 34 34 34 34 34 35 36 36 36 36 36 37 37 38 40 42 43 45 46 48 48 49 49 48 47 47 46 46 46 46 46 46 46 46 46 46 46 46 46 46
32 33 33 33 33 33 34 34 35 35 35 36 36 37 38 39 41 42 44 46 47 48 48 48 47 47 46 46 46 46 46 46 47 47 47 47 47 46 47 47 47 47
31 32 32 32 31 32 32 33 34 34 35 36 36 37 38 40 42 43 45 46 47 47 46 46 45 45 45 46 46 46 47 47 47 47 47 47 48 48 48 49 49 49
31 31 31 31 31 31 31 32 33 34 35 35 36 37 39 41 42 43 44 45 45 44 44 44 45 45 45 45 46 46 47 47 47 48 48 49 49 50 50 50 50 51
29 30 30 30 31 31 32 32 33 34 35 35 36 37 39 40 41 42 42 43 43 43 43 44 44 45 45 46 47 47 47 48 49 49 50 50 51 51 51 51 51 52
28 29 29 29 30 31 32 32 33 33 34 35 36 37 38 39 40 40 41 41 42 42 43 44 45 45 46 47 48 49 49 50 50 51 51 51 51 51 52 52 53 53
27 28 29 30 30 31 31 32 32 33 34 35 36 36 37 38 38 39 40 41 42 43 43 44 45 46 47 48 49 50 50 51 51 51 51 51 52 52 52 52 52 53
29 30 31 31 31 31 31 31 32 32 33 34 35 35 36 37 38 39 40 41 42 43 44 45 46 47 47 49 49 50 51 51 51 51 51 52 52 52 52 52 52 52
32 33 33 33 32 32 31 31 31 32 33 33 34 35 36 37 38 39 40 42 43 44 45 45 46 47 48 49 49 50 50 50 51 51 51 51 51 51 51 51 51 52
33 33 33 33 32 31 31 31 31 31 32 33 34 35 36 37 39 40 41 42 43 44 45 46 47 48 48 49 49 49 49 50 50 50 50 50 50 50 50 50 51 51
32 33 32 32 31 30 30 30 30 31 32 33 34 36 37 38 39 40 41 42 43 44 45 46 47 47 48 48 48 49 49 49 49 49 49 49 48 49 48 48 49 49
32 32 31 30 29 29 29 29 30 31 32 34 35 36 37 39 40 40 41 42 43 44 45 45 46 46 47 47 48 48 48 48 48 48 48 48 48 47 47 47 48 48
31 30 29 28 28 28 28 29 30 32 33 34 36 37 38 38 39 40 41 42 43 43 44 44 45 45 46 47 47 47 47 46 47 47 47 47 47 47 47 47 47 48
28 28 27 27 27 28 29 30 31 32 34 35 36 37 37 38 39 40 41 41 42 42 43 43 44 45 45 45 45 45 45 45 46 46 46 46 46 46 46 47 48 49
27 27 27 27 28 29 30 31 32 34 35 35 36 36 37 38 39 40 40 40 41 41 42 43 43 43 43 43 43 43 44 44 45 45 45 45 45 46 46 47 48 49
27 27 28 28 28 29 30 32 33 34 35 35 36 37 38 38 39 39 39 39 40 41 41 42 42 41 41 41 42 42 43 44 44 43 43 44 44 45 46 47 49 50
27 28 28 28 29 30 32 33 34 34 34 35 36 37 37 38 38 38 38 39 40 40 40 40 40 40 40 40 41 42 43 42 42 42 42 43 44 45 46 48 49 51
28 28 28 28 30 31 33 33 33 33 34 35 35 36 36 36 36 37 38 38 39 39 39 38 38 38 39 40 41 42 41 41 41 41 42 43 44 45 47 48 50 52
28 28 28 29 31 32 32 32 32 33 34 34 35 35 35 35 36 36 37 37 37 37 36 36 37 38 39 41 41 41 40 40 41 42 43 44 45 45 46 48 50 53
27 28 29 30 31 31 31 31 32 32 33 33 33 33 34 34 35 36 36 36 35 34 34 35 36 38 40 40 40 40 39 40 41 42 43 44 45 45 47 48 51 54

ECMWFNIL_500_spd_087.txt.gz
Wind_Speed
21 22 23 24 24 24 24 24 24 25 25 26 27 28 29 31 32 33 34 35 35 36 37 38 39 39 40 41 42 43 44 45 45 46 46 46 45 45 44 44 44 44
22 22 23 23 23 23 24 24 25 25 26 28 29 30 32 33 34 35 36 36 37 38 38 39 40 40 41 42 43 44 45 46 47 47 47 47 46 45 45 45 45 45
22 22 23 23 24 24 25 27 28 29 30 31 32 33 34 35 36 37 37 38 38 39 39 40 40 41 42 43 44 46 47 48 48 48 48 47 46 46 46 45 45 45
21 23 24 25 27 28 30 31 33 34 35 35 35 35 36 37 37 38 39 39 40 40 40 40 41 42 43 44 46 47 48 49 49 49 48 48 47 47 47 46 46 45
23 25 26 28 29 30 32 34 35 36 37 37 36 36 37 38 38 39 39 40 40 40 41 41 42 43 44 46 47 48 49 49 49 49 48 48 48 48 47 47 47 46
25 27 28 29 31 32 33 34 34 35 35 35 35 36 37 38 38 39 39 40 40 40 41 42 43 44 45 47 48 49 49 48 49 49 49 49 48 48 48 48 48 48
27 28 29 30 32 33 34 34 34 34 34 34 34 35 36 37 38 38 39 40 40 41 41 42 44 45 46 47 48 48 48 48 48 48 48 48 48 49 49 50 50 51
28 29 30 31 32 33 34 34 34 33 33 33 34 34 35 36 37 38 39 39 40 41 42 43 44 45 46 46 46 47 47 47 47 48 48 48 49 50 51 51 52 52
28 29 30 31 32 32 32 32 32 32 33 33 34 35 35 36 37 38 39 39 40 41 42 43 43 44 45 45 46 46 47 47 47 47 48 49 50 51 52 53 53 54
28 29 30 31 31 31 30 30 31 31 32 33 34 35 36 36 37 38 38 39 40 40 41 42 43 44 45 45 45 46 46 47 47 48 49 50 51 52 53 54 55 55
28 29 30 30 30 30 30 30 30 31 32 33 34 35 36 36 37 37 38 38 39 40 41 42 43 43 44 45 45 46 46 47 48 49 50 51 52 53 54 55 55 55
29 30 30 30 30 30 30 31 32 33 33 34 34 35 35 35 36 37 37 38 39 40 41 42 42 43 44 44 45 46 47 48 49 50 52 52 53 54 54 54 55 55
31 31 31 31 31 32 33 33 34 34 35 35 35 35 35 35 36 36 37 38 39 40 40 41 42 43 44 44 45 46 47 49 50 51 52 53 53 54 54 54 55 55
32 32 31 32 33 33 33 34 34 34 35 35 34 35 35 35 35 36 37 37 38 39 40 41 42 43 44 45 46 47 49 50 51 51 52 52 53 53 54 54 54 54
32 32 32 32 32 32 32 33 33 33 33 34 33 33 33 34 34 35 36 37 38 39 40 41 42 43 44 45 47 48 49 50 50 51 51 52 52 53 53 53 53 54
32 32 32 32 31 32 32 33 33 32 32 32 32 32 32 33 34 35 36 37 39 40 41 42 43 44 45 46 47 48 49 49 50 51 51 51 51 51 51 52 52 53
32 32 32 32 31 32 33 32 32 31 30 30 31 31 32 33 34 36 37 39 40 41 42 43 44 45 46 47 47 48 49 49 50 50 50 50 50 50 51 51 52 52
33 32 32 32 32 32 32 31 30 30 30 30 31 32 33 34 35 37 39 40 40 41 42 43 45 45 46 47 47 48 49 49 49 49 49 49 50 50 51 51 51 50
32 32 31 32 32 31 30 29 29 30 30 31 32 32 33 35 37 39 39 40 41 42 43 44 45 45 46 47 47 48 48 48 48 48 49 49 50 50 50 49 48 48
31 31 31 31 31 30 29 29 30 30 31 32 32 33 35 37 38 39 40 41 42 42 43 44 44 45 45 46 47 47 47 47 47 47 48 49 49 49 48 47 47 47
31 31 31 31 30 30 30 30 31 31 31 31 32 34 36 38 39 40 41 41 41 42 42 43 43 44 45 45 45 45 45 45 46 47 48 48 47 46 45 45 46 47
31 31 31 31 31 30 30 30 31 31 31 32 34 36 37 39 39 40 40 40 41 41 41 42 42 43 43 43 43 43 43 44 45 46 46 45 44 44 44 45 46 47
32 32 32 31 31 30 30 30 31 31 32 33 36 37 38 39 39 39 39 40 40 40 41 41 42 42 41 41 41 41 42 44 45 44 43 42 42 43 44 44 45 46
33 33 32 31 30 30 30 30 31 31 33 35 37 38 38 38 38 38 38 39 39 39 40 40 40 40 39 39 39 41 42 43 43 42 40 40 41 42 43 44 45 45
33 32 31 30 30 30 30 30 31 32 34 36 37 37 37 37 37 37 37 37 38 38 39 39 38 37 37 38 39 40 42 42 41 39 39 40 41 41 42 44 45 45
32 31 30 30 30 30 30 31 31 33 35 36 36 36 36 36 36 36 36 37 37 38 38 37 36 35 36 37 39 40 41 40 38 38 38 39 40 41 42 43 44 45

ECMWFNIL_500_spd_090.txt.gz
Wind_Speed
18 19 20 20 20 20 21 22 23 24 25 25 26 27 28 30 32 33 34 36 37 39 40 41 41 42 42 42 42 42 42 43 43 43 44 45 45 46 46 47 46 46
20 20 21 21 21 22 22 23 24 26 27 28 29 30 32 34 35 37 38 40 41 41 42 42 42 42 43 43 43 43 43 43 44 44 45 46 47 47 47 47 47 47
21 21 22 23 23 24 25 26 27 28 29 31 32 34 35 37 38 39 40 41 41 42 42 42 42 42 43 43 43 43 43 44 44 45 46 47 47 47 47 47 48 48
20 21 22 23 24 26 27 28 29 30 32 33 35 36 38 39 40 41 41 41 41 41 41 41 41 42 42 43 43 43 44 45 45 46 46 47 47 47 48 48 49 49
21 22 23 25 26 27 29 30 31 33 34 35 37 38 39 40 41 41 42 42 41 41 41 41 41 42 42 43 44 44 45 45 46 46 46 47 48 48 49 49 49 50
23 24 25 27 28 29 31 32 33 34 35 36 37 38 39 39 40 40 40 40 40 40 40 41 42 42 43 44 44 44 45 45 46 46 47 47 48 48 49 49 50 50
24 25 27 28 30 31 32 33 34 35 36 36 37 37 38 38 38 38 38 38 39 39 40 41 42 43 43 43 44 44 45 45 46 46 47 48 48 49 49 50 50 51
26 28 29 31 32 33 34 34 35 35 36 36 37 37 37 37 36 36 37 37 38 39 40 41 41 42 42 43 43 44 44 45 45 46 47 47 48 49 49 50 51 51
29 30 32 33 33 34 34 34 35 35 36 36 36 36 36 36 36 36 37 38 39 40 40 41 41 42 42 43 43 43 44 44 45 46 47 47 48 49 50 51 51 52
31 32 33 33 33 34 34 34 35 35 36 36 36 36 36 37 37 38 39 40 40 41 41 41 41 41 41 42 42 43 43 44 45 46 47 48 49 50 51 52 52 53
32 33 34 33 33 33 34 34 35 35 36 36 36 37 37 38 38 39 39 39 39 40 40 40 40 40 40 41 41 42 43 44 46 47 48 49 50 51 52 53 54 54
34 34 34 33 33 33 34 34 35 35 36 36 36 37 37 37 38 38 38 38 38 38 38 38 38 39 39 41 42 43 44 46 47 48 49 50 51 52 53 54 55 55
34 34 33 33 33 33 34 35 35 36 36 36 36 36 36 36 37 37 36 36 36 36 37 37 38 39 40 42 43 44 46 47 48 49 50 51 52 53 53 54 54 55
34 33 33 33 33 34 34 35 36 36 36 36 36 36 36 36 36 35 35 35 35 36 36 37 38 40 42 43 45 46 47 48 49 50 51 51 52 53 53 54 54 54
34 33 34 34 34 34 35 35 36 36 36 36 35 35 35 35 34 34 34 34 35 35 36 38 40 42 43 45 46 47 48 49 49 50 50 51 52 52 53 53 53 53
34 34 34 34 34 34 35 35 36 36 35 35 35 35 34 33 33 33 34 35 35 35 37 39 41 43 44 46 47 47 48 48 49 49 50 50 51 51 51 51 52 52
34 35 35 35 34 34 35 35 35 35 34 34 34 34 33 33 33 33 34 34 34 36 38 41 43 44 45 46 47 47 47 48 48 49 49 50 50 50 50 51 52 52
35 35 35 34 34 35 35 35 35 34 34 34 34 34 33 33 33 34 34 34 35 38 40 42 44 45 46 46 46 46 47 47 48 49 49 49 49 50 50 51 51 51
35 35 34 34 34 34 35 34 34 34 34 34 34 34 34 34 34 34 34 34 37 39 41 43 44 45 45 45 45 46 47 47 48 48 48 48 49 49 50 51 50 49
35 34 34 34 34 34 34 34 34 35 35 35 35 34 34 34 34 34 34 35 38 41 42 43 44 44 44 44 45 45 46 47 47 47 47 48 48 49 49 49 48 47
34 33 33 34 34 34 34 35 35 36 36 35 35 35 35 35 34 34 34 37 39 41 42 43 43 43 43 44 44 45 45 45 46 46 47 47 48 48 47 46 46 45
33 33 33 33 34 34 34 35 35 36 36 35 35 35 35 34 34 34 35 38 40 41 41 41 42 42 43 43 43 44 44 45 45 45 46 47 47 46 44 44 44 44
32 32 33 33 33 34 34 35 36 36 35 35 35 35 35 34 34 34 36 39 40 40 40 40 41 41 42 42 42 43 43 43 44 45 46 46 45 43 42 42 42 42
32 32 33 33 34 34 35 35 36 35 35 35 35 35 35 34 34 35 37 39 39 39 39 39 40 40 40 41 41 41 42 42 43 44 44 43 42 41 41 41 41 42
33 34 34 34 35 35 35 35 36 35 35 35 35 35 35 35 35 36 38 39 38 38 38 38 38 39 39 40 40 40 41 42 43 43 42 40 40 40 40 40 40 41
34 35 35 36 36 36 36 36 36 36 35 35 35 35 35 35 35 36 37 37 36 36 37 37 37 38 38 38 38 39 39 40 41 40 38 38 38 39 38 39 40 41

ECMWFNIL_500_spd_093.txt.gz
Wind_Speed
14 15 15 16 16 16 16 16 17 18 19 20 21 23 24 26 28 30 31 33 34 35 37 38 39 39 40 40 40 40 40 41 41 41 42 43 43 44 44 45 45 46
15 16 16 16 17 17 17 17 19 20 20 22 23 25 27 29 31 32 34 35 36 37 38 39 39 39 39 39 39 40 40 41 41 42 42 43 44 44 45 46 46 47
16 16 16 17 17 17 18 19 20 21 22 24 26 28 30 32 33 34 35 36 37 38 38 38 38 38 38 39 39 40 40 41 41 42 43 43 44 45 46 46 47 47
16 16 16 17 17 18 19 21 22 24 25 27 29 31 32 34 35 36 36 37 37 38 38 38 37 38 38 38 39 40 40 41 42 42 43 44 45 46 46 46 46 46
17 17 18 18 19 20 22 23 25 27 28 30 31 32 34 35 36 36 37 38 38 38 38 37 38 38 38 39 40 41 41 42 43 43 44 44 45 45 45 45 46 47
19 20 20 21 22 23 25 26 27 29 30 31 32 34 35 36 37 37 38 38 38 38 38 38 38 38 39 40 40 41 41 42 42 43 43 43 44 44 45 46 47 48
22 22 22 23 24 25 27 28 29 30 31 32 33 35 36 37 37 37 38 38 38 38 38 38 38 39 39 39 39 40 40 40 41 41 42 43 44 45 46 48 50 51
23 23 24 25 26 27 29 30 31 32 33 33 34 35 36 36 37 37 37 37 37 37 37 37 38 38 38 38 38 38 39 39 40 41 42 43 45 47 48 50 51 52
23 24 26 27 28 30 31 32 33 33 34 34 35 35 36 36 37 37 37 37 37 37 36 36 37 37 37 37 37 37 38 39 40 41 43 45 47 49 50 51 52 53
25 27 28 29 31 32 33 34 34 35 35 35 35 36 36 37 37 37 37 36 36 36 36 36 36 36 36 36 37 37 38 39 41 43 45 47 48 50 50 51 52 53
28 29 30 31 33 34 35 35 35 35 35 35 36 36 36 36 37 37 36 36 36 35 36 36 35 35 35 36 36 37 38 40 42 44 46 48 49 50 51 52 53 54
29 31 32 33 34 35 36 36 36 36 36 36 36 36 36 36 37 36 36 35 35 35 35 35 34 35 36 36 36 37 39 42 44 46 47 49 50 52 52 53 54 55
31 33 34 34 36 36 37 37 36 37 36 36 37 36 36 36 36 36 35 34 34 34 34 34 35 36 36 36 36 38 41 43 45 47 49 50 52 53 54 54 55 55
33 35 35 36 37 37 38 37 37 37 37 37 37 36 36 36 35 35 34 34 34 34 34 35 36 37 36 36 37 40 43 45 47 48 50 51 53 53 54 54 54 54
35 36 36 37 38 38 38 37 37 37 38 37 37 36 36 35 35 34 34 34 34 35 36 37 37 37 37 37 39 42 44 46 48 49 51 52 53 53 53 53 52 52
36 37 37 38 38 38 38 37 38 38 38 37 36 36 36 35 34 34 34 34 35 36 37 37 38 37 37 38 41 43 45 47 49 50 52 52 52 52 52 51 51 50
36 37 38 38 38 38 37 37 38 39 38 37 36 36 36 35 35 35 35 36 36 37 38 38 38 38 38 40 42 44 46 48 49 51 52 51 51 50 50 50 49 49
37 37 38 38 38 37 37 38 39 39 38 36 35 35 36 36 35 36 36 37 37 37 38 38 38 38 39 41 43 46 47 48 49 50 50 50 49 48 48 48 48 48
37 37 37 37 37 37 38 39 39 38 37 36 35 36 36 36 36 36 37 37 37 38 38 38 39 39 41 42 45 46 47 48 49 49 48 48 47 46 46 47 47 46
37 37 37 37 37 38 38 39 39 37 36 36 36 36 36 37 37 37 37 37 37 38 38 39 39 40 42 44 46 46 47 47 47 47 46 46 45 45 45 45 44 44
36 36 37 37 38 38 39 39 38 37 36 36 36 36 37 37 37 37 37 37 38 38 39 39 40 41 43 44 45 46 46 46 45 45 44 44 44 44 43 43 42 43
36 36 37 38 38 39 39 38 37 36 36 37 37 37 38 38 37 37 37 38 38 39 39 40 41 42 43 44 44 44 44 44 44 43 43 43 42 41 41 41 41 41
36 37 38 38 39 39 39 38 37 37 37 38 38 38 38 38 38 38 38 38 39 39 40 40 41 42 42 42 42 42 43 42 42 42 41 40 40 39 39 39 40 40
37 37 38 39 39 39 38 37 37 37 38 39 39 39 39 39 38 39 39 38 39 39 40 41 41 41 41 41 41 41 41 41 41 40 39 38 37 37 38 38 38 39
37 38 39 39 39 39 38 37 37 38 39 40 40 40 40 39 39 39 39 39 39 40 40 40 39 39 39 39 39 39 39 39 38 37 36 36 36 36 37 37 38 39
38 38 39 39 39 39 38 38 38 39 40 41 41 41 40 40 41 40 39 39 40 40 39 38 37 37 37 37 37 37 37 36 35 34 34 34 35 35 36 36 37 39

ECMWFNIL_500_spd_096.txt.gz
Wind_Speed
10 12 13 14 15 16 17 17 17 17 18 18 19 19 20 21 23 25 26 28 29 31 32 34 35 36 37 37 37 37 36 36 36 36 36 37 37 38 39 39 40 40
11 13 14 15 16 16 17 17 17 17 18 18 19 20 21 23 25 26 28 29 31 33 34 35 36 37 37 37 37 36 36 36 36 37 37 37 38 38 38 39 39 40
11 13 14 14 15 15 15 16 16 17 18 19 19 21 23 24 26 28 29 31 32 34 35 36 37 37 37 37 37 37 36 36 37 37 37 37 37 37 38 38 39 40
12 12 13 13 13 13 14 15 16 17 18 19 21 23 25 27 28 30 31 32 33 35 36 37 38 38 38 37 37 37 36 36 36 36 37 36 36 37 37 38 40 41
13 13 13 14 14 14 16 17 18 19 20 21 23 25 27 29 30 31 32 33 35 36 38 38 38 38 38 37 37 36 36 36 36 36 36 36 36 37 38 39 40 42
14 15 15 16 16 17 18 19 20 21 23 24 26 27 29 31 32 33 34 35 36 38 38 39 39 38 38 37 36 35 36 36 35 35 35 36 37 38 39 40 41 43
16 17 18 18 18 19 20 21 22 24 25 27 28 30 31 33 34 34 35 36 37 38 39 39 39 38 37 36 35 35 35 35 34 35 36 37 38 38 39 41 43 45
17 18 18 19 19 21 22 23 25 26 27 29 30 32 33 35 35 35 36 37 38 39 39 39 38 37 36 35 35 35 34 34 35 36 37 37 38 39 41 43 45 47
18 18 19 19 21 22 24 25 27 28 29 31 32 34 35 36 36 36 37 38 39 39 39 39 38 36 35 35 34 34 34 35 36 37 38 38 39 41 43 45 47 49
18 19 20 21 22 24 26 27 28 30 31 33 34 35 36 37 37 37 38 38 39 39 39 38 37 35 35 34 34 35 35 36 37 38 38 39 40 42 45 47 49 51
20 20 21 22 24 26 28 29 30 31 33 34 35 36 37 38 38 38 38 39 39 39 38 37 36 35 35 35 35 36 37 38 38 39 40 40 42 44 47 49 51 54
22 23 24 25 26 28 29 31 32 33 34 35 36 37 38 38 38 39 39 39 39 38 37 36 36 35 35 36 36 37 38 39 39 40 41 42 44 46 48 51 54 57
25 26 27 28 29 30 31 32 33 34 35 36 37 38 38 38 39 39 40 39 38 38 37 36 36 36 36 37 37 38 39 39 40 40 42 44 46 48 51 54 56 58
26 28 30 31 32 32 33 34 34 35 35 36 37 38 38 39 40 40 39 38 38 37 37 36 36 37 37 37 38 38 39 40 40 41 43 46 48 50 53 55 56 58
28 30 33 34 34 34 34 35 35 35 36 37 38 38 38 39 40 40 39 38 37 37 37 37 37 37 37 38 38 39 40 41 42 43 45 47 49 51 53 55 56 57
30 32 35 36 35 35 35 35 35 35 37 38 38 38 38 39 40 40 38 38 38 38 38 38 38 38 38 38 39 40 40 41 43 44 46 48 50 51 53 54 55 55
33 34 35 35 35 35 35 35 35 36 37 38 38 38 38 39 40 40 38 38 38 38 38 39 38 38 39 39 40 40 41 42 43 45 47 48 50 51 52 53 54 53
34 35 35 34 34 34 35 35 36 37 37 37 37 37 38 40 40 39 39 39 39 39 39 39 39 39 39 40 40 41 41 43 44 46 47 48 49 50 51 51 50 49
35 35 35 35 35 35 36 37 37 37 37 37 37 37 38 39 40 39 39 39 39 40 40 40 40 40 40 40 41 41 42 43 44 46 47 47 48 49 49 48 47 44
36 36 36 36 36 37 37 38 37 36 36 36 36 37 38 39 39 39 40 40 40 40 40 40 40 40 40 41 41 42 43 44 44 45 45 46 47 47 46 45 43 41
37 37 37 37 37 38 37 37 36 36 36 36 36 37 38 39 39 39 40 40 40 40 40 41 41 41 41 42 43 43 43 43 43 44 44 45 45 44 43 41 39 38
37 36 36 37 37 37 37 36 36 35 35 36 36 37 38 38 38 39 40 41 41 41 42 42 42 41 42 43 44 43 42 42 42 42 43 43 42 41 39 37 36 35
36 36 36 37 37 37 36 36 36 35 35 36 37 37 37 38 38 38 40 41 42 42 42 42 42 42 43 45 43 41 40 40 41 41 42 41 39 37 35 34 33 32
35 36 36 37 37 36 36 36 35 35 35 36 37 37 37 38 38 39 40 41 42 43 43 43 43 43 45 44 40 38 38 39 39 40 39 38 36 34 32 31 30 30
36 36 37 37 37 36 36 35 35 35 36 36 36 37 38 38 39 40 41 42 43 43 43 43 44 44 43 40 37 36 37 37 38 37 36 35 33 31 29 29 28 29
36 36 37 37 37 36 36 35 35 35 36 36 36 37 38 39 40 41 42 42 43 43 44 44 44 42 38 35 34 35 35 35 35 35 34 32 30 28 27 27 27 29

ECMWFNIL_500_spd_099.txt.gz
Wind_Speed
14 13 12 12 13 13 13 13 12 13 14 14 14 15 15 16 18 19 22 24 26 28 29 30 31 32 34 36 37 39 39 40 39 39 39 38 37 37 36 36 36 35
13 12 13 13 13 13 13 13 13 13 14 14 15 16 17 18 20 22 24 26 27 29 30 31 32 34 36 37 39 40 40 40 40 39 38 38 37 37 36 36 35 35
13 13 13 13 12 12 12 12 12 13 14 15 16 17 18 20 21 23 25 27 29 30 31 32 34 35 37 39 40 41 41 41 40 39 38 37 37 36 36 35 35 36
14 14 13 12 12 12 11 11 11 12 14 15 16 18 19 21 22 24 26 28 30 32 33 34 35 37 38 40 41 41 42 41 40 39 37 36 36 35 35 36 37 38
14 14 13 13 13 12 12 12 12 13 14 16 17 19 20 22 24 26 28 30 32 33 35 36 36 38 39 40 41 42 42 41 39 38 37 36 36 36 36 37 38 40
15 15 15 15 14 14 13 13 13 14 15 17 19 21 22 24 26 28 30 32 33 35 36 37 38 39 40 41 42 42 41 40 38 37 36 36 36 37 38 39 40 41
17 17 17 16 16 15 14 14 14 15 17 20 21 22 24 26 28 30 31 33 35 36 37 38 39 40 41 41 42 42 41 39 38 37 37 37 37 38 39 40 41 42
19 18 18 17 16 16 15 15 16 18 20 21 22 24 26 27 29 31 32 34 36 38 39 39 40 41 41 42 42 41 40 39 38 38 38 38 39 39 40 41 42 43
20 19 18 18 17 17 17 17 18 20 22 23 24 26 28 29 31 32 34 36 37 39 40 40 41 41 41 41 41 41 40 39 38 38 39 39 39 40 41 42 43 44
20 20 20 19 19 19 19 19 20 22 23 25 27 29 30 31 32 34 35 37 38 40 40 41 41 41 41 41 41 40 40 39 39 39 39 39 39 40 41 42 43 44
21 21 21 21 22 22 21 22 22 23 25 27 29 31 32 33 34 35 36 38 39 40 40 41 41 41 41 41 40 40 40 39 39 39 39 39 40 40 41 42 44 45
23 23 23 24 24 24 24 24 25 26 27 29 31 33 34 35 35 36 37 38 39 40 40 41 41 41 41 40 40 40 39 39 38 38 39 39 40 41 42 43 45 47
26 26 26 26 26 26 26 26 28 29 30 32 34 35 36 36 36 36 37 38 39 39 40 41 41 41 40 40 40 39 39 38 38 38 39 39 40 41 42 44 46 48
28 28 27 26 26 27 28 29 30 32 33 35 36 37 37 37 36 37 37 38 39 39 40 41 41 41 40 40 40 39 38 38 38 38 38 39 40 42 44 46 47 49
30 29 28 27 27 28 30 32 33 34 36 37 38 38 37 37 36 37 37 38 38 39 39 40 41 40 40 40 39 38 38 38 38 38 39 40 42 43 45 47 48 48
30 30 29 29 29 30 32 34 35 36 37 38 37 37 36 36 36 37 37 37 37 38 39 40 40 40 40 40 39 38 39 39 39 39 40 41 43 45 46 47 47 47
32 31 32 31 32 33 34 35 36 37 37 37 36 36 36 37 37 37 36 36 37 37 38 39 39 40 41 40 39 39 40 39 39 40 42 43 44 45 45 45 46 46
32 33 34 34 34 35 36 37 37 38 37 37 36 36 37 38 37 36 35 35 36 37 37 38 39 40 41 41 40 40 40 40 40 41 43 44 44 44 44 44 44 44
33 34 35 35 36 37 38 38 38 38 38 37 37 38 38 38 37 35 34 35 36 36 37 38 39 40 42 41 41 41 41 41 41 42 43 43 42 42 42 43 43 42
35 36 36 37 38 38 39 39 39 39 39 39 39 39 39 38 36 34 34 35 36 36 37 38 39 41 42 42 42 41 41 41 42 43 42 41 40 41 41 42 41 39
37 38 38 39 40 40 40 40 41 41 41 40 40 39 38 36 35 34 34 35 36 37 37 39 40 41 43 42 41 41 41 41 42 41 39 38 39 40 40 40 38 36
39 39 39 40 41 41 42 42 42 41 41 40 39 38 37 35 34 34 35 36 36 37 38 39 41 42 43 42 40 40 41 40 39 38 36 37 38 38 38 37 35 33
40 40 40 41 42 42 42 41 41 41 40 39 38 37 36 35 34 34 35 36 37 38 39 40 42 43 42 39 39 40 40 38 36 34 34 36 36 37 36 34 32 31
41 41 41 42 42 41 41 40 40 39 39 38 37 36 35 35 35 35 36 36 37 38 38 40 42 42 39 38 39 39 37 35 33 32 33 35 35 35 33 31 30 30
41 42 42 41 41 40 40 39 39 39 39 38 37 36 35 35 35 35 35 36 37 37 38 41 42 38 36 38 38 36 33 31 31 32 33 33 33 32 30 29 29 28
41 41 40 40 39 39 39 38 38 38 38 37 37 36 36 34 34 35 35 36 36 36 39 41 39 36 36 37 36 32 29 29 30 31 32 32 31 30 29 29 28 26

ECMWFNIL_500_spd_102.txt.gz
Wind_Speed
17 17 16 15 15 14 14 14 14 14 15 16 16 16 16 15 14 13 14 15 17 19 22 24 25 27 28 29 31 32 34 35 37 39 40 41 41 41 40 39 37 36
17 16 16 15 15 15 15 14 14 15 16 16 15 15 14 13 13 14 14 16 18 21 23 24 26 28 29 31 32 34 36 37 39 40 41 41 42 41 41 40 38 37
16 16 15 15 15 15 15 14 15 16 16 15 14 14 13 13 14 14 16 18 20 22 24 25 27 29 31 33 34 36 37 39 40 41 41 42 42 42 41 40 39 38
17 16 15 15 15 14 14 15 16 16 16 15 14 14 14 14 14 16 18 20 21 23 25 27 28 30 32 34 36 37 39 40 41 41 42 42 42 42 41 41 40 39
17 16 16 16 15 14 15 16 17 16 15 15 15 14 14 15 16 18 20 21 23 24 26 28 30 32 34 35 37 39 40 41 42 42 43 43 42 42 41 40 40 39
18 17 17 16 15 16 16 16 16 16 16 16 16 16 16 17 19 20 22 23 25 26 28 29 31 33 35 36 38 40 41 42 42 43 43 43 42 42 41 40 39 39
19 18 17 17 17 16 16 16 17 18 18 18 18 18 19 20 21 22 24 25 27 28 30 31 32 34 36 37 39 41 41 42 42 43 43 42 42 41 40 39 39 38
19 18 17 17 17 17 17 17 18 20 20 21 20 20 21 21 23 24 26 27 29 30 32 33 33 35 36 38 40 41 41 42 43 43 42 42 42 41 40 39 39 38
20 19 19 18 18 18 18 20 21 22 22 22 22 21 22 23 25 26 28 30 31 32 33 34 34 35 37 39 40 41 41 42 43 42 42 41 41 40 40 39 38 38
21 20 19 19 19 20 21 22 23 23 24 24 23 23 24 25 27 28 30 31 33 34 35 35 35 36 37 39 40 40 41 42 42 42 41 40 40 40 39 38 38 38
23 22 21 21 21 22 23 24 24 25 26 26 25 26 27 28 29 30 31 33 35 36 35 35 35 36 38 39 39 40 41 42 42 41 41 40 40 40 39 39 38 39
24 24 23 23 23 24 25 26 26 27 28 28 28 29 30 30 31 32 34 35 36 36 35 35 35 37 38 38 38 39 41 42 42 41 41 40 40 41 40 39 39 41
27 27 26 26 26 27 28 28 29 29 29 29 30 31 32 32 32 34 35 36 36 35 35 35 36 37 37 37 38 39 41 42 42 41 41 41 42 41 41 40 41 42
28 28 28 28 28 29 29 29 30 30 31 31 32 33 33 33 34 35 36 36 35 35 34 35 37 37 36 36 37 39 40 41 42 42 42 43 43 43 42 41 42 42
28 29 29 29 30 30 30 30 30 31 32 33 33 34 34 34 35 36 35 35 35 34 35 36 37 36 35 36 38 39 40 41 42 42 43 44 44 43 43 42 41 41
29 30 30 30 31 32 31 31 32 32 33 34 34 34 34 34 35 35 35 35 35 35 36 37 37 36 35 36 38 39 40 41 42 43 44 45 45 44 43 41 40 39
29 30 30 31 32 32 32 33 34 34 33 33 33 34 34 34 35 35 36 36 36 36 37 37 36 35 35 36 38 39 40 41 42 43 45 45 44 44 42 40 38 38
31 31 31 32 33 34 34 35 35 34 34 33 33 34 35 36 36 37 37 37 37 37 37 36 36 35 35 37 38 39 41 41 42 44 45 44 43 43 40 38 36 37
31 32 33 34 35 35 35 35 35 35 35 35 35 36 37 38 38 39 39 39 38 37 36 36 35 35 36 37 38 39 41 41 43 44 43 42 42 41 38 36 36 36
31 32 33 35 36 37 37 37 36 36 36 37 38 38 39 40 41 41 40 39 37 36 36 36 35 36 36 37 38 39 40 41 43 43 41 41 41 38 35 34 35 35
32 32 34 36 37 37 38 38 38 38 38 39 40 41 42 42 42 41 39 38 37 36 36 36 35 36 36 36 38 39 40 41 42 40 40 40 39 35 33 34 34 34
33 33 35 37 37 38 39 39 39 39 40 40 42 43 43 42 41 39 38 37 36 36 36 35 35 35 36 36 37 38 39 40 40 39 39 38 35 33 32 33 33 33
34 34 36 37 38 40 41 40 40 40 41 42 43 43 42 41 39 38 38 37 37 36 36 35 35 35 35 36 37 38 39 39 38 38 38 35 33 31 32 32 32 32
35 36 38 38 40 42 42 41 41 42 42 43 42 41 40 39 39 39 38 38 38 37 36 35 34 34 34 36 37 38 38 38 37 37 35 32 31 30 31 31 31 30
36 37 38 40 41 43 43 42 42 43 42 42 41 40 40 39 39 39 39 39 39 37 35 33 33 33 34 36 37 38 37 37 37 35 32 30 29 29 30 30 29 28
37 39 40 42 43 44 43 42 42 42 42 41 40 40 39 39 39 38 38 39 37 35 33 32 32 33 35 36 37 36 36 36 35 32 30 28 28 28 29 28 27 27

ECMWFNIL_500_spd_105.txt.gz
Wind_Speed
19 19 19 19 18 18 18 18 17 17 17 17 17 17 17 17 17 17 18 18 18 18 18 18 19 20 22 24 25 26 27 28 29 31 33 35 36 37 38 39 40 41
19 19 19 19 19 19 18 18 18 17 17 17 18 18 18 18 18 18 18 18 18 18 18 18 19 21 23 25 26 27 28 29 31 32 35 36 37 38 39 40 41 42
20 19 19 19 19 19 19 19 18 17 17 17 18 18 19 19 18 18 18 18 18 18 18 19 21 23 25 26 27 28 29 30 32 34 36 37 38 39 40 41 42 43
20 19 19 19 19 19 19 19 18 17 17 17 18 18 18 18 18 18 19 19 19 19 20 21 23 24 26 27 28 29 30 32 33 35 37 38 39 40 41 42 43 43
20 19 19 19 19 19 18 18 18 17 17 17 17 17 18 18 19 20 20 20 19 20 21 23 24 26 27 29 30 31 32 33 34 36 38 39 40 41 41 42 43 43
20 19 19 19 19 19 19 18 18 18 17 17 17 17 18 19 20 20 20 20 20 22 23 25 26 27 29 30 32 33 33 34 36 37 39 40 41 41 41 42 42 42
20 20 20 19 19 19 19 19 19 19 18 18 17 17 18 19 19 20 21 21 23 24 25 26 28 29 31 32 33 34 35 35 37 38 40 41 41 41 41 41 41 41
21 21 20 20 19 20 20 21 20 20 19 19 18 18 19 20 20 22 23 24 25 25 27 28 30 31 33 34 34 35 35 36 37 39 41 41 41 41 41 41 41 41
22 21 21 21 21 21 22 21 21 21 20 20 19 19 20 21 23 24 25 26 26 27 29 30 32 33 34 35 35 35 35 36 38 40 41 40 40 41 41 41 41 41
22 22 22 23 23 23 23 22 22 22 22 21 21 22 23 23 24 26 27 28 28 30 31 33 34 35 35 35 35 35 36 37 38 40 40 39 40 41 41 42 42 43
23 23 24 25 25 25 24 23 23 23 23 23 23 24 24 25 27 28 29 30 31 32 34 34 35 35 35 35 35 35 36 37 39 40 39 39 40 41 42 42 43 44
25 25 25 26 26 26 25 25 25 25 25 25 25 25 26 28 30 30 31 32 33 34 35 35 36 36 35 35 35 36 36 38 39 39 39 39 40 41 42 43 44 45
24 25 25 26 27 27 27 27 27 27 27 27 27 28 29 31 31 32 32 33 34 35 36 36 36 35 35 35 35 36 37 38 39 39 39 39 40 41 42 43 45 46
23 24 25 26 27 28 29 29 29 29 29 30 30 31 31 32 33 34 35 35 35 36 36 35 34 34 35 36 36 37 37 38 38 39 39 39 40 41 42 43 45 46
23 24 25 26 27 28 29 30 30 31 31 32 32 32 32 33 35 36 36 36 36 35 34 33 33 34 35 37 37 38 38 38 38 38 38 39 40 41 42 44 45 46
24 25 26 27 27 28 29 30 31 32 33 33 32 32 33 33 34 35 35 35 34 33 32 33 34 36 37 38 38 38 37 38 38 38 38 39 40 41 42 44 45 45
25 26 27 28 28 29 30 31 32 33 33 33 33 33 33 33 33 34 33 33 32 32 33 35 36 38 38 38 38 37 37 37 37 38 38 39 40 41 42 44 44 44
25 26 27 28 29 30 31 32 33 33 35 36 36 33 31 31 32 33 32 32 32 33 35 37 38 38 38 38 37 37 37 37 37 37 38 39 40 41 43 43 44 43
25 26 28 29 30 30 31 32 32 34 36 36 33 30 30 32 33 33 33 33 34 36 37 38 38 38 37 37 37 37 36 36 37 37 38 39 40 42 43 43 43 41
26 27 28 29 30 31 33 32 32 35 35 33 31 31 32 34 33 33 34 34 36 38 38 37 37 37 37 37 37 37 36 36 36 37 37 39 41 42 43 42 41 38
28 29 29 30 31 32 32 32 32 35 34 32 32 33 34 34 35 35 36 37 38 38 37 37 37 37 38 39 38 37 37 36 36 36 37 39 41 42 42 41 38 35
31 31 31 31 32 32 32 32 33 34 33 32 34 34 35 36 37 37 38 38 38 37 37 37 37 38 39 39 38 39 37 35 34 35 37 40 41 41 40 39 36 33
32 32 32 33 32 32 32 33 34 35 34 35 35 35 36 37 38 39 39 38 37 37 37 36 37 39 39 39 40 39 35 33 34 36 38 40 40 40 39 36 33 31
32 32 32 33 33 33 34 35 35 35 35 35 36 36 37 38 39 39 38 38 37 37 36 36 37 37 37 38 38 35 33 34 36 37 38 39 40 39 37 34 31 30
33 33 33 34 33 34 35 36 36 36 36 36 37 38 39 39 39 38 38 37 37 36 36 36 36 36 35 35 34 34 36 38 38 37 39 39 39 37 35 31 29 29
36 35 35 35 35 35 36 37 37 37 37 38 38 38 39 39 38 37 37 36 36 36 35 35 35 34 33 34 35 36 38 38 37 38 39 38 37 36 32 29 28 27

ECMWFNIL_500_spd_108.txt.gz
Wind_Speed
19 19 19 18 18 18 17 17 17 17 17 17 17 18 19 19 20 20 20 20 21 21 21 21 21 20 21 21 22 22 24 26 28 29 30 30 31 32 33 35 36 37
19 19 18 18 18 18 17 17 17 17 17 17 18 19 19 20 20 20 21 21 22 22 22 21 21 21 22 22 22 24 26 28 29 29 30 31 32 33 34 36 37 38
21 20 19 18 18 18 18 18 18 18 18 18 19 19 20 20 21 21 21 22 22 22 21 21 22 23 23 23 24 26 27 28 29 30 31 32 33 34 35 37 38 38
23 22 21 19 18 18 19 18 18 18 19 19 20 20 20 20 20 21 21 22 21 21 21 22 23 24 24 24 26 27 28 29 30 31 32 33 34 35 36 37 38 39
24 24 23 21 19 19 19 19 19 20 20 20 20 20 20 20 20 21 21 21 21 22 23 23 24 24 25 26 27 28 29 30 32 33 33 34 34 35 37 38 39 39
25 25 24 22 20 20 20 20 20 20 20 20 20 20 20 20 21 21 22 22 22 23 23 24 24 25 26 27 28 29 30 32 33 34 35 35 35 36 37 38 39 40
25 24 24 22 21 20 20 20 20 20 20 20 20 20 21 21 22 22 22 23 23 23 23 24 25 26 28 29 30 31 32 34 35 35 36 36 36 36 37 38 39 40
23 23 22 22 21 21 21 20 20 20 20 21 21 22 23 23 23 23 23 22 22 23 24 26 27 29 30 31 31 33 34 35 36 37 37 36 36 37 37 38 39 40
22 21 21 22 22 22 22 21 20 21 21 22 23 24 25 25 24 24 23 23 24 24 26 27 29 30 31 32 33 35 36 36 37 37 37 36 37 37 38 38 39 40
22 22 22 22 23 23 23 22 22 22 23 23 24 26 26 26 25 25 24 25 25 26 28 29 31 32 32 33 35 36 37 37 38 37 37 36 37 37 38 39 40 40
23 23 23 23 24 24 24 24 23 24 24 25 26 27 28 28 27 26 26 27 27 28 30 31 32 32 33 34 35 36 37 38 38 37 36 36 37 37 38 39 40 40
24 24 24 24 25 25 25 25 25 25 26 27 28 29 29 29 28 28 28 29 29 31 32 32 32 33 34 35 35 36 37 38 37 36 36 37 37 38 39 39 40 40
23 24 24 25 25 26 26 26 26 26 27 28 29 30 30 30 30 31 31 31 32 33 33 32 33 33 34 35 36 37 37 36 36 36 36 37 37 38 39 40 40 41
22 22 23 23 24 24 26 27 27 27 28 29 29 30 31 32 32 32 32 33 33 34 34 33 34 34 34 35 36 35 35 35 35 36 37 37 38 39 39 40 40 41
22 22 21 22 22 23 25 27 28 27 27 29 30 31 32 32 33 34 34 34 34 34 34 34 33 33 34 35 34 34 34 35 35 36 37 38 39 39 40 40 40 41
22 22 22 22 22 23 24 26 28 28 28 28 30 31 32 33 34 35 35 35 35 35 34 33 32 33 33 34 34 34 35 35 36 37 38 39 40 40 40 40 41 41
23 23 23 23 23 24 25 26 27 28 28 28 29 31 32 33 35 37 39 39 36 33 32 31 32 32 33 33 34 34 34 35 36 37 38 40 40 40 40 41 41 41
24 24 24 24 24 25 26 27 28 29 29 29 30 31 32 34 36 38 38 36 32 29 29 30 31 32 33 34 33 33 34 34 35 37 39 41 41 41 42 42 41 40
24 25 25 25 25 26 27 28 29 29 29 29 31 32 32 34 36 35 32 30 28 28 29 31 32 33 33 33 33 33 33 34 35 36 39 41 43 43 42 40 39 39
25 26 26 26 26 26 27 28 28 29 29 29 31 32 32 34 34 32 31 31 31 31 31 32 33 33 33 33 33 33 34 34 35 36 38 40 42 40 37 37 38 40
25 25 25 26 26 27 27 28 28 29 29 30 30 31 32 33 32 31 31 32 32 32 33 34 34 34 33 33 33 33 34 34 35 36 36 37 37 36 35 38 40 41
24 25 25 26 27 28 28 28 28 29 29 30 31 32 32 32 32 33 33 33 33 34 34 34 34 34 33 33 33 33 33 34 35 35 35 34 35 36 37 39 40 41
24 25 26 27 27 28 28 29 29 29 30 31 32 33 32 32 33 34 34 34 34 34 34 34 34 34 33 33 33 33 33 34 35 34 34 34 35 36 38 39 40 42
26 26 27 28 28 29 29 30 30 30 31 32 33 33 33 33 34 35 35 35 35 35 35 35 34 33 33 33 33 33 34 34 34 33 33 34 35 36 38 39 40 41
28 29 29 30 30 30 31 31 31 31 32 34 35 35 34 34 36 36 36 36 36 36 36 35 34 33 32 32 33 34 34 34 33 33 32 33 35 36 38 39 40 41
30 31 31 31 32 32 32 33 33 34 34 35 36 35 35 35 36 37 37 37 36 36 35 34 33 32 32 33 34 34 34 33 32 31 31 33 35 37 38 38 39 41

ECMWFNIL_500_spd_111.txt.gz
Wind_Speed
23 22 21 19 19 19 18 18 18 17 16 16 16 17 18 18 17 18 18 19 19 20 20 21 22 22 23 23 23 23 23 24 26 27 28 28 30 31 32 33 34 34
23 21 20 18 18 18 18 19 19 18 17 16 16 17 18 18 18 18 19 20 20 21 21 22 23 23 23 23 23 23 24 25 27 28 28 29 31 32 33 35 35 35
24 22 20 19 19 19 19 19 19 19 18 17 17 18 18 18 19 19 20 21 21 22 22 23 23 23 23 23 23 24 26 27 27 28 29 31 32 33 35 36 37 36
25 24 22 21 21 21 20 20 19 19 18 18 18 18 18 18 19 20 21 22 22 22 23 23 22 22 23 23 25 26 27 28 28 29 31 32 33 35 37 38 37 36
25 24 23 22 23 23 22 21 20 19 19 18 18 18 18 19 20 21 22 22 22 22 22 22 22 23 24 25 26 27 28 29 30 31 33 34 35 36 38 39 38 37
25 25 24 24 24 25 24 23 21 20 19 19 18 18 19 20 21 22 22 22 22 22 23 23 23 24 26 26 27 28 28 30 32 33 35 36 36 38 39 39 38 37
26 26 26 25 25 25 25 24 22 21 20 19 19 19 20 21 22 22 23 23 23 24 24 24 25 26 27 27 27 28 29 31 33 35 36 37 38 39 39 39 38 38
27 27 27 26 25 25 25 24 23 22 21 20 19 20 21 22 23 23 23 24 24 25 26 26 27 27 27 28 28 29 31 33 34 35 36 37 38 39 39 38 38 39
27 27 27 26 25 25 24 23 22 22 21 21 21 22 22 23 24 24 25 25 26 27 28 28 28 29 29 29 30 31 32 33 34 35 36 37 37 37 38 38 38 39
27 27 27 26 24 24 22 21 21 22 22 22 22 23 23 24 25 26 26 27 28 29 29 29 30 30 31 31 32 32 33 34 35 35 36 36 36 37 37 38 38 38
27 27 27 25 24 24 22 21 22 23 23 24 24 24 25 25 26 27 28 29 29 30 31 31 32 33 33 33 34 34 34 35 35 36 35 35 36 36 37 37 37 38
26 26 26 25 24 24 23 23 23 24 25 26 26 26 26 27 28 29 30 30 30 31 32 33 34 34 35 35 36 36 36 36 36 36 35 35 36 37 37 37 37 38
26 26 26 24 24 24 24 25 25 25 27 27 28 28 28 29 29 30 31 31 32 33 34 35 36 37 37 37 37 37 36 36 36 36 35 36 36 37 36 36 37 38
25 26 25 23 23 23 23 24 25 26 27 29 30 30 29 30 30 31 32 32 33 34 35 36 36 37 38 38 37 37 36 36 36 36 36 36 37 36 36 37 38 39
26 25 24 23 23 22 21 23 24 25 27 28 29 29 29 30 30 31 33 33 34 35 35 36 37 39 40 39 38 37 36 36 36 35 36 36 36 36 36 37 38 39
26 25 24 23 22 21 21 22 24 25 26 27 27 28 29 30 31 32 34 34 34 34 34 35 36 37 38 35 34 33 34 35 35 35 35 36 36 36 36 37 38 38
25 25 25 24 22 22 22 24 26 26 26 26 27 28 30 29 30 32 33 34 34 33 34 36 36 34 31 29 29 30 31 33 33 34 34 35 35 35 36 37 37 38
24 25 25 24 24 24 24 26 27 27 27 27 28 29 30 29 30 32 33 34 34 34 35 36 34 33 32 31 30 30 31 32 32 33 34 34 35 35 35 36 38 38
24 25 25 25 25 26 27 27 28 28 28 28 28 28 29 30 31 32 33 34 34 34 34 34 33 34 33 33 32 32 32 32 33 33 34 34 34 34 35 36 37 37
24 25 25 26 27 28 29 28 28 29 29 28 27 28 28 29 31 32 32 33 33 33 34 35 35 35 34 34 34 33 33 32 33 33 33 33 34 34 35 36 36 36
26 27 27 27 28 29 28 28 28 27 27 27 27 27 28 29 30 31 31 31 31 32 33 34 34 34 34 34 34 33 33 32 33 33 33 33 34 35 36 36 36 35
27 27 27 27 28 28 27 26 26 25 26 27 26 26 27 29 29 30 30 30 31 32 33 33 33 33 34 34 34 33 33 33 33 33 34 34 35 35 35 35 34 34
26 26 25 26 26 26 25 25 25 25 25 26 26 26 27 28 29 30 30 31 32 33 33 33 33 34 35 35 33 33 33 33 33 34 34 35 35 35 35 34 33 33
24 24 24 25 25 26 25 25 26 26 26 27 27 27 28 29 30 31 31 32 34 35 35 34 34 36 36 35 33 33 33 34 34 34 35 35 35 34 33 32 32 34
24 24 24 25 26 26 26 27 27 27 27 27 28 29 30 30 30 32 33 34 35 35 35 35 35 36 36 34 33 33 34 34 34 35 34 34 33 33 32 32 32 35
24 24 25 26 26 27 27 28 28 28 29 30 31 31 31 30 30 33 34 34 34 35 35 35 35 36 34 33 33 34 34 34 34 34 33 33 33 33 32 32 34 35

ECMWFNIL_500_spd_114.txt.gz
Wind_Speed
22 23 24 24 23 23 23 23 22 22 22 20 18 18 19 20 19 18 17 17 17 18 18 18 19 19 20 21 22 22 23 24 24 23 23 23 25 27 29 30 31 32
23 23 24 24 23 22 22 22 22 22 22 20 19 19 19 19 19 17 17 17 18 18 18 19 20 20 21 22 23 23 24 24 23 23 23 25 26 28 30 31 32 34
23 23 24 24 23 22 22 22 22 22 21 20 20 20 19 19 18 17 17 18 18 18 19 20 20 21 22 23 23 24 24 23 23 24 25 26 28 30 31 32 34 36
22 23 24 24 23 22 22 22 22 22 22 21 20 19 19 19 18 17 17 18 18 19 19 20 21 22 23 24 24 24 24 24 24 25 27 28 29 30 32 33 35 36
22 23 24 24 23 23 23 23 22 23 23 21 20 19 19 19 18 17 17 18 18 19 20 21 22 23 24 24 24 25 25 25 26 27 28 28 29 31 32 34 35 36
21 23 24 24 24 24 23 22 22 23 23 21 20 20 19 19 18 17 17 18 18 20 21 22 23 24 25 25 25 26 26 27 28 28 29 29 30 32 33 34 36 37
21 23 24 25 25 25 24 23 23 22 22 21 20 20 20 19 18 18 18 18 19 21 22 23 24 25 26 26 26 27 28 29 29 30 31 31 32 34 35 35 37 38
21 23 25 25 26 26 25 23 23 22 21 20 20 21 20 19 19 18 19 19 20 22 23 24 25 26 27 27 28 29 30 31 31 32 33 33 34 35 36 37 38 38
22 23 25 26 26 26 25 23 23 22 21 20 20 20 20 19 20 20 20 21 22 23 25 25 26 28 28 29 30 31 31 32 33 34 35 35 36 37 37 38 39 39
23 24 25 26 26 26 25 23 23 22 21 20 20 20 19 20 21 21 22 22 24 25 26 27 28 29 30 31 32 33 34 35 36 37 37 37 38 38 38 39 39 39
24 25 25 26 26 26 24 23 22 21 20 20 20 19 20 21 22 23 23 24 26 27 28 29 30 31 32 33 34 35 36 37 38 39 38 38 38 39 39 40 39 39
25 25 25 25 26 25 23 23 22 20 20 20 20 20 21 22 23 24 25 27 28 30 30 31 32 33 34 35 36 37 38 39 41 40 39 38 38 39 39 39 39 39
26 26 26 26 26 24 23 22 21 19 20 21 21 22 23 24 24 25 27 29 30 31 32 32 33 34 35 37 37 37 37 38 39 37 34 34 35 36 37 38 38 39
26 26 26 26 25 24 23 21 20 18 19 21 22 23 24 25 24 26 28 29 30 32 33 33 34 36 36 36 35 34 34 34 33 30 28 29 30 32 34 36 37 38
27 27 26 26 25 24 23 21 19 18 19 21 22 23 23 24 24 26 28 28 29 32 33 34 34 34 34 33 32 33 33 32 30 29 29 29 29 31 33 34 36 37
27 27 26 25 25 24 23 20 19 19 20 21 22 22 23 24 25 27 28 28 30 32 34 33 33 33 34 34 34 33 32 32 32 31 31 30 31 32 32 33 35 36
26 27 26 25 25 24 22 21 20 21 21 22 22 23 24 25 26 27 28 29 30 32 33 33 33 34 35 35 35 34 34 33 33 32 32 32 32 32 32 33 34 35
26 26 26 25 24 23 22 22 23 23 23 24 24 25 25 26 27 28 29 30 30 31 32 32 33 34 35 35 35 35 35 34 33 33 33 33 32 32 32 32 33 34
26 25 25 24 23 22 23 24 24 24 25 26 27 27 27 27 28 28 29 30 30 30 30 31 32 33 33 34 34 34 34 33 33 33 33 33 32 31 31 32 33 34
25 24 23 23 22 22 24 25 25 26 27 27 28 28 28 28 28 27 27 28 29 30 30 30 32 32 32 33 33 33 33 33 33 33 33 32 31 31 32 32 33 34
25 24 23 23 23 24 26 26 27 28 28 28 28 29 28 28 27 27 27 28 29 29 30 30 32 32 31 32 32 33 33 33 33 34 33 32 31 31 32 33 34 34
26 25 25 25 26 28 28 28 28 28 28 28 28 28 27 27 28 27 28 28 29 29 30 30 32 32 31 31 32 32 33 34 34 33 32 31 31 32 33 33 34 34
27 27 28 28 29 30 29 28 28 28 27 27 27 27 27 27 27 27 28 29 29 30 30 31 32 31 31 31 32 32 33 34 34 32 31 30 32 33 33 33 33 33
28 29 30 29 29 29 28 27 27 27 26 26 26 27 27 27 27 28 29 29 30 32 33 33 32 31 31 32 33 33 33 34 33 31 30 31 32 32 32 32 33 33
28 28 28 28 27 27 27 26 25 25 26 25 25 27 27 27 28 29 29 31 33 35 34 33 32 31 31 32 34 34 34 34 32 30 30 32 32 32 32 32 33 34
26 26 27 26 26 26 26 25 24 25 25 25 25 26 27 28 29 30 31 33 36 37 35 34 32 31 32 33 34 34 33 31 30 30 32 33 32 32 32 32 33 34

ECMWFNIL_500_spd_117.txt.gz
Wind_Speed
20 18 16 15 14 14 14 15 16 17 18 18 18 19 19 18 17 17 18 19 20 20 19 18 17 17 18 19 19 19 20 21 22 22 23 23 23 23 23 24 25 26
19 16 15 14 14 13 13 15 16 17 18 18 18 18 18 18 18 18 19 20 20 20 19 18 18 18 19 19 19 20 21 21 22 23 23 23 23 23 24 25 26 27
17 15 14 14 14 13 14 15 16 17 18 18 18 18 18 19 19 19 19 20 21 20 19 18 18 18 19 19 20 20 21 22 23 23 24 24 24 24 25 27 28 29
16 15 15 15 15 14 14 15 16 17 17 17 17 17 18 20 20 19 20 21 21 19 18 18 18 18 19 20 20 21 22 23 23 24 24 24 25 26 27 29 30 31
16 15 15 16 15 14 14 15 15 16 16 16 16 16 19 21 21 20 20 21 20 19 18 18 18 18 19 20 21 22 23 23 24 24 24 25 26 28 29 30 32 33
16 15 15 16 16 15 14 14 15 16 16 16 15 16 19 20 21 21 21 21 20 19 19 18 18 19 20 21 21 22 23 24 24 24 25 26 28 29 31 32 34 35
17 15 15 16 16 15 15 14 15 16 17 16 15 16 18 20 21 21 22 22 21 20 19 18 18 19 20 21 22 23 24 24 24 25 26 28 30 32 33 34 36 36
17 16 16 16 17 16 15 15 16 17 17 16 15 16 18 20 21 21 22 22 21 21 20 19 20 20 21 22 24 24 24 25 25 26 28 30 32 34 36 37 37 37
17 16 16 17 17 16 16 16 17 17 17 16 16 16 18 20 21 21 21 21 21 21 20 20 21 22 22 24 25 25 25 26 27 28 30 32 34 36 37 37 35 34
17 17 17 18 18 16 16 17 18 18 18 17 17 17 18 19 20 20 20 21 21 21 21 22 23 23 24 26 26 27 27 27 29 31 33 34 34 34 33 31 30 31
16 17 18 18 18 16 17 18 19 18 18 17 17 18 18 19 19 18 19 20 21 22 22 23 24 25 27 28 28 28 28 30 31 32 32 31 30 30 29 29 29 30
16 17 18 19 18 17 18 19 19 19 18 18 18 18 18 19 19 19 20 21 21 22 22 23 25 26 28 28 28 29 31 31 30 29 28 28 28 28 29 29 30 30
17 18 19 19 18 17 19 20 20 19 19 19 19 19 19 20 20 21 21 21 22 22 23 24 25 26 28 28 28 30 32 30 27 28 29 29 29 28 29 30 30 31
19 19 20 20 19 18 20 21 20 20 19 19 19 20 21 21 21 21 21 21 22 22 22 24 25 26 28 28 29 30 30 28 28 30 31 30 29 29 30 30 31 32
20 21 22 22 20 19 21 21 21 21 20 19 20 21 21 21 20 21 21 21 21 22 23 24 25 27 29 29 29 30 29 30 31 31 30 30 30 30 30 31 31 32
21 22 23 23 21 21 21 22 21 21 20 20 22 22 22 21 21 21 22 22 22 23 24 25 27 28 29 28 29 29 29 30 31 31 30 30 30 30 31 31 32 32
22 23 24 24 22 22 23 22 22 22 21 22 23 23 22 22 22 23 23 23 24 24 25 26 27 29 28 28 28 29 30 30 31 31 30 30 31 31 31 32 32 31
22 24 25 24 23 23 23 23 23 22 22 23 24 24 23 23 23 24 24 25 25 25 26 26 27 28 28 28 29 29 30 31 32 31 30 31 31 30 31 32 31 29
23 24 24 23 23 23 23 22 22 22 22 24 24 25 24 23 24 25 25 26 26 26 26 26 26 27 28 29 30 31 32 32 32 31 30 31 31 30 31 32 30 29
23 23 24 23 23 23 22 21 21 22 23 24 25 26 25 24 25 25 26 26 27 26 26 26 27 28 29 30 31 32 32 32 32 30 30 31 31 31 32 31 29 29
22 23 23 23 23 22 22 22 23 23 24 25 27 27 26 25 26 26 27 27 26 26 26 26 28 29 31 31 32 32 32 32 31 30 30 32 32 31 31 30 29 29
23 23 23 23 23 23 24 24 25 25 26 27 28 28 27 27 27 27 27 26 25 26 27 27 28 31 32 33 33 32 31 30 29 29 31 32 32 32 30 29 29 30
23 23 23 24 24 25 25 26 27 27 27 28 29 28 28 28 28 27 27 26 25 26 27 27 29 32 34 34 34 33 32 30 28 29 31 33 34 32 29 28 30 31
22 22 23 24 25 25 26 26 27 27 27 28 28 28 28 27 27 27 26 25 25 26 27 28 31 33 35 35 35 35 32 28 26 28 31 33 32 29 27 29 31 31
22 23 24 25 26 26 25 25 26 26 27 28 28 27 26 26 26 26 25 25 26 28 30 31 33 34 35 35 37 37 32 26 25 29 31 30 29 29 30 32 33 32
24 25 26 27 28 26 24 24 25 26 27 27 26 25 25 25 25 26 27 28 30 33 34 34 35 35 34 34 36 35 31 28 29 30 29 29 30 33 34 34 33 33

ECMWFNIL_500_spd_120.txt.gz
Wind_Speed
23 25 26 27 25 22 21 20 17 16 15 15 15 15 14 14 16 17 17 14 12 12 14 15 17 18 18 18 18 17 18 18 18 19 19 20 21 21 22 23 23 23
23 26 27 27 25 22 21 20 17 15 15 15 15 14 14 14 15 17 17 15 13 13 14 16 18 19 19 18 18 18 18 18 19 19 20 20 21 22 22 23 23 24
24 26 27 26 24 22 21 19 16 14 14 15 14 14 14 14 15 16 17 16 15 14 16 17 18 19 19 19 19 18 18 19 19 20 20 20 21 22 23 23 24 24
24 26 26 25 24 23 21 18 14 13 14 14 13 13 14 15 15 16 17 16 15 15 16 17 18 19 20 19 19 19 19 19 20 20 20 21 21 23 24 24 25 26
25 26 26 25 25 23 20 17 14 14 14 14 13 13 14 15 16 17 17 17 16 16 17 18 19 20 20 19 19 19 19 20 20 20 21 21 22 24 25 26 26 28
25 25 26 26 25 22 20 16 14 14 14 13 13 13 15 16 17 18 18 17 17 17 18 18 19 20 20 19 19 19 20 20 21 21 22 22 24 25 26 27 28 30
25 26 26 26 24 22 19 15 14 15 14 13 13 14 15 17 18 18 19 18 17 18 18 19 20 20 20 20 20 21 21 22 22 23 23 24 26 27 27 29 31 32
26 26 26 25 23 21 18 15 15 15 14 13 13 14 16 17 18 19 19 19 18 18 19 20 21 21 21 21 22 22 23 24 24 24 25 26 27 27 28 30 31 31
27 25 24 24 22 21 18 16 16 15 14 13 14 15 16 17 18 19 20 19 18 18 19 20 21 21 22 23 23 24 25 26 25 25 26 27 28 28 29 29 29 29
26 24 23 23 22 21 18 17 16 15 14 14 15 15 16 18 19 19 20 19 18 18 19 20 21 22 23 24 25 26 27 27 26 26 27 28 29 28 28 28 28 29
25 24 23 22 22 21 19 18 17 16 15 15 15 15 16 18 19 20 20 19 18 18 18 19 20 22 24 25 26 26 27 27 27 26 27 30 30 28 27 28 29 28
25 23 22 22 22 21 21 20 18 16 16 16 16 16 16 18 19 20 21 20 19 18 18 20 21 23 25 25 25 26 27 26 26 26 28 30 29 27 28 29 29 28
25 24 22 22 22 22 21 20 18 17 17 17 17 16 17 18 20 21 21 20 19 19 20 21 22 24 24 24 25 26 26 26 26 27 29 29 28 29 30 30 29 29
25 25 23 22 22 22 21 20 18 18 18 18 17 17 17 19 21 21 21 20 19 19 20 21 22 22 23 23 24 26 26 26 27 29 29 29 30 31 31 30 30 31
26 26 24 23 23 22 21 20 20 20 19 18 18 18 18 20 22 22 21 20 20 20 20 20 21 22 23 24 25 26 27 27 28 29 29 30 31 32 31 31 32 32
27 27 25 23 23 23 23 22 22 21 20 19 19 19 20 21 22 22 21 21 21 21 21 21 22 23 24 25 26 27 29 29 28 29 30 31 32 32 32 32 33 33
28 27 25 24 24 24 24 23 23 22 20 20 20 21 21 22 22 22 22 22 22 23 23 22 23 24 25 26 27 29 29 29 30 31 32 33 33 33 33 33 33 33
28 27 26 25 25 25 24 24 23 22 20 20 21 22 23 22 22 23 23 24 24 24 24 24 25 26 26 27 28 29 29 30 31 32 33 34 35 34 34 34 34 34
29 27 27 26 26 25 24 23 23 22 21 21 22 23 23 22 22 23 24 24 24 24 24 25 26 27 27 27 28 29 30 30 31 32 33 34 35 35 34 34 33 34
29 27 27 27 26 25 24 23 23 22 21 22 23 24 23 22 22 23 24 24 24 25 25 26 28 28 28 28 28 29 30 30 31 32 33 34 34 35 35 34 33 34
28 27 28 28 27 26 26 25 24 22 20 22 24 24 24 23 23 23 24 25 25 26 27 28 28 29 28 28 28 29 30 30 32 34 35 34 34 35 35 33 33 34
28 28 28 28 27 26 25 25 24 22 22 24 25 25 24 23 24 24 25 25 26 27 28 28 28 28 29 29 28 29 30 32 33 35 35 34 35 36 34 32 32 33
30 29 29 29 29 27 25 24 24 23 23 25 25 25 24 24 24 25 25 26 27 28 28 27 27 29 30 30 29 30 32 33 35 36 36 37 38 35 31 30 31 33
31 30 29 30 31 30 27 24 23 23 23 23 24 24 24 24 25 25 27 28 28 28 28 27 28 30 30 31 31 31 33 35 35 35 36 36 34 30 27 28 32 33
32 30 30 31 32 31 28 24 22 23 23 23 23 23 23 24 25 27 27 28 28 28 27 28 30 31 31 32 33 33 35 36 36 35 35 33 31 29 29 31 32 32
32 30 31 32 31 29 27 24 23 25 26 25 23 22 23 25 26 27 27 28 28 28 28 30 32 32 33 34 34 35 36 37 36 35 34 32 32 33 33 33 32 32

ECMWFNIL_500_spd_123.txt.gz
Wind_Speed
24 25 25 25 25 25 25 25 22 18 18 20 21 20 20 20 20 19 17 16 16 16 14 14 14 14 14 15 16 16 17 17 18 18 18 18 19 19 19 20 20 21
24 24 25 25 25 25 25 24 21 19 20 21 20 20 20 20 20 19 18 17 16 16 15 15 15 15 15 16 17 17 17 18 18 18 18 18 19 19 19 20 21 22
24 24 24 25 25 25 24 23 21 22 23 22 20 20 20 20 20 19 18 18 17 16 15 16 17 17 16 17 17 17 18 18 18 18 18 19 19 19 20 22 23 24
24 24 24 25 25 24 22 22 22 23 23 22 21 20 20 20 19 19 19 18 18 16 16 16 17 17 18 18 18 18 18 18 18 19 19 19 19 20 22 23 25 26
24 24 24 24 24 22 22 22 23 24 24 22 21 22 21 20 19 19 19 19 18 18 17 17 18 18 19 19 19 19 19 19 19 19 20 20 21 22 23 25 26 27
24 23 23 23 23 22 22 22 23 23 24 23 23 23 22 20 20 20 19 19 19 19 19 19 19 19 19 20 20 20 20 20 20 20 21 22 22 24 25 26 27 28
24 23 23 23 23 23 23 23 23 24 24 24 23 23 22 21 20 20 20 20 20 20 20 20 19 20 20 21 21 21 21 21 21 22 23 23 24 25 27 29 29 28
25 24 24 24 24 24 24 24 24 25 25 24 24 23 22 21 21 21 20 20 20 21 21 21 20 20 20 21 21 21 21 22 22 23 24 25 26 27 29 30 30 29
25 24 24 24 24 24 24 25 25 25 25 24 24 23 22 22 22 21 20 20 21 21 22 21 21 21 21 21 21 21 21 22 23 24 25 27 28 29 30 29 29 30
25 24 24 25 25 25 25 25 25 25 25 24 24 23 23 23 23 22 21 21 21 22 22 21 21 21 20 20 20 20 21 22 23 25 27 28 29 29 29 28 29 29
25 24 24 25 26 26 26 26 26 25 25 24 24 24 24 23 22 22 22 22 22 22 21 21 21 21 20 20 19 20 21 23 25 26 28 28 28 28 28 29 30 29
25 24 24 26 27 27 27 27 26 26 25 24 24 25 25 24 23 23 23 23 22 22 21 21 21 20 20 20 20 21 22 23 25 26 26 27 27 28 29 30 30 30
24 24 25 27 28 28 28 28 27 27 25 24 25 25 25 24 24 24 23 23 22 22 22 21 20 19 19 19 20 21 22 22 23 25 26 27 28 29 30 31 31 31
24 25 27 28 29 28 29 29 28 27 25 24 24 26 26 26 25 24 23 23 23 23 22 21 20 19 18 18 19 20 21 22 23 25 27 28 29 30 30 31 31 32
25 27 28 29 29 29 30 30 28 27 26 24 25 27 27 26 25 24 24 24 24 23 22 21 20 19 18 19 19 20 22 23 25 27 28 30 31 31 31 32 32 33
28 28 29 30 30 30 31 30 30 28 26 25 25 27 27 26 25 25 25 24 24 24 23 22 21 20 20 20 21 22 24 25 27 28 29 31 31 32 32 32 33 34
30 29 30 31 31 31 32 31 31 28 26 25 26 27 27 27 26 25 25 25 24 24 24 23 22 22 21 22 23 24 26 27 28 29 30 31 32 31 31 31 33 35
31 31 31 32 32 32 32 32 32 29 26 25 26 27 27 27 27 26 25 24 24 24 24 23 23 23 23 24 25 26 27 28 29 29 30 31 31 30 31 33 35 37
32 32 33 33 32 32 32 33 32 29 25 25 26 27 28 27 27 26 25 24 24 24 24 24 24 24 24 25 26 27 28 29 29 29 29 30 31 31 33 35 37 38
33 33 34 34 33 33 33 34 32 28 25 25 26 26 27 26 26 26 26 25 25 24 24 24 24 25 26 27 28 28 29 29 29 29 30 31 32 33 35 36 38 40
35 35 36 35 34 34 33 33 31 28 25 25 26 27 27 26 26 27 27 25 25 25 25 25 25 26 27 28 29 29 29 29 29 30 31 32 33 34 36 37 39 40
36 36 37 37 35 34 33 33 30 27 26 26 27 28 28 27 26 26 25 25 25 25 25 25 27 28 29 30 30 29 28 29 29 30 31 32 34 36 38 38 39 40
37 38 39 38 37 35 33 32 29 27 27 28 29 30 30 29 28 26 25 24 24 25 25 26 28 29 30 30 30 29 28 28 29 30 32 34 36 38 39 39 39 39
38 39 40 40 38 35 33 31 30 29 29 30 31 31 31 31 30 27 24 23 24 25 26 27 29 29 29 30 30 29 28 29 30 32 34 36 38 39 40 39 39 38
40 41 41 41 38 35 34 32 30 30 33 35 34 32 31 32 31 27 24 23 24 26 26 28 29 29 29 29 30 30 30 31 33 35 37 38 39 40 40 40 39 37
42 42 43 42 39 36 35 32 29 30 35 37 35 32 32 33 31 28 26 25 24 24 26 28 29 29 30 30 31 31 32 33 35 37 38 39 40 40 40 40 38 36